     2              OBSERVATION DATA    GPS                 RINEX VERSION / TYPE
ASHTORIN MIT 05 - JUN - 97 18:15                            PGM / RUN BY / DATE
                                                            COMMENT
--> THIS IS THE START OF A NEW SITE <---                    COMMENT
--> THIS IS THE START OF A NEW SITE <---                    COMMENT
Original Marker Name: GS17                                  COMMENT
Campaign Name: China Lake May 1997                          COMMENT
4-Character Station Name: GS17                              COMMENT
6-Character Antenna Code: ASHGD3                            COMMENT
Vertical Measurement Point: TGP                             COMMENT
Vertical Offset to Rinex Ref. Point: 0.0640                 COMMENT
Radial Measurement Point: RRP                               COMMENT
Radial Offset to Rinex Ref. Point: 0.0000                   COMMENT
Antenna Height from Field Measurement: 0.2490 m             COMMENT
Additional Antenna Identification Info.:                    COMMENT
The Whopper (700718AB)                                      COMMENT
Original XYZ: -2371742.5700 -4625005.6400 3685670.4200      COMMENT
New XYZ position is based on association with SCEC monument COMMENT
E1F4B5O1+0011. Position of that monument is believed to be  COMMENT
valid to within 1 m horizontally; vertical accuracy         COMMENT
should be no worse than 3-times this value.                 COMMENT
                                                            COMMENT
Revised Rinex header created by UCSD GPS archive for        COMMENT
GSAC on 01-Aug-2000 (2000:214) 02:26:34 GMT                 COMMENT
For assistance contact dagnew@ucsd.edu                      COMMENT
or anderson@python.ucsd.edu                                 COMMENT
                                                            COMMENT
NONE                                                        MARKER NAME
gs17                                                        MARKER NUMBER
MHB US DEFENSE MAPPING AGENCY                               OBSERVER / AGENCY
456 ASHTECH Z-XII3 1G001C7                                  REC # / TYPE / VERS
443 ASHTECH GEODETIC III                                    ANT # / TYPE
 -2403216.4365 -4605389.7530  3689990.3122                  APPROX POSITION XYZ
        0.1850        0.0000        0.0000                  ANTENNA: DELTA H/E/N
     1     1     0                                          WAVELENGTH FACT L1/2
     7    L1    L2    C1    P1    P2    D1    D2            # / TYPES OF OBSERV
    30                                                      INTERVAL
  1997     4    28    15    23    0.000000                  TIME OF FIRST OBS
  1997     4    28    21    30   30.000000                  TIME OF LAST OBS
                                                            END OF HEADER
 97  4 28 15 23  0.0000000  0  6 27  2 31 19  7 18                  -0.001512135
    -21386.87219     -4325.36055  18942998.258           0.0005          0.0005
      2406.427        1875.138
    -43175.76019    -16573.86758  20141588.308           0.0005          0.0005
      2540.935        1979.949
     11407.94119      2010.18754  21012810.493           0.0005          0.0005
     -1121.716        -874.064
       407.65719        81.59955  19532271.690           0.0005          0.0005
       -46.274         -36.058
    -45483.12819     -8629.66152  22298378.862           0.0005          0.0005
      4823.214        3758.349
     20785.44419      4025.59753  21283343.774           0.0005          0.0005
     -2245.685       -1749.884
 97  4 28 15 23 30.0000000  3  2
GS17                                                        MARKER NAME
--> THIS IS THE START OF A NEW SITE <---                    COMMENT
 97  4 28 15 23 30.0000000  0  7 27  2 31 19  7 18 10                0.000242303
    -93523.525 9    -60535.55658  18929269.062    18929270.6085   18929277.0065
      2402.832        1872.337
   -119335.626 9    -75919.36858  20127097.040    20127096.3375   20127103.1855
      2536.851        1976.767
     45238.887 9     28371.87357  21019248.316    21019248.9165   21019255.1145
     -1133.378        -883.152
      1864.725 9      1216.90558  19532548.045    19532549.0655   19532555.7415
       -50.598         -39.427
   -190196.327 9   -121393.66856  22270838.256           0.0004          0.0005
      4824.705        3759.510
     88189.928 9     56548.86257  21296170.649    21296171.2925   21296177.4205
     -2247.810       -1751.540
      6681.55519      4304.72952  22667435.701           0.0005          0.0005
      -274.855        -214.173
 97  4 28 15 24  0.0000000  0  6 27  2 31 19  7 18                   0.000836009
   -165494.684 9   -116616.98248  20714329.976    20714329.8594   20714336.1384
      2396.761        1867.606
   -195320.317 9   -135128.21448  21911390.505    21911391.7154   21911398.6064
      2530.361        1971.710
     79446.970 9     55027.50147  22824512.107    22824512.9434   22824519.4434
     -1147.150        -893.883
      3494.521 9      2486.86348  21331613.470    21331613.9624   21331620.6354
       -57.810         -45.047
   -334890.970 9   -234142.61256  24042055.026           0.0005   24042067.4815
      4823.983        3758.948
    155686.470 9    109143.53847  23107769.682    23107769.7344   23107776.4124
     -2252.350       -1755.078
 97  4 28 15 24 30.0000000  0  7 27  2 31 19  7 18 10                0.000811600
   -237330.923 9   -172593.27058  20700659.389    20700659.8845   20700666.1435
      2390.881        1863.024
   -271165.002 9   -194227.95458  21896959.486    21896958.9105   21896965.8835
      2524.689        1967.290
    114051.166 9     81991.78157  22831097.457    22831097.9075   22831104.4045
     -1161.124        -904.772
      5312.240 9      3903.25458  21331959.963    21331959.8525   21331966.6015
       -64.763         -50.465
   -479616.719 9   -346915.86756  24014516.757    24014518.2725   24014526.7815
      4823.146        3758.296
    223304.164 9    161832.61757  23120635.372    23120636.9415   23120643.6335
     -2256.770       -1758.522
     23763.123 9     17614.72756  24469437.001    24469437.7495   24469447.2765
      -294.609        -229.565
 97  4 28 15 25  0.0000000  0  7 27  2 31 19  7 18 10                0.000787246
   -308974.634 9   -228419.53448  20687024.721    20687026.5164   20687032.8264
      2384.193        1857.813
   -346840.593 9   -253195.93848  21882559.002    21882558.3734   21882565.3334
      2519.408        1963.175
    149073.565 9    109281.93947  22837762.104    22837762.4134   22837769.0084
     -1174.648        -915.310
      7354.881 9      5494.90848  21332349.673    21332348.5874   21332355.3654
       -72.627         -56.592
   -624313.071 9   -459666.20746  23986983.559    23986983.1525   23986991.9624
      4822.229        3757.581
    291060.384 9    214629.63447  23133531.651    23133530.5284   23133537.2354
     -2261.355       -1762.095
     32720.929 9     24594.76656  24471141.738    24471142.5825   24471150.8475
      -303.568        -236.546
 97  4 28 15 25 30.0000000  0  7 27  2 31 19  7 18 10                0.000762832
   -380350.505 9   -284037.10348  20673442.976    20673444.1684   20673450.4904
      2374.061        1849.918
   -422303.247 9   -311997.97648  21868198.746    21868198.3484   21868205.2824
      2511.460        1956.982
    184550.622 9    136926.35947  22844513.148    22844513.4774   22844520.1074
     -1190.517        -927.676
      9703.153 9      7324.72148  21332795.921    21332795.5004   21332802.2404
       -83.928         -65.398
   -768931.030 9   -572355.49147  23959465.139    23959463.3004   23959472.0564
      4818.905        3754.991
    359008.653 9    267576.29947  23146460.715    23146460.6274   23146467.3714
     -2268.708       -1767.824
     42001.386 8     31826.32645  24472908.206    24472909.5274   24472915.7924
      -315.087        -245.522
 97  4 28 15 26  0.0000000  0  7 27  2 31 19  7 18 10                0.000738412
   -451442.005 9   -339433.07048  20659914.930    20659915.9354   20659922.3064
      2364.849        1842.739
   -497546.694 9   -370629.24248  21853880.039    21853880.0274   21853886.9524
      2504.274        1951.382
    220478.831 9    164922.34047  22851350.489    22851350.5054   22851357.0424
     -1205.378        -939.256
     12371.615 9      9404.02248  21333303.284    21333303.3334   21333310.0754
       -94.434         -73.585
   -913469.243 9   -684982.62347  23931960.088    23931958.7254   23931967.3314
      4816.435        3753.066
    427158.407 9    320679.93247  23159428.924    23159429.1344   23159435.8254
     -2275.016       -1772.740
     51604.363 8     39309.20245  24474736.179    24474736.9714   24474743.7464
      -325.783        -253.857
 97  4 28 15 26 30.0000000  0  7 27  2 31 19  7 18 10                0.000713997
   -522228.078 9   -394591.05248  20646444.943    20646445.8184   20646452.2344
      2353.726        1834.072
   -572557.233 9   -429079.00748  21839605.953    21839606.0084   21839612.9554
      2495.887        1944.847
    256881.848 9    193288.31947  22858277.710    22858277.8554   22858284.3404
     -1221.876        -952.111
     15372.425 9     11742.31548  21333874.142    21333874.4094   21333881.2004
      -105.981         -82.583
  -1057908.434 9   -797532.59547  23904473.619    23904472.8904   23904481.4904
      4812.559        3750.046
    495516.178 9    373945.74047  23172436.729    23172437.1944   23172444.0024
     -2282.820       -1778.821
     61559.069 9     47065.98645  24476629.974    24476630.7144   24476638.4764
      -338.130        -263.478
 97  4 28 15 27  0.0000000  0  7 27  2 31 19  7 18 10                0.000689594
   -592690.975 9   -449497.20848  20633036.350    20633037.1774   20633043.6214
      2342.494        1825.320
   -647321.864 9   -487337.15448  21825378.587    21825378.7864   21825385.7014
      2486.974        1937.902
    293757.188 9    222022.32347  22865294.723    22865295.0004   22865301.4414
     -1238.049        -964.714
     18703.485 9     14337.92148  21334507.795    21334508.2654   21334515.0824
      -117.306         -91.407
  -1202242.104 9   -910000.30746  23877007.513    23877007.0854   23877015.6944
      4808.201        3746.650
    564094.838 9    427383.62547  23185486.844    23185487.3434   23185494.1534
     -2290.499       -1784.804
     71864.34219     55096.04856  24478590.866    24478591.5485   24478599.6075
      -350.391        -273.032
 97  4 28 15 27 30.0000000  0  7 27  2 31 19  7 18 10                0.000665213
   -662824.324 9   -504146.57548  20619690.522    20619691.3094   20619697.7494
      2331.415        1816.687
   -721816.193 9   -545384.67548  21811202.845    21811203.0564   21811209.8884
      2477.537        1930.548
    331114.061 9    251131.55447  22872403.551    22872403.8094   22872410.3194
     -1254.356        -977.420
     22357.335 9     17185.07348  21335203.080    21335203.6234   21335210.4354
      -127.850         -99.623
  -1346446.343 9  -1022367.21146  23849566.002    23849565.8404   23849574.5254
      4803.554        3743.029
    632898.743 9    480997.03347  23198579.777    23198580.4104   23198587.1914
     -2298.365       -1790.934
     82532.13819     63408.66255  24480621.738    24480621.5935   24480628.8065
      -362.704        -282.626
 97  4 28 15 28  0.0000000  0  7 27  2 31 19  7 18 10                0.000640858
   -732630.271 9   -558540.80848  20606406.859    20606407.6694   20606414.1184
      2320.469        1808.158
   -796029.042 9   -603212.86747  21797080.591    21797080.8184   21797087.6474
      2468.371        1923.406
    368960.754 9    280622.46347  22879605.559    22879605.9074   22879612.3084
     -1270.600        -990.078
     26312.720 9     20267.14848  21335955.824    21335956.3674   21335963.1904
      -137.493        -107.137
  -1490506.690 9  -1134621.97546  23822152.120    23822152.0344   23822160.6584
      4798.730        3739.270
    701932.708 9    534789.74847  23211716.774    23211717.2084   23211724.0674
     -2305.562       -1796.542
     93558.22018     72000.37055  24482719.824    24482719.6085   24482727.5335
      -374.658        -291.941
 97  4 28 15 28 30.0000000  0  7 27  2 31 19  7 18 10                0.000616537
   -802102.728 9   -612675.21348  20593186.816    20593187.5284   20593193.9374
      2309.271        1799.432
   -869961.874 9   -660822.80947  21783011.567    21783011.8434   21783018.6894
      2458.804        1915.951
    407299.312 9    310496.63447  22886901.387    22886901.5684   22886907.9004
     -1286.972       -1002.835
     30567.470 9     23582.53848  21336765.311    21336766.0814   21336772.9244
      -147.848        -115.206
  -1634414.199 8  -1246757.68746  23794767.169    23794767.2844   23794776.0684
      4793.307        3735.044
    771193.802 9    588759.34247  23224896.544    23224897.1994   23224904.1404
     -2313.546       -1802.763
    104944.10719     80872.51255  24484886.431    24484886.5105   24484894.1185
      -386.287        -301.003
 97  4 28 15 29  0.0000000  0  7 27  2 31 19  7 18 10                0.000592272
   -871201.710 9   -666518.57148  20580037.794    20580038.5074   20580044.8844
      2297.642        1790.370
   -943566.576 9   -718177.15449  21769005.092    21769005.3564   21769012.2104
      2448.588        1907.991
    446166.457 9    340782.70147  22894297.628    22894297.7854   22894304.0334
     -1304.037       -1016.133
     35175.406 9     27173.10748  21337642.309    21337643.0134   21337649.8004
      -159.032        -123.921
  -1778119.066 9  -1358735.46047  23767419.984    23767421.0034   23767429.9604
      4787.272        3730.342
    840734.201 9    642946.61847  23238129.497    23238130.1924   23238137.4034
     -2321.978       -1809.334
    116729.914 9     90056.31756  24487129.168    24487129.2975   24487136.5895
      -399.194        -311.060
 97  4 28 15 29 30.0000000  0  7 27  2 31 19  7 18 10                0.000568057
   -939951.292 9   -720089.66248  20566955.254    20566955.9754   20566962.3364
      2285.328        1780.775
  -1016867.654 9   -775294.84847  21755056.550    21755056.6914   21755063.5044
      2437.853        1899.626
    485545.481 9    371467.62247  22901791.197    22901791.3374   22901797.6074
     -1321.532       -1029.765
     40123.243 9     31028.52748  21338583.828    21338584.5824   21338591.3754
      -171.240        -133.434
  -1921648.522 9  -1470576.54346  23740107.655    23740108.2724   23740117.0474
      4781.004        3725.458
    910519.456 9    697324.64747  23251409.286    23251409.8764   23251417.0314
     -2330.792       -1816.202
    128897.35918     99537.34155  24489444.213    24489444.2925   24489452.5795
      -412.401        -321.351
 97  4 28 15 30  0.0000000  0  8 27  2 26 31 19  7 18 10             0.000543906
  -1008316.256 9   -773361.05948  20553946.017    20553946.6334   20553952.9804
      2273.141        1771.279
  -1089834.146 9   -832151.85448  21741171.454    21741171.6764   21741178.4824
      2427.295        1891.399
   -332500.16318   -236615.34456  25178515.116    25178514.9955   25178522.6415
      4437.857        3458.070
    525457.478 9    402567.88447  22909386.087    22909386.3074   22909392.6684
     -1338.530       -1043.010
     45461.480 9     35188.21448  21339599.747    21339600.4604   21339607.2504
      -184.005        -143.381
  -2064978.410 9  -1582262.14446  23712831.955    23712833.5364   23712842.1294
      4775.049        3720.817
    980588.993 9    751924.30247  23264743.339    23264743.7184   23264750.8074
     -2339.677       -1823.125
    141483.030 8    109344.13445  24491839.637    24491839.5614   24491847.5414
      -426.069        -332.002
 97  4 28 15 30 30.0000000  0  7 27  2 31 19  7 18 10                0.000519797
  -1076328.952 9   -826357.98048  20541003.598    20541004.2484   20541010.6134
      2260.777        1761.644
  -1162490.799 9   -888767.43648  21727345.353    21727345.5694   21727352.3834
      2415.929        1882.542
    565862.055 9    434051.92247  22917074.484    22917075.0474   22917081.4754
     -1355.476       -1056.215
     51178.429 9     39642.95748  21340687.519    21340688.3734   21340695.2044
      -197.439        -153.849
  -2208131.721 7  -1693810.13146  23685591.105    23685592.3954   23685600.8984
      4768.023        3715.343
   1050917.525 9    806725.70146  23278126.242    23278126.8204   23278133.9664
     -2349.112       -1830.477
    154461.853 9    119457.73156  24494309.648    24494309.2115   24494317.3075
      -439.334        -342.338
 97  4 28 15 31  0.0000000  0  8 27  2 26 31 19  7 18 10             0.000495723
  -1143984.172 9   -879076.32948  20528129.305    20528129.9294   20528136.2854
      2249.263        1752.672
  -1234811.642 9   -945121.31049  21713582.996    21713583.3864   21713590.2194
      2405.263        1874.231
   -111957.11718    -69855.23652  25127951.094           0.0005          0.0005
      4419.751        3443.962
    606759.321 9    465919.89547  22924856.686    22924857.6114   22924863.9844
     -1371.334       -1068.572
     57284.758 9     44401.11248  21341849.657    21341850.4544   21341857.2404
      -209.723        -163.421
  -2351100.16519  -1805214.06356  23658385.577    23658386.6635   23658395.0805
      4762.575        3711.097
   1121511.117 9    861733.67247  23291560.327    23291560.3764   23291567.5084
     -2357.281       -1836.842
    167816.742 9    129864.12547  24496850.868    24496850.7025   24496858.8554
      -451.209        -351.591
 97  4 28 15 31 30.0000000  0  8 27  2 26 31 19  7 18 10             0.000471693
  -1211264.533 9   -931502.58948  20515326.338    20515326.9444   20515333.2864
      2236.912        1743.048
  -1306778.234 9  -1001199.16449  21699888.191    21699888.6104   21699895.5134
      2393.414        1864.998
   -244391.62118   -173050.63555  25102755.585           0.0005   25102756.3865
      4409.998        3436.362
    648158.031 9    498178.58547  22932734.633    22932735.5564   22932741.9534
     -1387.828       -1081.424
     63790.788 9     49470.72448  21343087.761    21343088.5134   21343095.3834
      -223.168        -173.897
  -2493853.553 9  -1916450.43547  23631220.189    23631221.5934   23631229.9814
      4755.102        3705.274
   1192387.117 9    916961.65747  23305047.534    23305047.6714   23305054.8494
     -2366.878       -1844.321
    181554.524 9    140568.80246  24499464.934    24499464.7974   24499473.2434
      -463.918        -361.495
 97  4 28 15 32  0.0000000  0  8 27  2 26 31 19  7 18 10             0.000447692
  -1278212.130 9   -983669.54248  20502586.681    20502587.2874   20502593.6094
      2226.339        1734.810
  -1378434.893 9  -1057035.50949  21686252.354    21686252.8194   21686259.7644
      2383.724        1857.447
   -376576.799 8   -276052.04245  25077594.095    25077595.1505   25077601.2034
      4402.436        3430.470
    690017.861 9    530796.60347  22940700.328    22940701.2204   22940707.5714
     -1402.872       -1093.147
     70660.569 9     54823.78948  21344395.129    21344395.8024   21344402.7404
      -234.713        -182.893
  -2636411.277 9  -2027534.34747  23604092.592    23604093.8124   23604102.1494
      4748.826        3700.384
   1263507.053 9    972379.74147  23318581.294    23318581.4534   23318588.6224
     -2374.219       -1850.041
    195644.701 9    151548.15146  24502146.032    24502146.3544   24502154.5114
      -475.389        -370.433
 97  4 28 15 32 30.0000000  0  9 27  2 26 15 31 19  7 18 10          0.000423746
  -1344794.053 9  -1035551.56148  20489916.564    20489917.1724   20489923.5284
      2212.504        1724.029
  -1449756.614 9  -1112610.86749  21672680.341    21672680.7644   21672687.7314
      2371.197        1847.686
   -508493.477 8   -378844.21056  25052492.161    25052492.3205   25052498.6345
      4392.099        3422.415
  -1063703.76318   -815282.48056  25235454.216    25235455.2025   25235463.8045
      3651.234        2845.117
    732380.603 9    563806.50747  22948761.490    22948762.5484   22948768.9294
     -1421.206       -1107.433
     77917.588 9     60478.59548  21345776.140    21345776.7964   21345783.7834
      -248.982        -194.012
  -2778738.282 9  -2138438.47047  23577008.844    23577009.8824   23577018.1964
      4739.892        3693.422
   1334886.772 9   1028000.25547  23332164.506    23332164.6264   23332171.7784
     -2384.296       -1857.893
    210117.867 9    162825.88046  24504900.109    24504900.3374   24504908.6194
      -489.462        -381.399
 97  4 28 15 33  0.0000000  0  9 27  2 26 15 31 19  7 18 10          0.000399894
  -1410949.651 9  -1087101.37948  20477327.619    20477328.2104   20477334.5744
      2198.883        1713.415
  -1520703.732 9  -1167894.32549  21659179.560    21659180.0124   21659186.9444
      2359.737        1838.756
   -640091.709 9   -481388.25946  25027448.207    25027449.6694   25027456.4934
      4382.031        3414.570
  -1173111.605 9   -900535.29646  25214634.481    25214635.5504   25214644.2864
      3643.552        2839.131
    775295.679 9    597246.79947  22956928.182    22956929.0204   22956935.3484
     -1438.977       -1121.281
     85613.537 9     66475.42148  21347240.499    21347241.2884   21347248.3164
      -263.006        -204.940
  -2920790.551 9  -2249128.51647  23549977.574    23549978.2394   23549986.5304
      4731.218        3686.663
   1406570.487 9   1083857.65147  23345805.387    23345805.6344   23345812.8764
     -2393.544       -1865.099
    225033.882 9    174448.74947  24507738.720    24507738.9954   24507747.1044
      -503.988        -392.718
 97  4 28 15 33 30.0000000  0  9 27  2 26 15 31 19  7 18 10          0.000376113
  -1476729.906 9  -1138358.71848  20464810.116    20464810.6824   20464817.0234
      2185.987        1703.366
  -1591343.404 9  -1222938.21049  21645737.402    21645737.7924   21645744.6754
      2349.207        1830.551
   -771407.977 9   -583712.62246  25002459.380    25002461.0764   25002467.8964
      4372.132        3406.856
  -1282316.209 8   -985629.78146  25193853.867    25193854.5674   25193863.3764
      3636.404        2833.562
    818723.203 9    631086.39747  22965192.331    22965193.0854   22965199.3834
     -1456.625       -1135.032
     93702.305 9     72778.34148  21348779.774    21348780.5904   21348787.5984
      -276.586        -215.522
  -3062614.681 9  -2359640.79647  23522989.288    23522989.9664   23522998.3034
      4723.515        3680.661
   1478491.952 9   1139900.29547  23359491.258    23359491.8894   23359499.1704
     -2401.575       -1871.357
    240358.527 9    186389.96246  24510654.865    24510655.1974   24510663.2874
      -517.942        -403.591
 97  4 28 15 34  0.0000000  0  9 27  2 26 15 31 19  7 18 10          0.000352408
  -1542125.447 9  -1189316.28748  20452365.801    20452366.3994   20452372.6644
      2173.736        1693.820
  -1661677.057 9  -1277743.64349  21632353.459    21632353.7974   21632360.6474
      2339.521        1823.003
   -902448.131 9   -685821.84345  24977523.756    24977524.9054   24977531.6894
      4363.870        3400.418
  -1391309.046 8  -1070559.18745  25173113.229    25173113.9934   25173122.6074
      3629.702        2828.339
    862674.185 9    665333.88847  22973555.786    22973556.6844   22973562.9284
     -1473.395       -1148.100
    102180.440 9     79384.66348  21350393.111    21350393.9684   21350400.9544
      -288.602        -224.885
  -3204221.234 9  -2469983.52547  23496042.637    23496043.0564   23496051.4104
      4717.023        3675.602
   1550641.226 9   1196120.46947  23373220.470    23373221.5044   23373228.8304
     -2408.543       -1876.787
    256089.766 9    198648.02746  24513648.993    24513648.8514   24513656.9464
      -530.640        -413.486
 97  4 28 15 34 30.0000000  0  9 27  2 26 15 31 19  7 18 10          0.000328777
  -1607129.325 9  -1239968.65448  20439996.028    20439996.6354   20440002.8354
      2160.192        1683.266
  -1731683.882 9  -1332294.41048  21619031.690    21619031.9894   21619038.8424
      2327.972        1814.004
  -1033205.677 9   -787710.89745  24952641.802    24952642.6044   24952649.0804
      4353.844        3392.606
  -1500072.45118  -1155309.85955  25152416.101    25152416.8165   25152425.6415
      3621.656        2822.070
    907148.081 9    699988.84147  22982019.117    22982019.7874   22982025.8594
     -1490.985       -1161.806
    111045.609 9     86292.55847  21352079.933    21352081.0294   21352087.9504
      -301.832        -235.194
  -3345608.906 9  -2580155.70947  23469137.376    23469137.8954   23469146.2174
      4709.351        3669.624
   1623035.516 9   1252531.54946  23386996.816    23386997.7404   23387005.0374
     -2417.146       -1883.490
    272218.703 9    211216.01946  24516718.434    24516718.3774   24516726.3974
      -544.274        -424.110
 97  4 28 15 35  0.0000000  0  9 27  2 26 15 31 19  7 18 10          0.000305209
  -1671744.371 9  -1290318.04648  20427700.196    20427700.8184   20427707.0124
      2147.377        1673.281
  -1801359.860 9  -1386587.36049  21605772.695    21605773.0654   21605779.9644
      2316.917        1805.390
  -1163677.243 8   -889377.13045  24927814.100    24927814.5514   24927820.7134
      4344.204        3385.094
  -1608607.99118  -1239882.97255  25131761.917    25131762.8375   25131771.8325
      3614.187        2816.250
    952131.677 9    735040.97847  22990579.404    22990579.9344   22990585.9504
     -1507.992       -1175.059
    120299.235 9     93503.17748  21353840.929    21353841.9404   21353848.9344
      -314.744        -245.255
  -3486781.780 9  -2690160.48146  23442272.820    23442273.6254   23442282.0084
      4702.131        3663.998
   1695667.093 9   1309127.54246  23400818.554    23400819.0634   23400826.3914
     -2424.925       -1889.552
    288736.144 9    224086.69846  24519861.447    24519861.2474   24519869.5274
      -556.867        -433.922
 97  4 28 15 35 30.0000000  0  9 27  2 26 15 31 19  7 18 10          0.000281703
  -1735985.674 9  -1340376.21248  20415475.455    20415476.1324   20415482.3224
      2134.971        1663.614
  -1870706.396 9  -1440623.61148  21592576.512    21592576.8294   21592583.7434
      2305.906        1796.810
  -1293879.567 8   -990833.46345  24903036.989    24903037.6894   24903043.6654
      4335.770        3378.522
  -1716938.70417  -1324296.42755  25111146.879    25111148.2475   25111157.0095
      3607.316        2810.896
    997607.882 9    770476.95847  22999233.156    22999233.7844   22999239.7444
     -1523.970       -1187.509
    129912.097 9    100993.70848  21355670.368    21355671.2244   21355678.2584
      -326.498        -254.414
  -3627759.490 7  -2800013.24946  23415445.821    23415446.5064   23415454.8594
      4695.925        3659.162
   1768522.69419   1365898.16555  23414682.770    23414683.1475   23414690.4745
     -2432.014       -1895.076
    305612.721 9    237237.30246  24523073.054    24523073.0474   24523081.0254
      -568.483        -442.974
 97  4 28 15 36  0.0000000  0  9 27  2 26 15 31 19  7 18 10          0.000258233
  -1799829.927 9  -1390124.98248  20403326.349    20403327.0084   20403333.1704
      2121.212        1652.892
  -1939702.660 9  -1494386.92349  21579447.005    21579447.2724   21579454.1724
      2293.680        1787.283
  -1423821.633 8  -1092086.95345  24878309.365    24878310.2764   24878316.7744
      4326.707        3371.460
  -1825056.51918  -1408543.84355  25090573.464    25090573.8915   25090582.4645
      3600.016        2805.207
   1043567.404 9    806289.55247  23007978.732    23007979.6674   23007985.6714
     -1540.140       -1200.109
    139897.902 9    108774.84448  21357570.524    21357571.4854   21357578.5364
      -339.402        -264.469
  -3768530.971 9  -2909705.26047  23388658.003    23388658.7004   23388666.9454
      4688.595        3653.451
   1841627.93819   1422863.17457  23428594.374    23428594.6935   23428602.0285
     -2441.330       -1902.335
    322860.090 9    250676.70946  24526354.628    24526354.6294   24526363.0644
      -581.333        -452.987
 97  4 28 15 36 30.0000000  0  9 27  2 26 15 31 19  7 18 10          0.000234800
  -1863276.552 9  -1439563.91248  20391252.889    20391253.5294   20391259.6844
      2107.660        1642.332
  -2008347.117 9  -1547876.10149  21566384.407    21566384.6664   21566391.5284
      2282.104        1778.263
  -1553500.043 8  -1193134.99446  24853632.694    24853633.4084   24853640.0024
      4317.807        3364.525
  -1932962.292 8  -1492626.29745  25070040.609    25070040.3174   25070048.7874
      3593.031        2799.764
   1089984.217 9    842458.47547  23016811.713    23016812.4994   23016818.4944
     -1555.127       -1211.787
    150259.562 9    116848.85148  21359542.343    21359543.2514   21359550.2914
      -352.029        -274.308
  -3909095.062 9  -3019235.67147  23361910.010    23361910.2814   23361918.4724
      4681.709        3648.085
   1914976.874 9   1480018.12147  23442552.265    23442552.5324   23442560.0114
     -2449.002       -1908.313
    340471.949 9    264400.20846  24529706.537    24529706.4304   24529714.6864
      -593.528        -462.489
 97  4 28 15 37  0.0000000  0  9 27  2 26 15 31 19  7 18 10          0.000211402
  -1926294.678 9  -1488668.94948  20379260.821    20379261.5504   20379267.7174
      2093.222        1631.082
  -2076636.414 9  -1601088.53749  21553389.341    21553389.6654   21553396.5124
      2270.292        1769.059
  -1682896.917 9  -1293963.70546  24829009.419    24829010.0404   24829016.9264
      4308.321        3357.133
  -2040643.741 8  -1576533.87345  25049549.205    25049549.2864   25049557.8824
      3585.418        2793.832
   1136861.938 9    878986.52947  23025732.559    23025733.0794   23025739.1094
     -1570.446       -1223.724
    161012.586 9    125227.81848  21361588.675    21361589.5584   21361596.5094
      -365.190        -284.564
  -4049440.002 9  -3128595.32347  23335203.727    23335203.5194   23335211.7444
      4674.177        3642.216
   1988562.535 9   1537357.54447  23456554.697    23456555.4544   23456563.0104
     -2457.081       -1914.609
    358463.095 9    278419.22946  24533130.185    24533130.1064   24533138.0544
      -606.086        -472.275
 97  4 28 15 37 30.0000000  0  9 27  2 26 15 31 19  7 18 10          0.000188036
  -1988894.957 9  -1537448.38848  20367348.394    20367349.1304   20367355.3204
      2079.512        1620.399
  -2144592.938 9  -1654041.66749  21540457.663    21540458.0004   21540464.8554
      2259.710        1760.813
  -1812021.299 9  -1394580.09046  24804437.651    24804438.5594   24804445.5514
      4299.334        3350.130
  -2148103.712 8  -1660268.82645  25029100.300    25029100.2804   25029109.1914
      3577.993        2788.046
   1184191.952 9    915867.03347  23034739.025    23034739.7004   23034745.7314
     -1585.562       -1235.503
    172148.427 9    133905.08248  21363707.759    21363708.7134   21363715.5674
      -377.875        -294.448
  -4189562.291 9  -3237781.49047  23308539.573    23308539.1154   23308547.3534
      4666.579        3636.295
   2062375.349 9   1594873.97547  23470600.673    23470601.5794   23470609.2424
     -2464.306       -1920.238
    376816.295 9    292720.42546  24536622.797    24536622.8244   24536630.8184
      -618.079        -481.620
 97  4 28 15 38  0.0000000  0  9 27  2 26 15 31 19  7 18 10          0.000164713
  -2051077.154 9  -1585902.05048  20355515.520    20355516.2724   20355522.4544
      2064.875        1608.994
  -2212232.953 9  -1706748.16549  21527586.145    21527586.5354   21527593.3964
      2248.405        1752.004
  -1940862.232 9  -1494975.61046  24779920.094    24779920.9154   24779928.0734
      4288.695        3341.840
  -2255331.845 8  -1743823.18745  25008695.032    25008695.2764   25008704.5124
      3569.288        2781.263
   1231983.694 9    953107.31947  23043833.377    23043834.2014   23043840.2414
     -1601.879       -1248.217
    183668.449 9    142881.71248  21365899.975    21365900.9614   21365907.7854
      -391.240        -304.862
  -4329440.167 9  -3346777.19747  23281921.353    23281921.1934   23281929.4454
      4657.419        3629.158
   2136400.753 9   1652556.04947  23484687.182    23484688.1644   23484695.8694
     -2471.889       -1926.147
    395528.048 9    307300.99346  24540183.859    24540183.3984   24540191.7424
      -630.610        -491.384
 97  4 28 15 38 30.0000000  0  9 27  2 26 15 31 19  7 18 10          0.000141425
  -2112879.112 9  -1634059.42348  20343755.002    20343755.7594   20343761.9384
      2053.803        1600.366
  -2279586.870 9  -1759231.72849  21514769.089    21514769.4884   21514776.3704
      2240.440        1745.797
  -2069422.531 9  -1595152.46846  24755455.929    24755456.8024   24755463.9344
      4280.470        3335.431
  -2362347.609 8  -1827212.03946  24988330.401    24988330.8884   24988340.2454
      3563.631        2776.855
   1280218.222 9    990692.63147  23053012.022    23053012.9024   23053018.9964
     -1615.500       -1258.831
    195538.307 9    152130.93948  21368158.847    21368159.7754   21368166.5904
      -401.543        -312.891
  -4469093.963 9  -3455598.30047  23255346.552    23255345.9724   23255354.2354
      4651.302        3624.391
   2210597.807 9   1710371.87047  23498806.414    23498807.4684   23498815.1174
     -2476.013       -1929.361
    414563.239 9    322133.53646  24543805.732    24543805.6104   24543814.1954
      -639.943        -498.657
 97  4 28 15 39  0.0000000  0  9 27  2 26 15 31 19  7 18 10          0.000118202
  -2174288.257 9  -1681910.71148  20332069.222    20332069.9904   20332076.1974
      2041.335        1590.651
  -2346634.518 9  -1811476.64349  21502010.219    21502010.7274   21502017.6004
      2230.425        1737.994
  -2197669.532 8  -1695085.19945  24731051.937    24731052.1924   24731059.4404
      4270.504        3327.665
  -2469123.310 9  -1910413.78846  24968011.803    24968012.3914   24968021.4334
      3555.810        2770.761
   1328942.217 9   1028659.35247  23062284.169    23062284.8274   23062290.9524
     -1631.810       -1271.540
    207786.443 9    161674.93248  21370489.568    21370490.5314   21370497.3794
      -413.928        -322.541
  -4608488.834 9  -3564217.64347  23228820.286    23228819.9674   23228828.2754
      4642.699        3617.688
   2284986.223 9   1768336.82746  23512962.123    23512963.0784   23512970.7674
     -2482.237       -1934.211
    433940.431 9    337232.61046  24547493.021    24547493.0434   24547501.7464
      -650.746        -507.075
 97  4 28 15 39 30.0000000  0  9 27  2 26 15 31 19  7 18 10          0.000095023
  -2235361.138 9  -1729499.97048  20320447.398    20320448.1954   20320454.4244
      2029.772        1581.640
  -2413408.039 9  -1863507.94949  21489303.622    21489304.1324   21489310.9954
      2220.650        1730.377
  -2325648.891 8  -1794809.40045  24706698.334    24706698.2764   24706705.4794
      4260.931        3320.206
  -2575697.237 8  -1993458.35345  24947731.536    24947732.2644   24947741.0534
      3548.708        2765.227
   1378131.665 9   1066988.76447  23071644.742    23071645.2654   23071651.4604
     -1647.690       -1283.914
    220372.411 9    171482.17348  21372884.493    21372885.6094   21372892.4894
      -425.464        -331.530
  -4747652.124 9  -3672656.53547  23202337.785    23202337.9854   23202346.2984
      4634.629        3611.399
   2359529.406 9   1826422.35946  23527146.636    23527148.1554   23527155.9574
     -2487.721       -1938.484
    453613.909 9    352562.54146  24551236.067    24551236.8014   24551245.5884
      -661.052        -515.105
 97  4 28 15 40  0.0000000  0  9 27  2 26 15 31 19  7 18 10          0.000071906
  -2296076.514 9  -1776810.65548  20308893.697    20308894.4694   20308900.7004
      2016.618        1571.391
  -2479859.382 9  -1915288.21449  21476658.271    21476658.8744   21476665.7414
      2208.109        1720.604
  -2453325.490 8  -1894297.68745  24682401.550    24682402.3994   24682409.0494
      4249.552        3311.339
  -2682042.141 9  -2076324.48345  24927495.387    24927495.5224   24927504.2454
      3539.632        2758.155
   1427802.808 9   1105693.51847  23081096.641    23081097.4004   23081103.6434
     -1665.036       -1297.431
    233323.332 9    181573.78648  21375348.973    21375350.1034   21375357.0074
      -439.321        -342.328
  -4886570.500 9  -3780904.58347  23175902.238    23175902.6304   23175910.9254
      4625.422        3604.225
   2434259.551 9   1884653.59446  23541367.716    23541368.7964   23541376.6064
     -2495.634       -1944.650
    473611.517 8    368145.03946  24555041.243    24555042.1944   24555051.1784
      -673.389        -524.719
 97  4 28 15 40 30.0000000  0  9 27  2 26 15 31 19  7 18 10          0.000048857
  -2356432.676 9  -1823841.43348  20297408.263    20297409.0604   20297415.3034
      2006.762        1563.711
  -2545967.275 9  -1966800.85649  21464078.598    21464079.0164   21464085.8714
      2199.022        1713.524
  -2580689.671 8  -1993542.48245  24658163.578    24658165.5574   24658172.7164
      4241.297        3304.907
  -2788147.406 9  -2159003.87446  24907304.243    24907304.4634   24907312.9344
      3533.853        2753.652
   1477962.087 9   1144778.62447  23090641.779    23090642.4994   23090648.7274
     -1679.133       -1308.415
    246669.286 9    191973.21348  21377888.621    21377889.7894   21377896.6194
      -450.556        -351.083
  -5025253.110 9  -3888968.91947  23149511.326    23149512.1694   23149520.4144
      4619.805        3599.848
   2509198.598 9   1943047.60046  23555628.573    23555629.1864   23555637.1484
     -2500.575       -1948.500
    493945.824 9    383989.92546  24558911.115    24558911.7074   24558920.4034
      -682.311        -531.671
 97  4 28 15 41  0.0000000  0  9 27  2 26 15 31 19  7 18 10          0.000025842
  -2416470.422 9  -1870624.09248  20285983.492    20285984.2904   20285990.5324
      1995.220        1554.717
  -2611791.220 9  -2018092.23249  21451552.707    21451553.1654   21451560.0094
      2188.865        1705.609
  -2707800.552 9  -2092589.90846  24633976.182    24633977.1194   24633984.4394
      4232.328        3297.918
  -2894063.379 9  -2241535.76046  24887148.819    24887149.3664   24887157.7254
      3526.837        2748.185
   1528551.225 9   1184198.70147  23100268.807    23100269.4114   23100275.5944
     -1693.766       -1319.818
    260367.682 9    202647.27748  21380495.340    21380496.5124   21380503.2934
      -462.955        -360.744
  -5163755.094 9  -3996892.50447  23123155.642    23123156.1094   23123164.3284
      4613.289        3594.771
   2584301.770 9   2001569.50346  23569920.166    23569920.8604   23569928.7694
     -2506.818       -1953.365
    514558.445 8    400051.66946  24562833.800    24562834.3984   24562843.0654
      -692.260        -539.423
 97  4 28 15 41 30.0000000  0  9 27  2 26 15 31 19  7 18 10          0.000002844
  -2476173.311 9  -1917145.82248  20274622.390    20274623.2254   20274629.4814
      1984.037        1546.003
  -2677341.899 9  -2069170.67749  21439078.879    21439079.3124   21439086.1474
      2180.401        1699.014
  -2834656.680 9  -2191438.81746  24609836.238    24609837.2554   24609844.7794
      4223.929        3291.373
  -2999789.965 9  -2323920.08046  24867029.636    24867030.3014   24867038.6654
      3520.776        2743.462
   1579541.669 9   1223931.48647  23109972.009    23109972.6544   23109978.8714
     -1706.343       -1329.618
    274408.614 9    213588.24748  21383167.288    21383168.4284   21383175.1724
      -474.022        -369.368
  -5302095.787 9  -4104690.41647  23096830.513    23096830.7654   23096838.9554
      4608.551        3591.079
   2659569.400 9   2060219.54346  23584242.967    23584243.7884   23584251.7814
     -2511.952       -1957.365
    535451.191 9    416331.68546  24566809.896    24566810.1364   24566818.6624
      -701.296        -546.464
 97  4 28 15 42  0.0000000  0  9 27  2 26 15 31 19  7 18 10         -0.000020131
  -2535514.228 9  -1963385.49848  20263330.213    20263331.0404   20263337.2794
      1971.726        1536.410
  -2742627.571 9  -2120042.62549  21426655.398    21426655.8594   21426662.7054
      2172.147        1692.582
  -2961239.649 9  -2290074.87246  24585747.633    24585749.4344   24585757.0614
      4214.950        3284.377
  -3105309.717 8  -2406143.22146  24846949.691    24846950.4774   24846958.8494
      3513.847        2738.062
   1630928.136 9   1263972.85747  23119750.516    23119751.2614   23119757.3584
     -1719.569       -1339.924
    288808.311 9    224808.78648  21385907.440    21385908.6094   21385915.3344
      -485.891        -378.616
  -5440271.211 9  -4212359.54147  23070536.581    23070536.8514   23070545.0334
      4602.857        3586.642
   2735017.493 9   2119010.23546  23598600.750    23598601.1644   23598609.1014
     -2517.835       -1961.949
    556633.990 9    432837.74646  24570841.096    24570841.4014   24570849.4664
      -710.839        -553.901
 97  4 28 15 42 29.9990000  0  9 27  2 26 15 31 19  7 18 10         -0.000043074
  -2594443.515 9  -2009304.42448  20252116.413    20252117.1984   20252123.3994
      1957.183        1525.078
  -2807656.195 9  -2170714.27749  21414280.788    21414281.3474   21414288.1754
      2163.441        1685.798
  -3087530.800 9  -2388483.53646  24561715.365    24561717.0394   24561724.7424
      4204.874        3276.525
  -3210594.329 8  -2488183.10446  24826914.567    24826915.3694   24826923.7834
      3505.500        2731.558
   1682724.641 9   1304333.73247  23129607.124    23129607.8584   23129613.8884
     -1733.441       -1350.733
    303575.043 9    236315.32048  21388717.426    21388718.6594   21388725.3734
      -498.231        -388.232
  -5578237.544 9  -4319865.72547  23044282.596    23044282.7624   23044290.8904
      4595.088        3580.588
   2810650.90219   2177945.30356  23612993.046    23612993.8485   23613001.7625
     -2524.343       -1967.021
    578118.685 9    449579.01946  24574929.971    24574929.9514   24574938.1044
      -721.264        -562.024
 97  4 28 15 42 59.9990000  0  9 27  2 26 15 31 19  7 18 10         -0.000065984
  -2652933.726 9  -2054881.21648  20240986.071    20240986.8934   20240993.0714
      1942.978        1514.009
  -2872422.242 9  -2221181.32649  21401956.293    21401956.8254   21401963.6474
      2154.887        1679.133
  -3213519.272 8  -2486656.33946  24537741.164    24537742.1834   24537750.1314
      4195.030        3268.855
  -3315632.275 8  -2570030.81346  24806926.441    24806927.2884   24806935.6804
      3497.613        2725.413
   1734934.582 9   1345016.76347  23139542.037    23139543.1084   23139549.0934
     -1746.729       -1361.088
    318701.110 9    248101.85348  21391595.815    21391597.1044   21391603.8144
      -509.379        -396.919
  -5715960.667 9  -4427182.41947  23018074.507    23018074.9234   23018082.9714
      4587.172        3574.420
   2886479.528 9   2237032.49046  23627422.588    23627423.4874   23627431.5744
     -2530.213       -1971.595
    599916.880 8    466564.54746  24579078.392    24579078.1274   24579086.1974
      -731.357        -569.889
 97  4 28 15 43 29.9990000  0  9 27  2 26 15 31 19  7 18 10         -0.000088883
  -2711033.760 9  -2100153.96848  20229930.042    20229930.8154   20229936.9904
      1930.714        1504.452
  -2936960.809 9  -2271471.11849  21389675.043    21389675.5824   21389682.3914
      2147.831        1673.635
  -3339240.061 8  -2584620.54645  24513815.890    24513818.0784   24513826.2774
      4186.673        3262.343
  -3420461.075 8  -2651715.58146  24786977.538    24786978.9024   24786987.4084
      3491.145        2720.373
   1787520.410 9   1385992.70047  23149548.480    23149549.8804   23149555.8144
     -1758.876       -1370.553
    334129.457 9    260123.93048  21394531.949    21394533.0704   21394539.7754
      -519.017        -404.429
  -5853474.204 9  -4534335.79247  22991906.004    22991906.8994   22991915.0504
      4580.457        3569.187
   2962455.620 9   2296234.59246  23641880.331    23641881.3804   23641889.5534
     -2534.570       -1974.990
    621991.647 8    483765.56446  24583278.840    24583278.2444   24583286.7844
      -740.045        -576.658
 97  4 28 15 43 59.9990000  0  9 27  2 26 15 31 19  7 18 10         -0.000111755
  -2768755.404 9  -2145131.87748  20218945.870    20218946.7324   20218952.9304
      1918.018        1494.559
  -3001257.263 9  -2321572.24149  21377439.901    21377440.3664   21377447.2134
      2139.225        1666.928
  -3464687.709 8  -2682371.90245  24489943.016    24489945.9224   24489954.3704
      4177.193        3254.956
  -3525071.59618  -2733230.11256  24767071.152    24767072.1345   24767080.5165
      3483.558        2714.461
   1840499.910 9   1427275.39847  23159630.284    23159631.4794   23159637.3854
     -1772.423       -1381.109
    349864.841 9    272385.26048  21397526.320    21397527.4754   21397534.1624
      -529.310        -412.449
  -5990749.980 9  -4641303.90247  22965783.166    22965784.0914   22965792.3404
      4571.889        3562.511
   3038576.820 9   2355549.76246  23656365.553    23656366.8014   23656374.9354
     -2539.376       -1978.735
    644348.802 9    501186.69246  24587533.296    24587532.7724   24587541.2274
      -749.790        -584.252
 97  4 28 15 44 29.9990000  0  9 27  2 26 15 31 19  7 18 10         -0.000134592
  -2826093.110 9  -2189810.61748  20208034.787    20208035.7234   20208041.9394
      1905.025        1484.435
  -3065278.444 9  -2371458.87149  21365256.879    21365257.4964   21365264.3864
      2129.151        1659.079
  -3589849.966 9  -2779900.97346  24466126.141    24466128.4414   24466136.7124
      4167.233        3247.195
  -3629448.672 8  -2814562.75256  24747209.742    24747209.9825   24747218.2165
      3475.188        2707.939
   1893887.280 9   1468875.91047  23169789.537    23169790.8124   23169796.6654
     -1786.585       -1392.144
    365909.735 9    284887.77148  21400579.564    21400580.7054   21400587.4014
      -540.137        -420.886
  -6127764.467 9  -4748068.42847  22939710.047    22939711.0204   22939719.2774
      4562.847        3555.465
   3114836.233 9   2414972.62446  23670877.086    23670878.5984   23670886.7314
     -2544.282       -1982.557
    667006.130 9    518841.74846  24591844.961    24591844.5944   24591852.7344
      -760.308        -592.448
 97  4 28 15 44 59.9990000  0  9 27  2 26 15 31 19  7 18 10         -0.000157366
  -2883025.396 9  -2234173.43848  20197200.932    20197201.8474   20197208.0694
      1890.872        1473.407
  -3128968.534 9  -2421087.50349  21353137.078    21353137.6734   21353144.5784
      2117.329        1649.867
  -3714683.684 9  -2877174.02146  24442371.706    24442373.6674   24442381.5454
      4155.484        3238.039
  -3733551.834 8  -2895682.02545  24727398.847    24727399.5184   24727407.8654
      3465.447        2700.348
   1947736.329 9   1510836.17647  23180036.870    23180038.0274   23180043.9924
     -1802.943       -1404.891
    382307.514 9    297665.25448  21403699.854    21403701.0464   21403707.7934
      -552.632        -430.622
  -6264497.224 9  -4854613.41147  22913690.606    22913691.6634   22913699.8934
      4553.289        3548.017
   3191262.182 9   2474525.24846  23685420.174    23685422.1464   23685430.1994
     -2550.459       -1987.371
    690009.611 9    536766.49446  24596222.445    24596222.0544   24596230.0424
      -772.733        -602.130
 97  4 28 15 45 29.9990000  0  9 27  2 26 15 31 19  7 18 10         -0.000180059
  -2939523.552 9  -2278197.97548  20186449.687    20186450.6084   20186456.8304
      1875.674        1461.564
  -3192300.488 9  -2470437.07849  21341085.348    21341085.9874   21341092.9404
      2104.900        1640.182
  -3839156.516 9  -2974165.83747  24418685.649    24418687.3984   24418695.1374
      4142.774        3228.136
  -3837348.783 8  -2976562.71046  24707647.183    24707647.7034   24707655.9594
      3454.508        2691.824
   2002077.054 9   1553179.55947  23190377.574    23190378.8034   23190384.8504
     -1819.638       -1417.900
    399095.628 9    310746.88648  21406894.520    21406895.6994   21406902.4824
      -566.520        -441.444
  -6400939.948 9  -4960932.39447  22887726.209    22887727.4744   22887735.6634
      4542.913        3539.932
   3267880.780 9   2534227.98746  23700000.761    23700002.2714   23700010.3694
     -2557.344       -1992.736
    713385.230 9    554981.18646  24600670.344    24600670.2024   24600678.6324
      -785.402        -612.002
 97  4 28 15 45 59.9990000  0  9 27  2 26 15 31 19  7 18 10         -0.000202685
  -2995583.828 9  -2321881.31248  20175781.798    20175782.7224   20175788.9454
      1861.230        1450.309
  -3255285.749 9  -2519516.49649  21329099.671    21329100.2864   21329107.2634
      2093.850        1631.571
  -3963273.608 9  -3070880.43546  24395067.017    24395068.7574   24395076.4854
      4131.325        3219.214
  -3940842.312 8  -3057206.97645  24687952.340    24687953.3994   24687961.5574
      3444.664        2684.154
   2056886.691 9   1595888.32947  23200807.788    23200808.7694   23200814.9084
     -1834.573       -1429.537
    416273.681 9    324132.37148  21410163.486    21410164.5834   21410171.3754
      -579.141        -451.279
  -6537096.323 9  -5067028.24747  22861816.787    22861817.7954   22861825.9154
      4533.898        3532.908
   3344675.146 9   2594067.70946  23714615.044    23714615.8754   23714623.9554
     -2562.759       -1996.955
    737109.178 8    573467.25246  24605184.518    24605184.8134   24605193.4434
      -796.397        -620.569
 97  4 28 15 46 29.9990000  0  9 27  2 26 15 31 19  7 18 10         -0.000225278
  -3051236.183 9  -2365246.78648  20165191.459    20165192.4514   20165198.6654
      1848.727        1440.566
  -3317975.115 9  -2568365.34249  21317170.205    21317170.9164   21317177.8844
      2085.135        1624.781
  -4087075.841 9  -3167349.66446  24371508.700    24371510.0294   24371517.7084
      4121.765        3211.765
  -4044074.953 8  -3137647.94246  24668307.257    24668308.6484   24668316.8404
      3437.117        2678.273
   2112104.158 9   1638914.88347  23211315.436    23211316.2164   23211322.5384
     -1846.938       -1439.172
    433803.638 9    337792.06248  21413499.098    21413500.4354   21413507.2414
      -589.908        -459.668
  -6673021.421 9  -5172943.88747  22835951.600    22835952.1494   22835960.1834
      4527.331        3527.790
   3421608.166 9   2654015.45646  23729255.579    23729255.8674   23729263.8584
     -2566.637       -1999.977
    761124.630 9    592180.53446  24609754.273    24609754.7774   24609763.6564
      -804.891        -627.188
 97  4 28 15 46 59.9990000  0  9 27  2 26 15 31 19  7 18 10         -0.000247850
  -3106506.882 9  -2408314.86448  20154673.892    20154674.8074   20154681.0344
      1835.192        1430.020
  -3380400.828 9  -2617008.75149  21305290.980    21305291.7084   21305298.7034
      2075.712        1617.438
  -4210570.239 9  -3263578.99646  24348007.956    24348009.7964   24348017.5284
      4110.604        3203.068
  -4147066.387 8  -3217900.98846  24648708.763    24648710.0284   24648718.2054
      3428.240        2671.356
   2167694.864 9   1682232.28447  23221894.197    23221894.8194   23221901.1744
     -1859.846       -1449.231
    451674.205 9    351717.16048  21416899.774    21416901.1044   21416907.9324
      -602.175        -469.227
  -6808726.719 9  -5278688.25247  22810127.168    22810128.2584   22810136.2524
      4518.861        3521.190
   3498678.442 9   2714070.16046  23743921.592    23743922.0074   23743929.9344
     -2572.282       -2004.376
    785394.085 9    611091.78446  24614373.035    24614373.0704   24614382.0244
      -813.801        -634.131
 97  4 28 15 47 29.9990000  0  9 27  2 26 15 31 19  7 18 10         -0.000270365
  -3161346.660 9  -2451047.16448  20144238.234    20144239.1524   20144245.4004
      1822.303        1419.976
  -3442508.163 9  -2665404.07549  21293472.266    21293473.0544   21293480.0644
      2066.275        1610.084
  -4333711.531 9  -3359533.22646  24324575.331    24324576.8854   24324584.4704
      4100.339        3195.069
  -4249761.377 8  -3297922.98846  24629166.160    24629167.8494   24629175.9084
      3419.484        2664.533
   2223690.978 9   1725865.58247  23232550.485    23232550.5404   23232556.8864
     -1871.843       -1458.579
    469948.001 9    365956.46348  21420377.290    21420378.5134   21420385.3284
      -614.632        -478.934
  -6944135.827 9  -5384201.82147  22784360.031    22784360.7794   22784368.7504
      4509.920        3514.223
   3575951.683 9   2774283.01546  23758626.454    23758626.7494   23758634.5694
     -2577.762       -2008.646
    809952.822 9    630228.45646  24619046.436    24619046.5514   24619055.2934
      -821.991        -640.512
 97  4 28 15 47 59.9990000  0  9 27  2 26 15 31 19  7 18 10         -0.000292850
  -3215802.666 9  -2493480.41748  20133875.568    20133876.5034   20133882.7854
      1808.493        1409.215
  -3504333.529 9  -2713579.67849  21281707.270    21281708.0784   21281715.0694
      2055.843        1601.956
  -4456546.965 9  -3455249.16546  24301200.880    24301202.2014   24301209.6384
      4089.117        3186.325
  -4352196.616 9  -3377742.57646  24609673.407    24609674.8914   24609682.9614
      3409.894        2657.060
   2280048.942 9   1769780.83947  23243275.167    23243275.2394   23243281.5134
     -1885.108       -1468.915
    488594.248 9    380485.99048  21423925.619    21423926.8124   21423933.5954
      -628.129        -489.451
  -7079277.495 9  -5489506.98647  22758643.510    22758644.1514   22758652.1164
      4499.911        3506.424
   3653388.832 9   2834623.60446  23773362.454    23773362.6204   23773370.4274
     -2584.194       -2013.658
    834755.264 9    649554.92946  24623765.900    24623766.2544   24623775.0854
      -831.140        -647.642
 97  4 28 15 48 29.9990000  0  9 27  2 26 15 31 19  7 18 10         -0.000315274
  -3269837.683 9  -2535585.62248  20123592.999    20123593.9554   20123600.2574
      1794.021        1397.938
  -3565838.822 9  -2761505.87149  21270003.212    21270004.0214   21270010.9964
      2044.681        1593.258
  -4579039.069 9  -3550697.57546  24277891.314    24277892.7584   24277899.9804
      4077.308        3177.123
  -4454329.396 9  -3457326.53346  24590238.837    24590239.8184   24590247.8224
      3399.267        2648.779
   2336819.029 9   1814017.22947  23254078.427    23254078.2594   23254084.5454
     -1899.476       -1480.111
    507655.105 9    395338.59048  21427552.763    21427554.0004   21427560.7564
      -642.316        -500.506
  -7214104.724 9  -5594567.13747  22732986.792    22732987.2884   22732995.2834
      4488.765        3497.739
   3731031.714 9   2895124.48746  23788137.351    23788137.6484   23788145.4674
     -2591.541       -2019.383
    859843.218 9    669103.98946  24628539.912    24628540.5354   24628549.1564
      -841.172        -655.459
 97  4 28 15 48 59.9990000  0  9 27  2 26 15 31 19  7 18 10         -0.000337628
  -3323429.303 9  -2577345.32848  20113394.806    20113395.7994   20113402.1344
      1778.747        1386.037
  -3627008.197 9  -2809170.31149  21258363.012    21258363.8664   21258370.8264
      2033.327        1584.411
  -4701185.238 9  -3645876.41246  24254647.342    24254649.1074   24254656.2884
      4065.725        3168.097
  -4556140.072 8  -3536659.43145  24570864.591    24570865.6484   24570873.7754
      3388.216        2640.168
   2394026.625 9   1858594.53247  23264964.841    23264964.5754   23264970.8554
     -1914.433       -1491.766
    527146.098 9    410526.35448  21431261.737    21431263.0494   21431269.7714
      -656.868        -511.845
  -7348597.649 9  -5699366.78947  22707393.395    22707394.0294   22707402.0194
      4477.765        3489.168
   3808886.967 9   2955790.87146  23802953.237    23802953.0954   23802960.8194
     -2598.620       -2024.899
    885229.758 9    688885.60646  24633370.869    24633371.2774   24633380.2934
      -851.215        -663.284
 97  4 28 15 49 29.9990000  0  9 27  2 26 15 31 19  7 18 10         -0.000359928
  -3376581.161 9  -2618762.36848  20103280.345    20103281.3464   20103287.6914
      1764.272        1374.757
  -3687854.684 9  -2856583.15549  21246784.374    21246785.1894   21246792.1264
      2022.918        1576.300
  -4823000.350 9  -3740797.23846  24231466.731    24231468.3914   24231475.6894
      4054.686        3159.495
  -4657642.056 9  -3615751.82745  24551550.473    24551550.5204   24551558.4874
      3378.092        2632.279
   2451665.160 9   1903507.64747  23275932.552    23275932.7964   23275939.1414
     -1928.569       -1502.781
    547048.934 9    426035.03448  21435049.147    21435050.4314   21435057.1864
      -670.345        -522.347
  -7482795.672 9  -5803936.65547  22681856.101    22681856.9674   22681864.9034
      4468.350        3481.831
   3886925.053 9   3016599.71246  23817803.053    23817803.2514   23817810.9124
     -2604.337       -2029.354
    910901.752 9    708889.73546  24638256.188    24638256.6854   24638265.4994
      -860.747        -670.712
 97  4 28 15 49 59.9990000  0  9 27  2 26 15 31 19  7 18 10         -0.000382175
  -3429294.841 9  -2659837.96448  20093249.190    20093250.3054   20093256.6054
      1749.778        1363.463
  -3748404.065 9  -2903764.48749  21235262.312    21235263.0154   21235269.9844
      2013.565        1569.012
  -4944473.400 9  -3835451.50946  24208351.150    24208352.7194   24208360.1904
      4043.406        3150.706
  -4758840.164 8  -3694607.52145  24532292.688    24532293.2734   24532301.1294
      3368.291        2624.642
   2509724.453 9   1948748.61347  23286979.950    23286981.0964   23286987.5374
     -1942.297       -1513.478
    567341.020 9    441847.02648  21438910.550    21438911.8794   21438918.6774
      -682.633        -531.922
  -7616715.730 9  -5908289.91647  22656371.856    22656372.8744   22656380.7814
      4459.395        3474.853
   3965125.646 9   3077535.18246  23832684.018    23832684.3334   23832692.0374
     -2609.211       -2033.151
    936856.108 9    729113.79345  24643194.536    24643195.5434   24643204.4714
      -869.641        -677.642
 97  4 28 15 50 29.9990000  0  9 27  2 26 15 31 19  7 18 10         -0.000404401
  -3481542.194 9  -2700550.19548  20083306.986    20083307.9994   20083314.2714
      1734.362        1351.451
  -3808635.596 9  -2950698.14449  21223800.562    21223801.3134   21223808.3014
      2002.748        1560.583
  -5065567.322 9  -3929810.35346  24185307.232    24185309.2644   24185316.8484
      4030.584        3140.715
  -4859705.423 8  -3773203.68945  24513097.967    24513098.9794   24513107.0104
      3357.102        2615.924
   2568227.126 9   1994335.06247  23298112.515    23298113.7324   23298120.2884
     -1956.853       -1524.821
    588039.123 9    457975.39448  21442849.125    21442850.5434   21442857.4344
      -696.188        -542.484
  -7750329.319 9  -6012404.37447  22630946.073    22630947.0794   22630954.9924
      4449.375        3467.045
   4043510.042 9   3138613.87946  23847600.633    23847600.3894   23847608.0984
     -2615.333       -2037.922
    963111.600 9    749572.69845  24648191.091    24648191.8264   24648200.5154
      -879.652        -685.443
 97  4 28 15 50 59.9990000  0  9 27  2 26 15 31 19  7 18 10         -0.000426539
  -3533381.129 9  -2740944.17348  20073442.267    20073443.4024   20073449.6504
      1719.962        1340.230
  -3868591.669 9  -2997417.15849  21212391.253    21212392.0414   21212399.0234
      1992.565        1552.648
  -5186321.626 9  -4023904.56946  24162328.836    24162330.4354   24162338.0194
      4017.800        3130.753
  -4960286.680 8  -3851578.63145  24493957.309    24493959.0904   24493967.0264
      3346.511        2607.671
   2627113.061 9   2040220.17747  23309318.364    23309319.4064   23309325.9904
     -1970.786       -1535.677
    609092.260 9    474380.41648  21446855.487    21446856.8494   21446863.7714
      -709.060        -552.514
  -7883703.876 9  -6116332.57247  22605565.583    22605566.7284   22605574.7084
      4440.418        3460.066
   4122021.263 9   3199791.39346  23862540.695    23862540.4994   23862548.1904
     -2620.559       -2041.994
    989609.559 9    770220.37446  24653233.778    24653234.3074   24653243.1444
      -888.780        -692.556
 97  4 28 15 51 29.9990000  0  9 27  2 26 15 31 19  7 18 10         -0.000448588
  -3584763.958 9  -2780982.74848  20063664.437    20063665.6054   20063671.8284
      1706.965        1330.102
  -3928205.584 9  -3043869.55449  21201047.073    21201047.8944   21201054.8564
      1983.288        1545.419
  -5306649.516 9  -4117666.53246  24139431.165    24139432.9024   24139440.3954
      4005.674        3121.304
  -5060512.366 8  -3929676.59545  24474885.447    24474886.9704   24474894.7664
      3336.650        2599.987
   2686445.708 9   2086453.36947  23320609.181    23320610.0724   23320616.6494
     -1983.210       -1545.358
    630566.056 9    491113.22248  21450942.095    21450943.2044   21450950.1524
      -721.006        -561.823
  -8016763.946 9  -6220015.71447  22580244.927    22580246.2324   22580254.2634
      4431.560        3453.164
   4200724.764 9   3261118.75846  23877516.824    23877517.2754   23877524.9704
     -2624.824       -2045.317
   1016417.597 9    791109.78946  24658334.889    24658335.8404   24658344.5264
      -896.811        -698.814
 97  4 28 15 51 59.9990000  0  9 27  2 26 15 31 19  7 18 10         -0.000470573
  -3635735.303 9  -2820700.67848  20053964.953    20053966.0864   20053972.3304
      1691.841        1318.318
  -3987528.286 9  -3090095.03049  21189758.234    21189759.1634   21189766.1204
      1972.170        1536.756
  -5426607.044 9  -4211139.92346  24116604.039    24116605.7944   24116613.1714
      3992.312        3110.892
  -5160427.276 8  -4007532.22345  24455872.041    24455873.7734   24455881.3274
      3325.065        2590.960
   2746177.209 9   2132997.36147  23331976.093    23331976.6944   23331983.2474
     -1998.121       -1556.977
    652411.302 9    508135.46648  21455099.244    21455100.2454   21455107.1714
      -734.576        -572.397
  -8149530.166 9  -6323469.88847  22554980.181    22554981.5954   22554989.6484
      4420.246        3444.348
   4279570.008 9   3322556.56046  23892520.583    23892521.1054   23892528.7544
     -2630.823       -2049.992
   1043473.299 9    812192.09546  24663483.811    24663484.4734   24663493.1864
      -906.239        -706.160
 97  4 28 15 52 29.9990000  0  9 27  2 26 15 31 19  7 18 10         -0.000492469
  -3686249.027 9  -2860062.02448  20044352.507    20044353.6684   20044359.9274
      1677.096        1306.828
  -4046501.730 9  -3136048.35549  21178536.083    21178536.9284   21178543.8644
      1960.844        1527.930
  -5546160.587 9  -4304298.53446  24093854.169    24093855.5244   24093862.7764
      3979.363        3100.802
  -5259990.365 8  -4085113.79645  24436926.877    24436927.6914   24436935.3034
      3313.811        2582.190
   2806351.598 9   2179886.45747  23343427.275    23343427.5724   23343434.0564
     -2012.091       -1567.863
    674680.938 9    525488.40948  21459337.019    21459338.0634   21459344.9564
      -748.487        -583.237
  -8281954.794 9  -6426657.88547  22529780.475    22529782.0464   22529790.1104
      4409.594        3436.047
   4358604.167 9   3384141.57546  23907560.109    23907560.7754   23907568.4234
     -2636.633       -2054.519
   1070827.457 9    833506.85646  24668688.707    24668689.8044   24668698.6104
      -915.974        -713.746
 97  4 28 15 52 59.9990000  0  9 27  2 26 15 31 19  7 18 10         -0.000514294
  -3736314.077 9  -2899073.75448  20034825.650    20034826.6204   20034832.9064
      1660.787        1294.120
  -4105145.039 9  -3181744.43649  21167376.629    21167377.4974   21167384.4294
      1949.008        1518.707
  -5665332.248 9  -4397159.55446  24071176.321    24071177.9344   24071185.0864
      3965.566        3090.051
  -5359216.918 8  -4162433.10546  24418045.130    24418045.4894   24418053.0704
      3301.424        2572.538
   2866946.158 9   2227102.94947  23354958.254    23354958.3714   23354964.8164
     -2027.190       -1579.629
    697357.709 9    543158.59648  21463652.220    21463653.3554   21463660.2424
      -762.997        -594.543
  -8414051.468 9  -6529590.33147  22504643.833    22504644.8884   22504652.9564
      4396.839        3426.108
   4437809.863 9   3445860.25446  23922632.318    23922633.1864   23922640.7764
     -2643.527       -2059.891
   1098477.207 8    855052.05846  24673950.456    24673951.4744   24673960.1994
      -927.180        -722.478
 97  4 28 15 53 29.9990000  0  9 27  2 26 15 31 19  7 18 10         -0.000536050
  -3785919.947 9  -2937727.68148  20025385.963    20025386.9654   20025393.2544
      1644.559        1281.475
  -4163468.079 9  -3227190.95649  21156278.138    21156278.9994   21156285.9164
      1937.760        1509.943
  -5784129.950 9  -4489729.16746  24048569.340    24048571.4674   24048578.5494
      3952.769        3080.080
  -5458104.786 8  -4239488.53346  24399227.389    24399227.7684   24399235.3544
      3289.599        2563.324
   2927943.515 9   2274633.32247  23366565.558    23366565.7654   23366572.1844
     -2040.816       -1590.246
    720434.041 9    561140.13248  21468043.589    21468044.7284   21468051.5424
      -776.854        -605.341
  -8545786.148 9  -6632240.69547  22479576.017    22479576.6054   22479584.6724
      4383.994        3416.099
   4517182.231 9   3507708.79646  23937736.652    23937737.3274   23937744.8424
     -2649.408       -2064.474
   1126429.792 9    876833.30446  24679269.925    24679270.7984   24679279.6334
      -937.769        -730.729
 97  4 28 15 53 59.9990000  0  9 27  2 26 15 31 19  7 18 10         -0.000557721
  -3835008.181 9  -2975978.25948  20016044.841    20016045.8004   20016052.0744
      1627.038        1267.822
  -4221427.927 9  -3272354.47549  21145248.914    21145249.6384   21145256.5204
      1925.156        1500.121
  -5902516.030 9  -4581978.01447  24026041.611    24026043.3854   24026050.5054
      3938.440        3068.914
  -5556610.453 8  -4316246.15946  24380482.580    24380482.5984   24380490.3374
      3276.381        2553.024
   2989373.490 9   2322500.79847  23378255.387    23378255.6054   23378261.9554
     -2055.468       -1601.663
    743948.319 9    579462.91848  21472518.282    21472519.4094   21472526.1554
      -791.823        -617.005
  -8677116.247 9  -6734575.80047  22454584.400    22454585.2874   22454593.3484
      4370.383        3405.493
   4596758.536 9   3569716.24446  23952880.048    23952880.3284   23952887.8704
     -2656.665       -2070.129
   1154734.897 9    898889.18145  24684656.450    24684657.0054   24684665.9474
      -950.330        -740.517
 97  4 28 15 54 29.9990000  0  9 27  2 26 15 31 19  7 18 10         -0.000579287
  -3883546.728 9  -3013800.50848  20006808.374    20006809.2544   20006815.4824
      1610.467        1254.909
  -4278977.101 9  -3317197.97349  21134297.630    21134298.4174   21134305.2684
      1913.127        1490.748
  -6020433.773 9  -4673861.95647  24003602.926    24003604.4744   24003611.5234
      3924.222        3057.835
  -5654685.156 9  -4392667.96946  24361819.290    24361819.5214   24361827.3044
      3263.452        2542.950
   3051261.757 9   2370725.37647  23390032.504    23390032.6664   23390039.0064
     -2069.105       -1612.290
    767946.830 9    598163.02748  21477085.193    21477086.2414   21477092.9264
      -806.380        -628.348
  -8808016.610 9  -6836576.04447  22429674.506    22429675.7094   22429683.8234
      4357.852        3395.729
   4676581.563 9   3631915.94746  23968070.165    23968070.3184   23968077.7934
     -2663.202       -2075.222
   1183450.783 9    921265.34846  24690121.021    24690121.6094   24690130.5394
      -962.215        -749.778
 97  4 28 15 54 59.9990000  0  9 27  2 26 15 31 19  7 18 10         -0.000600805
  -3931653.844 9  -3051286.57948  19997653.951    19997654.8224   19997661.0234
      1596.104        1243.717
  -4336235.346 9  -3361814.78449  21123401.764    21123402.5304   21123409.3834
      1903.481        1483.232
  -6137982.106 9  -4765458.04347  23981234.390    23981235.8774   23981242.8744
      3911.726        3048.098
  -5752431.979 8  -4468834.31746  24343218.862    24343218.9484   24343226.6414
      3252.424        2534.356
   3113501.962 9   2419224.20347  23401876.430    23401876.6794   23401883.0274
     -2080.939       -1621.511
    792303.877 9    617142.52148  21481720.187    21481721.2744   21481727.9634
      -818.065        -637.453
  -8938595.029 9  -6938325.42547  22404826.089    22404827.4774   22404835.5154
      4346.856        3387.160
   4756529.281 9   3694212.82946  23983283.310    23983283.9464   23983291.3974
     -2667.131       -2078.284
   1212443.521 9    943856.95146  24695638.314    24695638.6354   24695647.7594
      -971.046        -756.659
 97  4 28 15 55 29.9990000  0  9 27  2 26 15 31 19  7 18 10         -0.000622233
  -3979279.371 9  -3088397.37848  19988591.130    19988591.9914   19988598.1944
      1579.983        1231.156
  -4393143.215 9  -3406158.57249  21112572.538    21112573.3434   21112580.1694
      1891.557        1473.941
  -6255098.673 9  -4856717.67546  23958947.919    23958949.3324   23958956.3454
      3897.202        3036.781
  -5849790.654 8  -4544698.19646  24324691.807    24324692.0454   24324699.9424
      3239.334        2524.156
   3176158.342 9   2468047.31147  23413799.574    23413799.7964   23413806.2224
     -2095.161       -1632.593
    817070.681 9    636441.30048  21486433.315    21486434.2704   21486441.0394
      -831.934        -648.260
  -9068801.432 9  -7039784.91747  22380049.157    22380050.0874   22380058.0114
      4335.000        3377.922
   4836643.143 9   3756639.14546  23998528.613    23998529.2554   23998536.7464
     -2672.549       -2082.506
   1241748.019 7    966691.57745  24701215.073    24701215.1374   24701224.3614
      -981.338        -764.679
 97  4 28 15 55 59.9990000  0  9 27  2 26 15 31 19  7 18 10         -0.000643610
  -4026480.210 9  -3125177.26248  19979609.098    19979609.9394   19979616.1674
      1565.960        1220.229
  -4449754.139 9  -3450270.97649  21101799.966    21101800.6634   21101807.4804
      1881.736        1466.288
  -6371831.254 9  -4947678.09146  23936734.755    23936735.7544   23936742.8564
      3884.253        3026.691
  -5946812.572 8  -4620299.72346  24306229.629    24306229.3354   24306237.1894
      3227.888        2515.237
   3239185.609 9   2517159.40246  23425793.141    23425793.4574   23425799.9854
     -2107.574       -1642.265
    842195.752 9    656019.24848  21491214.485    21491215.4204   21491222.2724
      -843.889        -657.576
  -9198724.168 9  -7141023.38047  22355325.941    22355326.6754   22355334.4804
      4325.716        3370.688
   4916858.319 9   3819144.43646  24013794.072    24013793.7744   24013801.2604
     -2676.008       -2085.201
   1271297.903 8    989717.34346  24706837.977    24706838.2404   24706847.4214
      -989.403        -770.963
 97  4 28 15 56 29.9990000  0  9 27  2 26 15 31 19  7 18 10         -0.000664932
  -4073241.315 9  -3161614.48748  19970710.672    19970711.5884   19970717.8424
      1551.400        1208.883
  -4506061.846 9  -3494147.10749  21091084.921    21091085.6524   21091092.4824
      1872.228        1458.879
  -6488170.060 9  -5038331.68546  23914596.102    23914597.1854   23914604.1864
      3871.941        3017.097
  -6043481.867 8  -4695626.44045  24287832.935    24287833.5354   24287841.5174
      3216.735        2506.547
   3302603.368 9   2566575.81046  23437860.842    23437861.4454   23437868.0834
     -2120.298       -1652.180
    867694.126 9    675888.08148  21496066.636    21496067.6144   21496074.5104
      -855.817        -666.870
  -9328355.968 9  -7242035.12947  22330658.117    22330658.5484   22330666.3234
      4316.285        3363.339
   4997181.792 9   3881734.10746  24029079.366    24029078.7914   24029086.4074
     -2678.811       -2087.385
   1301090.874 9   1012932.60146  24712507.695    24712507.8094   24712516.9504
      -996.657        -776.616
 97  4 28 15 56 59.9990000  0  9 27  2 26 15 31 19  7 18 10         -0.000686194
  -4119528.130 9  -3197682.14048  19961902.584    19961903.5124   19961909.7574
      1534.831        1195.972
  -4562057.280 9  -3537779.90749  21080429.376    21080430.0924   21080436.9404
      1861.281        1450.349
  -6604112.265 9  -5128676.23247  23892532.582    23892534.0794   23892541.0244
      3858.171        3006.367
  -6139782.159 8  -4770665.62245  24269507.790    24269508.1624   24269516.0604
      3203.857        2496.512
   3366433.449 9   2616313.49646  23450007.233    23450007.9294   23450014.6594
     -2134.273       -1663.070
    893574.928 9    696054.91048  21500991.385    21500992.5624   21500999.4694
      -869.229        -677.321
  -9457664.439 9  -7342794.94447  22306051.581    22306051.9504   22306059.7184
      4304.932        3354.492
   5077614.946 9   3944409.24646  24044384.976    24044384.7134   24044392.4564
     -2682.963       -2090.620
   1331126.066 9   1036336.60246  24718223.346    24718223.3994   24718232.6224
     -1005.200        -783.273
 97  4 28 15 57 29.9990000  0  9 27  2 26 15 31 19  7 18 10         -0.000707413
  -4165330.605 9  -3233372.39148  19953186.755    19953187.5974   19953193.8534
      1518.900        1183.558
  -4617738.776 9  -3581168.08549  21069833.480    21069834.2544   21069841.1084
      1851.019        1442.352
  -6719670.685 9  -5218721.72747  23870542.818    23870544.0004   23870550.9894
      3845.759        2996.695
  -6235718.565 8  -4845421.25745  24251250.553    24251251.9044   24251259.7124
      3192.023        2487.291
   3430652.648 9   2666354.38246  23462227.291    23462228.3824   23462235.1224
     -2146.757       -1672.798
    919849.853 9    716528.83848  21505991.280    21505992.4704   21505999.3994
      -882.247        -687.465
  -9586661.988 9  -7443312.48547  22281504.009    22281504.4154   22281512.2064
      4294.947        3346.712
   5158157.207 9   4007169.40746  24059711.305    24059711.2754   24059719.1094
     -2686.426       -2093.319
   1361401.139 9   1059927.61446  24723984.273    24723984.6134   24723993.6284
     -1012.937        -789.302
 97  4 28 15 57 59.9990000  0  9 27  2 26 15 31 19  7 18 10         -0.000728605
  -4210670.954 9  -3268702.53848  19944558.648    19944559.6524   19944565.9064
      1503.229        1171.347
  -4673133.533 9  -3624332.82449  21059292.203    21059292.9744   21059299.7944
      1841.259        1434.747
  -6834868.643 9  -5308486.33247  23848621.098    23848622.4694   23848629.5134
      3833.330        2987.010
  -6331316.429 8  -4919913.08145  24233058.862    24233060.0474   24233067.9604
      3180.436        2478.262
   3495221.555 9   2716667.77146  23474513.756    23474515.4394   23474522.1904
     -2158.547       -1681.985
    946497.333 9    737293.08148  21511062.101    21511063.3004   21511070.2874
      -894.882        -697.311
  -9715368.681 9  -7543603.37847  22257011.387    22257012.2334   22257020.0954
      4284.666        3338.701
   5238791.694 9   4070001.40746  24075055.233    24075055.4734   24075063.4764
     -2690.090       -2096.174
   1391889.559 8   1083684.91345  24729785.988    24729786.3694   24729795.2534
     -1020.290        -795.031
 97  4 28 15 58 29.9990000  0  9 27  2 26 15 31 19  7 18 10         -0.000749769
  -4255567.241 9  -3303686.66748  19936015.068    19936016.1874   19936022.4424
      1488.921        1160.198
  -4728253.017 9  -3667283.06849  21048803.247    21048804.0564   21048810.8684
      1832.259        1427.734
  -6949709.870 9  -5397972.95946  23826767.517    23826768.8884   23826775.9924
      3821.692        2977.942
  -6426585.679 8  -4994148.87645  24214929.396    24214930.8324   24214938.8754
      3169.727        2469.917
   3560125.729 9   2767242.41746  23486864.083    23486866.3014   23486873.0414
     -2169.363       -1690.413
    973504.410 9    758337.52248  21516201.511    21516202.5984   21516209.6284
      -906.511        -706.372
  -9843774.239 9  -7643659.62947  22232575.802    22232577.3764   22232585.3334
      4274.663        3330.906
   5319519.818 8   4132906.36346  24090416.761    24090417.4364   24090425.6044
     -2692.842       -2098.318
   1422575.574 8   1107596.10245  24735625.067    24735625.8864   24735634.6564
     -1026.586        -799.937
 97  4 28 15 58 59.9990000  0  8 27  2 26 15 31 19  7 18            -0.000770859
  -4299982.343 9  -3338295.84448  19927563.227    19927564.2744   19927570.5404
      1471.650        1146.740
  -4783036.622 9  -3709971.58749  21038378.213    21038379.0904   21038385.8974
      1819.517        1417.805
  -7064129.034 9  -5487130.74347  23804994.298    23804995.7424   23805002.7234
      3805.715        2965.492
  -6521471.380 8  -5068085.74545  24196873.603    24196874.6464   24196882.7134
      3155.380        2458.738
   3625405.809 9   2818109.97146  23499286.578    23499288.7204   23499295.4434
     -2183.152       -1701.157
   1000919.556 9    779699.94248  21521418.414    21521419.5364   21521426.6184
      -921.692        -718.202
  -9971817.830 9  -7743433.81647  22208210.178    22208211.4564   22208219.4294
      4261.050        3320.299
   5400399.579 8   4195929.49746  24105806.658    24105808.3374   24105816.5024
     -2699.691       -2103.655
 97  4 28 15 59 29.9990000  0  8 27  2 26 15 31 19  7 18            -0.000791899
  -4343976.302 9  -3372576.85748  19919191.442    19919192.5174   19919198.7874
      1459.778        1137.489
  -4837530.898 9  -3752434.65549  21028008.243    21028009.1724   21028015.9744
      1812.025        1411.967
  -7178156.827 9  -5575983.55647  23783295.357    23783297.0454   23783303.9354
      3794.587        2956.821
  -6616016.417 8  -5141757.20745  24178882.359    24178883.3934   24178891.5124
      3145.972        2451.407
   3691007.955 9   2869228.50246  23511770.201    23511772.3864   23511779.0874
     -2192.022       -1708.069
   1028694.721 9    801342.89548  21526703.636    21526704.9764   21526712.0894
      -931.493        -725.839
 -10099545.784 9  -7842962.05847  22183904.305    22183905.6084   22183913.5624
      4252.365        3313.531
   5481396.035 9   4259043.58046  24121219.752    24121221.5804   24121229.6614
     -2701.514       -2105.076
 97  4 28 15 59 59.9990000  0  9 27  2 26 15 31 19  7 18 10         -0.000812890
  -4387573.937 9  -3406549.05048  19910895.052    19910896.1774   19910902.4384
      1444.591        1125.655
  -4891762.638 9  -3794693.14649  21017688.406    21017689.2164   21017696.0414
      1801.469        1403.742
  -7291802.702 9  -5664538.77147  23761668.968    23761671.0124   23761677.8104
      3779.919        2945.391
  -6710233.088 8  -5215172.77946  24160953.953    24160954.7364   24160962.6364
      3133.009        2441.306
   3756910.359 9   2920580.97646  23524311.341    23524313.2254   23524319.9214
     -2203.670       -1717.145
   1056802.614 9    823245.12148  21532052.443    21532053.7864   21532060.8744
      -944.350        -735.857
 -10226961.022 9  -7942246.63847  22159658.112    22159659.4164   22159667.2504
      4239.987        3303.886
   5562487.861 8   4322231.93546  24136650.817    24136652.7704   24136660.9754
     -2706.566       -2109.012
     14820.32619      6761.16752  24753419.604           0.0005          0.0005
     -1052.044        -819.774
 97  4 28 16  0 29.9990000  0  9 27  2 26 15 31 19  7 18 10         -0.000833818
  -4430740.741 9  -3440185.53048  19902680.641    19902681.8164   19902688.0604
      1432.239        1116.030
  -4945713.128 9  -3836732.49349  21007421.869    21007422.7874   21007429.6324
      1794.398        1398.232
  -7405042.198 9  -5752777.30547  23740120.349    23740122.2544   23740129.0164
      3768.694        2936.645
  -6804088.799 8  -5288307.09246  24143094.569    24143094.7554   24143102.5724
      3123.190        2433.655
   3823140.315 9   2972188.70146  23536914.792    23536916.4314   23536923.0274
     -2212.546       -1724.062
   1085267.042 9    845425.15748  21537469.045    21537470.4544   21537477.4634
      -954.148        -743.492
 -10354033.414 9  -8041264.05647  22135477.219    22135478.3894   22135486.1824
      4230.691        3296.642
   5643696.364 8   4385511.25146  24152104.273    24152106.2744   24152114.4034
     -2708.093       -2110.202
     46463.274 9     31417.80656  24759446.049           0.0004   24759452.2285
     -1058.200        -824.571
 97  4 28 16  0 59.9990000  0  9 27  2 26 15 31 19  7 18 10         -0.000854686
  -4473452.766 9  -3473467.63848  19894552.818    19894554.0024   19894560.2454
      1415.622        1103.082
  -4999376.214 9  -3878547.88249  20997210.107    20997211.0384   20997217.9154
      1783.829        1389.997
  -7517876.482 9  -5840700.10047  23718649.416    23718650.7534   23718657.4224
      3754.226        2925.371
  -6897571.815 8  -5361150.96746  24125305.243    24125305.5864   24125313.5024
      3109.557        2423.031
   3889710.082 9   3024061.20046  23549582.838    23549584.3724   23549590.9674
     -2224.998       -1733.765
   1114103.158 9    867894.82148  21542956.507    21542957.8814   21542964.7704
      -967.778        -754.113
 -10480755.968 9  -8140008.87747  22111362.853    22111363.9304   22111371.7334
      4218.038        3286.783
   5725027.118 8   4448885.80746  24167581.544    24167583.0114   24167591.1274
     -2713.375       -2114.318
     78350.830 9     56265.23846  24765512.344    24765512.0005   24765521.3174
     -1066.848        -831.310
 97  4 28 16  1 29.9990000  0  9 27  2 26 15 31 19  7 18 10         -0.000875510
  -4515688.583 9  -3506378.67448  19886515.657    19886516.8194   19886523.0454
      1400.547        1091.335
  -5052761.003 9  -3920146.41749  20987051.318    20987052.2514   20987059.1404
      1775.653        1383.626
  -7630319.856 9  -5928318.29347  23697252.114    23697253.4754   23697260.1734
      3742.496        2916.231
  -6990681.423 8  -5433703.86746  24107586.204    24107587.2814   24107595.4024
      3098.115        2414.116
   3956621.074 9   3076199.60946  23562316.035    23562317.2554   23562323.8054
     -2235.430       -1741.894
   1143319.947 9    890661.11148  21548516.428    21548517.7224   21548524.5764
      -979.564        -763.297
 -10607137.175 9  -8238487.72347  22087313.459    22087314.4104   22087322.1944
      4207.818        3278.819
   5806478.593 8   4512354.41246  24183081.432    24183082.7164   24183091.0874
     -2716.254       -2116.562
    110447.492 8     81275.62055  24771619.355    24771619.8695   24771628.6055
     -1072.381        -835.622
 97  4 28 16  1 59.9990000  0  9 27  2 26 15 31 19  7 18 10         -0.000896300
  -4557446.889 9  -3538917.62448  19878569.389    19878570.5084   19878576.7004
      1383.666        1078.181
  -5105884.222 9  -3961541.12949  20976942.386    20976943.2734   20976950.1304
      1766.156        1376.225
  -7742393.619 9  -6015648.48247  23675925.016    23675926.4654   23675933.1794
      3729.412        2906.035
  -7083426.653 8  -5505972.83646  24089937.118    24089938.6524   24089946.4604
      3085.117        2403.987
   4023876.941 9   3128606.73246  23575114.574    23575115.6514   23575122.2924
     -2248.079       -1751.750
   1172914.489 9    913721.76048  21554147.974    21554149.4054   21554156.2934
      -993.080        -773.829
 -10733191.060 9  -8336711.50447  22063326.118    22063327.1244   22063334.9404
      4196.146        3269.724
   5888034.952 8   4575904.76646  24198601.332    24198602.4914   24198610.7464
     -2720.420       -2119.808
    142718.508 7    106421.81245  24777758.823    24777760.4744   24777769.2364
     -1078.745        -840.581
 97  4 28 16  2 29.9990000  0  9 27  2 26 15 31 19  7 18 10         -0.000917044
  -4598713.931 9  -3571073.76748  19870716.673    19870717.6724   19870723.8914
      1366.784        1065.026
  -5158734.408 9  -4002723.08449  20966885.365    20966886.2434   20966893.0694
      1756.254        1368.510
  -7854085.925 9  -6102681.43747  23654670.505    23654672.0474   23654678.7664
      3715.944        2895.541
  -7175791.980 8  -5577945.78146  24072360.446    24072362.0634   24072369.8844
      3071.699        2393.532
   4091506.825 9   3181305.32546  23587983.805    23587985.2294   23587991.8464
     -2261.262       -1762.022
   1202907.382 9    937092.81348  21559855.426    21559856.9034   21559863.8424
     -1007.238        -784.861
 -10858896.927 9  -8434664.10347  22039404.922    22039406.0414   22039413.9044
      4183.464        3259.842
   5969706.928 8   4639545.21245  24214143.482    24214144.0374   24214152.3884
     -2725.032       -2123.401
    175161.367 8    131701.97545  24783931.648    24783934.4354   24783943.3784
     -1085.055        -845.497
 97  4 28 16  2 59.9990000  0  9 27  2 26 15 31 19  7 18 10         -0.000937733
  -4639485.291 9  -3602843.66948  19862958.132    19862959.1644   19862965.3724
      1351.675        1053.253
  -5211288.686 9  -4043674.46849  20956884.565    20956885.4874   20956892.2954
      1747.800        1361.922
  -7965381.156 9  -6189404.96147  23633491.731    23633493.1434   23633499.9254
      3703.976        2886.215
  -7267764.500 8  -5649612.62846  24054859.052    24054860.3044   24054867.9564
      3060.032        2384.441
   4159513.882 9   3234297.76346  23600925.253    23600926.4834   23600933.3214
     -2272.075       -1770.448
   1233315.083 9    960787.09348  21565641.811    21565643.3434   21565650.2714
     -1019.354        -794.302
 -10984238.229 9  -8532332.62947  22015553.311    22015554.3274   22015562.2214
      4172.911        3251.619
   6051495.699 9   4703276.65846  24229707.320    24229708.0424   24229716.3164
     -2727.146       -2125.049
    207782.340 9    157120.83245  24790140.243    24790142.0334   24790150.9424
     -1089.551        -849.001
 97  4 28 16  3 29.9990000  0  9 27  2 26 15 31 19  7 18 10         -0.000958386
  -4679795.348 9  -3634254.11748  19855287.402    19855288.4244   19855294.6414
      1336.051        1041.079
  -5263580.304 9  -4084421.17949  20946933.859    20946934.7124   20946941.5534
      1738.531        1354.699
  -8076295.784 9  -6275831.91247  23612385.309    23612386.7864   23612393.5944
      3690.560        2875.761
  -7359367.613 8  -5720991.64646  24037427.534    24037428.8424   24037436.4114
      3047.174        2374.421
   4227851.354 9   3287547.72646  23613929.674    23613930.7524   23613937.5224
     -2283.432       -1779.298
   1264088.725 9    984766.52248  21571497.786    21571499.4264   21571506.2874
     -1031.741        -803.954
 -11109240.175 9  -8629736.72547  21991766.098    21991767.2254   21991775.1284
      4160.749        3242.142
   6133351.593 8   4767060.39745  24245284.275    24245284.7974   24245293.0754
     -2729.445       -2126.840
    240566.872 9    182667.27946  24796379.585    24796380.7734   24796389.4074
     -1095.969        -854.002
 97  4 28 16  3 59.9990000  0  9 27  2 26 15 31 19  7 18 10         -0.000978977
  -4719631.498 9  -3665295.27748  19847706.882    19847707.8844   19847714.0814
      1320.239        1028.758
  -5315577.067 9  -4124938.13149  20937039.257    20937040.0664   20937046.9264
      1728.247        1346.686
  -8186789.542 9  -6361930.91847  23591359.272    23591360.5124   23591367.3534
      3676.123        2864.511
  -7450573.797 8  -5792061.34846  24020071.715    24020072.7974   24020080.3194
      3033.715        2363.934
   4296537.639 9   3341069.42746  23626999.849    23627001.3294   23627008.2074
     -2294.918       -1788.248
   1295235.647 9   1009036.82748  21577425.091    21577426.5054   21577433.3934
     -1044.207        -813.668
 -11233853.395 9  -8726837.91247  21968053.155    21968054.1284   21968061.9884
      4147.351        3231.702
   6215280.003 8   4830900.65245  24260875.281    24260875.2044   24260883.4864
     -2732.047       -2128.868
    273565.747 9    208380.65546  24802659.579    24802660.3084   24802669.1484
     -1103.515        -859.882
 97  4 28 16  4 29.9990000  0  9 27  2 26 15 31 19  7 18 10         -0.000999510
  -4759013.526 9  -3695982.57648  19840212.766    19840213.7544   19840219.9594
      1304.550        1016.532
  -5367269.387 9  -4165217.86049  20927202.513    20927203.3534   20927210.1944
      1717.332        1338.181
  -8296856.317 9  -6447697.20047  23570413.791    23570415.4544   23570422.3304
      3661.007        2852.733
  -7541388.399 8  -5862825.96446  24002790.598    24002791.3304   24002799.0184
      3019.982        2353.233
   4365534.677 9   3394833.33346  23640129.294    23640131.2394   23640138.0094
     -2305.498       -1796.492
   1326738.761 9   1033584.67648  21583419.919    21583421.3674   21583428.3004
     -1056.567        -823.299
 -11358081.318 9  -8823638.87047  21944413.298    21944414.3974   21944422.1714
      4134.109        3221.384
   6297272.848 8   4894791.15845  24276478.336    24276478.2214   24276486.1794
     -2734.656       -2130.901
    306783.866 9    234264.85646  24808980.857    24808981.4664   24808990.5244
     -1111.627        -866.203
 97  4 28 16  4 59.9990000  0  9 27  2 26 15 31 19  7 18 10         -0.001019983
  -4797930.371 9  -3726307.40248  19832807.262    19832808.1794   19832814.3514
      1290.269        1005.404
  -5418645.577 9  -4205251.25249  20917426.002    20917426.8004   20917433.6304
      1708.234        1331.091
  -8406475.609 9  -6533114.80247  23549553.779    23549555.6124   23549562.4844
      3647.361        2842.099
  -7631802.145 8  -5933278.21146  23985585.584    23985586.2094   23985593.8174
      3007.979        2343.880
   4434836.554 9   3448834.73746  23653317.989    23653318.9534   23653325.6844
     -2314.263       -1803.322
   1358594.333 9   1058407.17248  21589481.886    21589483.3044   21589490.2584
     -1066.742        -831.228
 -11481940.127 9  -8920152.21547  21920843.536    21920844.8464   21920852.5414
      4123.474        3213.097
   6379330.099 8   4958731.75845  24292093.740    24292093.3934   24292101.3964
     -2735.501       -2131.559
    340234.634 8    260330.38046  24815346.358    24815347.0224   24815356.0354
     -1117.884        -871.078
 97  4 28 16  5 29.9980000  0  9 27  2 26 15 31 19  7 18 10         -0.001040397
  -4836388.179 9  -3756274.53148  19825489.002    19825489.9594   19825496.0894
      1275.384         993.806
  -5469713.735 9  -4245044.61748  20907708.076    20907708.8864   20907715.6854
      1698.127        1323.216
  -8515648.573 9  -6618184.62347  23528779.567    23528780.6274   23528787.5904
      3632.716        2830.688
  -7721818.297 9  -6003420.64946  23968455.610    23968456.6014   23968464.4774
      2994.927        2333.709
   4504434.265 9   3503066.68946  23666562.163    23666563.0484   23666569.8364
     -2324.156       -1811.031
   1390793.740 9   1083497.58948  21595609.062    21595610.6654   21595617.6544
     -1078.437        -840.341
 -11605430.437 9  -9016378.40447  21897344.086    21897345.4224   21897353.0554
      4111.287        3203.600
   6461450.857 8   5022721.87745  24307720.703    24307720.4344   24307728.4374
     -2737.788       -2133.341
    373899.642 8    286562.71745  24821752.615    24821753.0644   24821762.1914
     -1124.798        -876.466
 97  4 28 16  5 59.9980000  0  9 27  2 26 15 31 19  7 18 10         -0.001060760
  -4874410.539 9  -3785902.34848  19818253.520    19818254.5744   19818260.7074
      1260.812         982.451
  -5520489.490 9  -4284610.13548  20898045.760    20898046.5544   20898053.3784
      1688.342        1315.591
  -8624392.920 9  -6702920.42947  23508085.700    23508087.2104   23508094.1754
      3618.302        2819.456
  -7811453.315 8  -6073266.09546  23951398.082    23951399.4054   23951407.4784
      2982.060        2323.683
   4574322.627 9   3557525.09446  23679861.167    23679862.2404   23679869.0604
     -2333.708       -1818.474
   1423346.907 9   1108863.67148  21601803.823    21601805.3134   21601812.3454
     -1090.607        -849.824
 -11728579.425 9  -9112338.62547  21873910.326    21873910.9524   21873918.5694
      4100.154        3194.925
   6543646.702 8   5086770.61245  24323361.499    24323362.0624   24323369.6074
     -2740.512       -2135.464
    407761.031 8    312948.22046  24828196.172    24828196.8814   24828206.0294
     -1131.227        -881.476
 97  4 28 16  6 29.9980000  0  9 27  2 26 15 31 19  7 18 10         -0.001081069
  -4911994.137 9  -3815188.27448  19811101.678    19811102.6654   19811108.7784
      1245.880         970.816
  -5570982.022 9  -4323954.96348  20888437.326    20888438.1104   20888444.9374
      1679.204        1308.471
  -8732703.789 9  -6787318.50247  23487475.054    23487476.3504   23487483.2284
      3603.761        2808.125
  -7900697.094 9  -6142806.66046  23934415.024    23934416.8584   23934424.8484
      2968.735        2313.300
   4644496.539 9   3612206.02646  23693214.932    23693216.0414   23693222.8604
     -2343.437       -1826.055
   1456274.550 9   1134521.55148  21608069.592    21608071.2424   21608078.3014
     -1103.286        -859.703
 -11851405.188 9  -9208046.98147  21850537.199    21850537.9124   21850545.5364
      4089.335        3186.495
   6625918.838 8   5150878.66445  24339016.909    24339017.9704   24339025.7774
     -2742.838       -2137.276
    441811.245 8    339480.63445  24834675.431    24834676.1854   24834685.6304
     -1137.480        -886.348
 97  4 28 16  6 59.9980000  0  9 27  2 26 15 31 19  7 18 10         -0.001101334
  -4949133.291 9  -3844127.88248  19804034.348    19804035.3284   19804041.4564
      1231.596         959.685
  -5621210.745 9  -4363094.22448  20878879.134    20878879.8844   20878886.7374
      1670.917        1302.013
  -8840594.925 9  -6871389.49447  23466943.602    23466945.4284   23466952.2084
      3590.581        2797.855
  -7989550.155 9  -6212042.80846  23917506.866    23917508.5924   23917516.6054
      2956.240        2303.564
   4714958.857 9   3667111.65946  23706623.398    23706624.5384   23706631.4364
     -2352.488       -1833.108
   1489582.337 9   1160475.63548  21614407.628    21614409.5654   21614416.6064
     -1115.678        -869.359
 -11973903.326 9  -9303500.05747  21827226.303    21827227.2384   21827234.8944
      4078.497        3178.050
   6708244.009 8   5215028.04746  24354683.167    24354684.0344   24354691.7474
     -2744.019       -2138.197
    476035.149 8    366148.75145  24841188.348    24841188.7844   24841197.7834
     -1142.457        -890.226
 97  4 28 16  7 29.9980000  0  9 27  2 26 15 31 19  7 18 10         -0.001121563
  -4985850.649 9  -3872738.81148  19797047.131    19797048.2414   19797054.4074
      1215.833         947.402
  -5671198.582 9  -4402045.78148  20869366.718    20869367.5594   20869374.3674
      1661.426        1294.618
  -8948099.264 9  -6955159.07747  23446486.646    23446488.0614   23446494.8594
      3576.056        2786.537
  -8078031.226 9  -6280989.07246  23900669.522    23900671.2504   23900679.0214
      2942.162        2292.594
   4785682.876 9   3722221.29146  23720081.888    23720083.0024   23720089.8644
     -2362.831       -1841.167
   1523259.222 9   1186717.33548  21620816.641    21620818.1444   21620825.1394
     -1129.585        -880.196
 -12096069.716 9  -9398694.62148  21803978.765    21803979.7234   21803987.4024
      4065.821        3168.172
   6790601.765 8   5279202.91845  24370355.777    24370356.5544   24370363.8414
     -2746.650       -2140.247
    510404.058 9    392929.62945  24847729.089    24847729.0574   24847738.4534
     -1149.032        -895.350
 97  4 28 16  7 59.9980000  0  9 27  2 26 15 31 19  7 18 10         -0.001141761
  -5022115.463 9  -3900997.11648  19790146.171    19790147.2694   19790153.4694
      1202.482         936.999
  -5720934.517 9  -4440801.05248  20859902.370    20859903.1494   20859909.9654
      1654.945        1289.568
  -9055202.568 9  -7038616.17847  23426105.418    23426106.9064   23426113.7624
      3564.888        2777.835
  -8166121.445 9  -6349630.77746  23883906.171    23883908.0974   23883916.1494
      2931.259        2284.098
   4856685.133 9   3777547.61746  23733593.576    23733594.3614   23733601.2474
     -2369.958       -1846.721
   1557316.635 9   1213255.54948  21627297.754    21627299.1214   21627306.1024
     -1140.091        -888.383
 -12217896.828 9  -9493624.81048  21780795.881    21780796.7974   21780804.4904
      4056.534        3160.936
   6872996.617 8   5343406.63845  24386034.419    24386035.7164   24386043.1804
     -2745.512       -2139.360
    544936.219 9    419837.88145  24854300.594    24854300.5234   24854309.2654
     -1152.302        -897.898
 97  4 28 16  8 29.9980000  0  9 27  2 26 15 31 19  7 18 10         -0.001161943
  -5057924.458 9  -3928900.23448  19783331.979    19783333.0594   19783339.2514
      1186.100         924.234
  -5770427.887 9  -4479367.31048  20850484.159    20850484.8984   20850491.7114
      1645.866        1282.493
  -9161923.598 9  -7121775.40247  23405796.813    23405798.5424   23405805.3764
      3551.215        2767.180
  -8253837.018 9  -6417980.56446  23867214.652    23867216.3374   23867224.6244
      2917.754        2273.575
   4927946.491 9   3833075.97946  23747154.499    23747155.0594   23747161.7714
     -2379.625       -1854.253
   1591725.610 9   1240067.71148  21633845.662    21633846.9374   21633853.9624
     -1152.444        -898.008
 -12339386.305 9  -9588291.90248  21757677.021    21757678.1184   21757685.7834
      4044.026        3151.189
   6955393.550 8   5407611.94546  24401713.449    24401715.5454   24401722.8914
     -2746.515       -2140.142
    579606.975 9    446854.17046  24860898.143    24860898.2004   24860906.8154
     -1157.677        -902.086
 97  4 28 16  8 59.9980000  0  9 27  2 26 15 31 19  7 18 10         -0.001182093
  -5093243.075 9  -3956421.24848  19776611.092    19776612.1844   19776618.3454
      1171.502         912.859
  -5819649.950 9  -4517722.16148  20841117.481    20841118.2164   20841125.0594
      1638.548        1276.791
  -9268233.614 9  -7204614.36947  23385566.187    23385568.4414   23385575.1714
      3539.044        2757.697
  -8341154.017 9  -6486019.76446  23850599.184    23850600.5094   23850608.7954
      2906.273        2264.628
   4999501.020 9   3888832.68646  23760770.871    23760771.4994   23760778.2294
     -2387.720       -1860.561
   1626497.705 9   1267162.81948  21640462.419    21640463.8244   21640470.9444
     -1162.625        -905.942
 -12460506.011 9  -9682670.87248  21734628.870    21734629.8424   21734637.4574
      4033.734        3143.169
   7037829.821 8   5471847.94245  24417400.138    24417402.9284   24417410.0104
     -2746.450       -2140.091
    614430.988 9    473989.68646  24867524.828    24867524.9224   24867533.8134
     -1160.962        -904.646
 97  4 28 16  9 29.9980000  0  9 27  2 26 15 31 19  7 18 10         -0.001202193
  -5128106.921 9  -3983587.88948  19769976.688    19769977.8244   19769983.9934
      1154.884         899.910
  -5868635.197 9  -4555892.47348  20831795.911    20831796.6204   20831803.5004
      1629.224        1269.525
  -9374152.411 9  -7287148.49347  23365411.307    23365412.8334   23365419.4454
      3524.211        2746.138
  -8428103.570 9  -6553772.64346  23834053.686    23834054.6394   23834062.7004
      2892.389        2253.810
   5071324.632 9   3944799.09646  23774438.523    23774439.1134   23774445.8504
     -2398.533       -1868.987
   1661584.213 9   1294502.92848  21647139.327    21647140.5974   21647147.7294
     -1174.398        -915.115
 -12581309.248 9  -9776803.23648  21711640.689    21711641.7514   21711649.3634
      4021.937        3133.977
   7120289.081 8   5536101.86145  24433092.222    24433094.5724   24433101.3014
     -2748.811       -2141.931
    649381.127 9    501223.58646  24874175.684    24874175.8554   24874184.5634
     -1166.854        -909.237
 97  4 28 16  9 59.9980000  0  9 27  2 26 15 31 19  7 18 10         -0.001222307
  -5162532.350 9  -4010412.90148  19763425.727    19763426.8624   19763433.0334
      1140.229         888.490
  -5917392.677 9  -4593885.30448  20822517.533    20822518.3674   20822525.2614
      1621.156        1263.238
  -9479676.863 9  -7369375.31647  23345330.329    23345332.1374   23345338.7854
      3510.614        2735.543
  -8514688.858 9  -6621241.65346  23817576.695    23817577.9434   23817585.9834
      2879.829        2244.023
   5143416.741 9   4000974.74846  23788156.832    23788157.6394   23788164.5604
     -2407.614       -1876.063
   1696973.571 9   1322079.02348  21653873.343    21653875.0204   21653882.1074
     -1184.959        -923.345
 -12701808.114 9  -9870698.43048  21688710.412    21688711.5354   21688719.1624
      4011.096        3125.529
   7202766.891 8   5600370.19245  24448787.623    24448789.7084   24448796.4644
     -2749.825       -2142.721
    684448.139 9    528548.48046  24880848.429    24880848.9694   24880857.6694
     -1170.990        -912.460
 97  4 28 16 10 29.9980000  0  9 27  2 26 15 31 19  7 18 10         -0.001242379
  -5196523.714 9  -4036899.68748  19756957.397    19756958.5454   19756964.7294
      1125.810         877.255
  -5965905.405 9  -4631687.42948  20813285.825    20813286.7214   20813293.5964
      1613.027        1256.904
  -9584779.191 9  -7451273.22947  23325329.836    23325331.7574   23325338.4004
      3496.233        2724.337
  -8600883.134 9  -6688405.98846  23801174.699    23801175.7224   23801183.6714
      2866.481        2233.622
   5215789.134 9   4057368.78746  23801928.366    23801929.6784   23801936.6964
     -2417.279       -1883.594
   1732683.033 9   1349904.53848  21660668.791    21660670.4074   21660677.3714
     -1195.776        -931.774
 -12821970.387 9  -9964331.35148  21665844.058    21665845.3504   21665853.0464
      3999.895        3116.801
   7285291.555 8   5664675.08645  24464491.694    24464493.7444   24464500.4734
     -2751.897       -2144.335
    719647.797 8    555976.73446  24887546.945    24887547.3994   24887556.0524
     -1175.597        -916.050
 97  4 28 16 10 59.9980000  0  9 27  2 26 15 31 19  7 18 10         -0.001262401
  -5230074.242 9  -4063042.95948  19750572.940    19750574.0704   19750580.3104
      1110.483         865.311
  -6014160.956 9  -4669289.15348  20804103.079    20804103.9984   20804110.8624
      1603.581        1249.544
  -9689439.070 9  -7532826.36647  23305413.352    23305415.5704   23305422.2164
      3480.811        2712.320
  -8686665.020 9  -6755248.99146  23784851.467    23784851.9424   23784859.9794
      2851.936        2222.288
   5288455.689 9   4113991.99046  23815755.199    23815757.6034   23815764.8014
     -2427.441       -1891.512
   1768731.083 9   1377993.89848  21667528.361    21667530.1984   21667537.1184
     -1207.706        -941.070
 -12941796.549 9 -10057702.36048  21643041.573    21643043.1224   21643050.8944
      3988.000        3107.532
   7367881.344 8   5729030.69845  24480207.920    24480210.3334   24480216.8924
     -2754.352       -2146.248
    754996.916 8    583521.43645  24894273.675    24894274.0924   24894282.7804
     -1181.142        -920.370
 97  4 28 16 11 29.9980000  0  9 27  2 26 15 31 19  7 18 10         -0.001282384
  -5263209.234 9  -4088862.44148  19744267.540    19744268.7164   19744274.9434
      1098.410         855.904
  -6062174.088 9  -4706701.98148  20794966.431    20794967.4034   20794974.2554
      1597.382        1244.713
  -9793687.080 9  -7614058.56147  23285575.751    23285577.8004   23285584.5164
      3469.096        2703.192
  -8772051.930 9  -6821784.22846  23768603.136    23768603.4174   23768611.4394
      2840.566        2213.428
   5361370.061 9   4170808.42246  23829630.899    23829632.9954   23829639.9214
     -2433.482       -1896.220
   1805094.359 9   1406328.89447  21674447.910    21674449.8354   21674456.7934
     -1216.575        -947.981
 -13061295.049 9 -10150818.04948  21620301.999    21620303.3094   21620311.0984
      3978.401        3100.053
   7450492.899 8   5793403.24145  24495928.598    24495930.8794   24495937.5364
     -2753.125       -2145.292
    790463.863 8    611157.95646  24901022.325    24901023.1814   24901031.8534
     -1183.065        -921.869
 97  4 28 16 11 59.9980000  0  8 27  2 26 15 31 19  7 18            -0.001302348
  -5295934.142 9  -4114362.37448  19738040.185    19738041.3934   19738047.6054
      1083.861         844.567
  -6109962.857 9  -4743939.98048  20785872.416    20785873.4784   20785880.3384
      1589.269        1238.391
  -9897549.354 9  -7694990.17947  23265811.210    23265813.4864   23265820.2634
      3455.815        2692.843
  -8857059.660 9  -6888024.00446  23752426.283    23752426.9754   23752435.0084
      2827.380        2203.153
   5434487.498 8   4227782.96346  23843545.649    23843546.7164   23843553.7264
     -2440.233       -1901.480
   1841768.503 9   1434906.11747  21681426.773    21681428.6274   21681435.6274
     -1227.366        -956.389
 -13180456.073 9 -10243670.77748  21597626.234    21597627.7154   21597635.5054
      3966.459        3090.747
   7533105.666 8   5857776.74845  24511650.275    24511651.5934   24511658.4464
     -2753.518       -2145.598
 97  4 28 16 12 29.9980000  0  8 27  2 26 15 31 19  7 18            -0.001322303
  -5328211.508 9  -4139513.57748  19731897.961    19731899.2454   19731905.4424
      1067.946         832.166
  -6157515.747 9  -4780994.17948  20776823.319    20776824.4244   20776831.2864
      1580.854        1231.834
 -10001018.420 9  -7775615.41847  23246121.914    23246124.0504   23246130.8054
      3442.286        2682.301
  -8941678.203 9  -6953960.48046  23736323.329    23736324.6674   23736332.5614
      2813.867        2192.624
   5507798.871 9   4284908.68546  23857496.063    23857497.3894   23857504.2834
     -2447.206       -1906.914
   1878753.866 9   1463725.85647  21688464.589    21688466.7104   21688473.7454
     -1238.284        -964.897
 -13299269.797 9 -10336252.87448  21575016.692    21575018.2454   21575026.0334
      3954.557        3081.473
   7615717.043 8   5922149.23245  24527370.274    24527372.0854   24527378.7394
     -2753.718       -2145.754
 97  4 28 16 12 59.9980000  0  8 27  2 26 15 31 19  7 18            -0.001342236
  -5359978.282 9  -4164266.91448  19725852.919    19725854.2304   19725860.4204
      1051.567         819.403
  -6204778.128 9  -4817822.00748  20767829.550    20767830.6934   20767837.5454
      1571.834        1224.806
 -10104058.522 9  -7855906.39647  23226513.912    23226516.1944   23226522.9214
      3428.815        2671.804
  -9025865.594 9  -7019561.01446  23720302.665    23720304.2234   23720312.1074
      2800.232        2181.999
   5581343.634 8   4342216.32745  23871491.411    23871492.5244   23871499.4514
     -2454.145       -1912.321
   1916100.404 9   1492827.01747  21695571.273    21695573.6384   21695580.6154
     -1249.609        -973.721
 -13417692.161 9 -10428530.02348  21552481.517    21552483.2004   21552490.9834
      3941.788        3071.523
   7698352.075 8   5986540.12045  24543095.612    24543096.8534   24543103.8164
     -2753.616       -2145.675
 97  4 28 16 13 29.9980000  0  8 27  2 26 15 31 19  7 18            -0.001362175
  -5391286.117 9  -4188662.63148  19719895.149    19719896.5184   19719902.7354
      1035.142         806.604
  -6251814.378 9  -4854473.62848  20758878.773    20758879.9784   20758886.8494
      1563.341        1218.188
 -10206728.253 9  -7935908.76047  23206976.692    23206978.7834   23206985.5024
      3415.079        2661.101
  -9109674.652 9  -7084866.71546  23704355.194    23704355.8814   23704363.7804
      2786.419        2171.236
   5655064.178 8   4399660.79346  23885520.191    23885520.9194   23885528.1544
     -2461.343       -1917.930
   1953754.688 9   1522167.99147  21702736.743    21702739.0474   21702746.0324
     -1261.293        -982.826
 -13535754.439 9 -10520526.58748  21530014.629    21530016.6504   21530024.4414
      3928.545        3061.204
   7780962.215 8   6050911.52645  24558816.664    24558816.7304   24558824.0514
     -2754.195       -2146.126
 97  4 28 16 13 59.9980000  0  8 27  2 26 15 31 19  7 18            -0.001382068
  -5422080.326 9  -4212658.12248  19714035.242    19714036.6084   19714042.8294
      1019.362         794.308
  -6298565.872 9  -4890903.36548  20749982.216    20749983.4924   20749990.3304
      1554.968        1211.663
 -10308947.830 9  -8015560.36047  23187524.921    23187526.9684   23187533.7864
      3401.055        2650.173
  -9193041.239 9  -7149827.67346  23688491.940    23688491.6774   23688499.6314
      2772.776        2160.605
   5729040.832 8   4457304.96346  23899597.591    23899598.3344   23899605.4914
     -2469.089       -1923.965
   1991785.873 9   1551802.65047  21709974.012    21709976.1674   21709983.1714
     -1272.439        -991.511
 -13653397.889 9 -10612196.78848  21507627.926    21507629.7824   21507637.6094
      3915.934        3051.377
   7863608.730 8   6115311.30446  24574543.630    24574543.8794   24574551.1454
     -2753.816       -2145.831
 97  4 28 16 14 29.9980000  0  8 27  2 26 15 31 19  7 18            -0.001401921
  -5452388.572 9  -4236274.94148  19708267.744    19708269.1514   19708275.3704
      1003.185         781.702
  -6345048.137 9  -4927123.30648  20741136.993    20741138.1894   20741145.0524
      1545.852        1204.560
 -10410723.412 9  -8094865.98147  23168157.699    23168159.6924   23168166.5424
      3385.873        2638.343
  -9275977.225 9  -7214453.07146  23672708.592    23672709.3744   23672717.3344
      2758.070        2149.145
   5803280.923 8   4515154.32745  23913724.580    23913725.5244   23913732.9964
     -2478.510       -1931.306
   2030170.864 9   1581713.01247  21717278.518    21717280.6264   21717287.6354
     -1284.739       -1001.095
 -13770645.593 9 -10703558.61348  21485316.288    21485318.2594   21485326.0454
      3902.475        3040.890
   7946254.834 8   6179710.85546  24590270.314    24590270.9274   24590278.2064
     -2754.027       -2145.995
 97  4 28 16 14 59.9980000  0  8 27  2 26 15 31 19  7 18            -0.001421721
  -5482236.607 9  -4259533.15948  19702587.901    19702589.2864   19702595.5114
       987.800         769.714
  -6391280.713 9  -4963148.69048  20732339.074    20732340.4094   20732347.2714
      1537.733        1198.234
 -10512058.122 9  -8173828.09047  23148874.297    23148876.3604   23148883.1234
      3370.827        2626.618
  -9358487.741 9  -7278746.94646  23657007.174    23657008.1394   23657016.1554
      2743.768        2138.001
   5877782.343 8   4573207.31546  23927901.322    23927902.7604   23927910.1664
     -2487.148       -1938.037
   2068909.404 9   1611898.85747  21724650.615    21724652.3054   21724659.3524
     -1296.538       -1010.289
 -13887502.729 9 -10794616.11048  21463079.315    21463081.1354   21463088.8124
      3889.321        3030.640
   8028894.029 8   6244104.98145  24605995.986    24605996.5614   24606004.1104
     -2754.212       -2146.139
 97  4 28 16 15 29.9980000  0  8 27  2 26 15 31 19  7 18            -0.001441473
  -5511629.161 9  -4282436.44748  19696994.619    19696996.0584   19697002.3214
       972.818         758.040
  -6437289.287 9  -4998999.52348  20723583.980    20723585.2924   20723592.1234
      1530.314        1192.452
 -10612944.473 9  -8252440.81347  23129676.219    23129678.2954   23129685.1024
      3355.834        2614.936
  -9440578.802 9  -7342713.97846  23641385.951    23641386.7444   23641394.8374
      2729.919        2127.210
   5952534.089 8   4631455.44146  23942126.326    23942127.7544   23942135.0834
     -2495.258       -1944.357
   2107989.109 9   1642350.54747  21732086.860    21732088.8974   21732095.9794
     -1307.852       -1019.105
 -14003984.164 9 -10885380.83948  21440913.660    21440915.5294   21440923.1294
      3877.148        3021.154
   8111531.353 8   6308497.62245  24621720.996    24621721.9224   24621729.5984
     -2753.870       -2145.873
 97  4 28 16 15 59.9980000  0  8 27  2 26 15 31 19  7 18            -0.001461193
  -5540595.247 9  -4305007.42948  19691482.565    19691484.0064   19691490.2734
       957.182         745.856
  -6483089.410 9  -5034687.93548  20714868.566    20714869.8344   20714876.6394
      1522.186        1186.119
 -10713399.232 9  -8330717.23247  23110560.078    23110562.3854   23110569.1594
      3340.374        2602.889
  -9522273.379 9  -7406372.06546  23625839.865    23625840.7984   23625848.7994
      2715.407        2115.901
   6027505.092 8   4689874.35345  23956392.952    23956394.2284   23956401.5604
     -2503.451       -1950.741
   2147384.457 9   1673048.18747  21739583.751    21739585.6414   21739592.7014
     -1319.373       -1028.083
 -14120126.753 9 -10975881.54148  21418812.791    21418814.3834   21418821.9234
      3864.750        3011.494
   8194129.292 8   6372859.54846  24637438.860    24637439.7114   24637447.5544
     -2753.697       -2145.738
 97  4 28 16 16 29.9980000  0  8 27  2 26 15 31 19  7 18            -0.001480893
  -5569112.919 9  -4327228.99548  19686055.973    19686057.2524   19686063.5304
       942.607         734.499
  -6528672.827 9  -5070207.48148  20706194.416    20706195.6314   20706202.3694
      1515.366        1180.805
 -10813425.170 9  -8408659.49647  23091525.913    23091528.0244   23091534.8804
      3326.647        2592.192
  -9603557.919 9  -7469710.64446  23610371.870    23610372.7964   23610380.8294
      2702.165        2105.583
   6102682.783 8   4748454.30245  23970697.721    23970699.9984   23970707.3644
     -2509.584       -1955.520
   2187101.482 9   1703996.48847  21747141.892    21747143.6604   21747150.6644
     -1329.766       -1036.181
 -14235928.472 9 -11066116.62248  21396776.670    21396778.0014   21396785.5934
      3853.982        3003.103
   8276706.603 8   6437205.44446  24653152.068    24653153.8834   24653161.5584
     -2752.806       -2145.044
 97  4 28 16 16 59.9980000  0  8 27  2 26 15 31 19  7 18            -0.001500570
  -5597158.271 9  -4349082.52548  19680719.033    19680720.4084   19680726.6824
       927.528         722.749
  -6574018.174 9  -5105541.51448  20697565.555    20697566.7114   20697573.4304
      1508.061        1175.112
 -10913007.204 9  -8486255.87547  23072575.987    23072578.1754   23072585.0484
      3312.777        2581.385
  -9684414.552 9  -7532715.75946  23594984.887    23594986.1714   23594994.3394
      2688.781        2095.154
   6178063.666 8   4807192.62545  23985042.574    23985044.4134   23985051.9184
     -2515.346       -1960.010
   2227158.631 9   1735209.81647  21754764.528    21754766.3644   21754773.3274
     -1340.086       -1044.223
 -14351374.818 9 -11156074.80348  21374807.836    21374809.2464   21374816.9004
      3842.989        2994.537
   8359288.838 8   6501555.17346  24668866.607    24668868.6894   24668876.5104
     -2752.114       -2144.504
 97  4 28 16 17 29.9980000  0  8 27  2 26 15 31 19  7 18            -0.001520226
  -5624720.147 9  -4370559.31848  19675474.327    19675475.6004   19675481.8534
       910.577         709.541
  -6619104.673 9  -5140673.84648  20688986.026    20688987.0714   20688993.7584
      1498.105        1167.355
 -11012143.891 9  -8563505.22447  23053711.105    23053713.1024   23053720.0304
      3296.914        2569.024
  -9764834.715 9  -7595380.78046  23579681.235    23579682.6494   23579690.9154
      2672.974        2082.837
   6253656.474 8   4866096.07545  23999427.492    23999429.0994   23999436.9044
     -2523.719       -1966.534
   2267556.927 9   1766688.97747  21762452.473    21762453.9294   21762460.8864
     -1352.601       -1053.975
 -14466459.149 9 -11245750.88548  21352908.195    21352909.4134   21352917.1154
      3829.578        2984.087
   8441873.830 8   6565907.02945  24684582.272    24684584.0954   24684591.9344
     -2752.841       -2145.071
 97  4 28 16 17 59.9980000  0  8 27  2 26 15 31 19  7 18            -0.001539860
  -5651809.206 9  -4391667.68248  19670319.481    19670320.7594   19670326.9874
       896.373         698.472
  -6663927.326 9  -5175600.58848  20680456.483    20680457.6134   20680464.2934
      1491.364        1162.102
 -11110848.841 9  -8640418.14247  23034928.194    23034930.2274   23034937.1574
      3284.555        2559.394
  -9844814.391 9  -7657702.56046  23564462.465    23564463.0134   23564471.3064
      2660.090        2072.797
   6329460.070 8   4925163.75645  24013851.873    24013854.0384   24013861.8664
     -2528.814       -1970.504
   2308292.919 9   1798431.27547  21770204.526    21770205.7064   21770212.7464
     -1361.865       -1061.194
 -14581169.138 9 -11335135.27548  21331079.603    21331080.8484   21331088.5824
      3818.792        2975.682
   8524443.286 8   6630246.80145  24700294.774    24700296.5474   24700304.3524
     -2750.697       -2143.400
 97  4 28 16 18 29.9980000  0  8 27  2 26 15 31 19  7 18            -0.001559492
  -5678447.736 9  -4412424.98248  19665250.396    19665251.6404   19665257.8674
       880.151         685.832
  -6708533.616 9  -5210358.73048  20671968.266    20671969.3174   20671976.0174
      1482.995        1155.581
 -11209157.485 9  -8717022.26247  23016220.811    23016222.7404   23016229.6494
      3269.916        2547.986
  -9924383.577 9  -7719704.47046  23549320.953    23549321.5244   23549329.7054
      2645.148        2061.154
   6405444.804 8   4984372.56246  24028312.508    24028313.5594   24028321.4174
     -2536.355       -1976.380
   2349322.468 9   1830402.32647  21778011.835    21778013.3104   21778020.4864
     -1372.859       -1069.760
 -14695528.281 9 -11424246.28048  21309317.937    21309319.0494   21309326.7524
      3805.649        2965.441
   8606969.575 8   6694552.96446  24715999.610    24716001.0004   24716008.7914
     -2750.435       -2143.196
 97  4 28 16 18 59.9980000  0  8 27  2 26 15 31 19  7 18            -0.001579115
  -5704632.244 9  -4432828.49748  19660267.654    19660268.9044   19660275.1334
       864.890         673.940
  -6752922.139 9  -5244947.18748  20663521.394    20663522.4584   20663529.1614
      1475.556        1149.784
 -11307061.297 9  -8793310.92247  22997590.370    22997592.2554   22997599.2014
      3256.340        2537.408
 -10003533.019 9  -7781379.31446  23534259.007    23534259.8714   23534268.0624
      2630.829        2049.997
   6481624.437 8   5043733.28546  24042808.999    24042810.1304   24042817.8374
     -2543.232       -1981.739
   2390646.748 9   1862603.03547  21785875.295    21785877.0524   21785884.2744
     -1382.803       -1077.509
 -14809518.133 9 -11513069.51948  21287626.540    21287627.5144   21287635.2144
      3793.038        2955.614
   8689453.910 8   6758826.43546  24731696.138    24731697.3104   24731705.2204
     -2749.271       -2142.289
 97  4 28 16 19 29.9980000  0  8 27  2 26 15 31 19  7 18            -0.001598731
  -5730383.497 9  -4452894.41248  19655367.318    19655368.5884   19655374.8534
       850.372         662.628
  -6797111.088 9  -5279380.12948  20655112.423    20655113.5354   20655120.2354
      1468.930        1144.621
 -11404567.509 9  -8869289.78147  22979035.485    22979037.4524   22979044.3554
      3242.537        2526.652
 -10082265.495 9  -7842729.25746  23519276.489    23519277.3994   23519285.7774
      2616.524        2038.850
   6557997.310 8   5103244.63545  24057341.694    24057343.3964   24057350.9864
     -2549.750       -1986.818
   2432256.257 9   1895025.99947  21793793.263    21793795.1284   21793802.3124
     -1392.611       -1085.151
 -14923142.845 9 -11601608.24148  21266004.348    21266005.4284   21266013.0864
      3780.451        2945.806
   8771886.844 8   6823059.83246  24747382.519    24747383.7564   24747391.8464
     -2747.732       -2141.090
 97  4 28 16 19 59.9980000  0  8 27  2 26 15 31 19  7 18            -0.001618319
  -5755689.696 9  -4472613.53648  19650551.717    19650553.0304   19650559.2684
       836.109         651.514
  -6841097.986 9  -5313655.63248  20646741.999    20646743.1094   20646749.7744
      1462.943        1139.956
 -11501646.435 9  -8944935.68547  22960562.277    22960563.9464   22960570.7934
      3228.742        2515.903
 -10160563.700 9  -7903740.79346  23504376.752    23504377.5254   23504386.1624
      2602.801        2028.157
   6634561.074 8   5162904.65345  24071911.040    24071913.0664   24071920.7104
     -2555.188       -1991.056
   2474168.833 9   1927685.11247  21801769.080    21801770.9244   21801778.0024
     -1402.063       -1092.517
 -15036383.554 9 -11689847.72748  21244455.277    21244456.3724   21244464.0064
      3768.399        2936.415
   8854290.154 8   6887270.11746  24763063.177    24763064.6044   24763072.6734
     -2746.363       -2140.023
 97  4 28 16 20 29.9980000  0  8 27  2 26 15 31 19  7 18            -0.001637866
  -5780538.323 9  -4491976.11248  19645823.252    19645824.5584   19645830.7414
       821.383         640.039
  -6884865.986 9  -5347760.55948  20638413.360    20638414.3454   20638420.9874
      1455.677        1134.294
 -11598270.937 9  -9020227.48647  22942175.069    22942176.8754   22942183.6324
      3213.715        2504.194
 -10238411.574 9  -7964401.46846  23489562.600    23489563.6324   23489572.1564
      2587.958        2016.591
   6711327.532 8   5222722.60546  24086518.107    24086521.2984   24086529.0094
     -2561.692       -1996.124
   2516402.525 9   1960594.44447  21809805.841    21809807.8184   21809814.7974
     -1412.747       -1100.842
 -15149231.375 9 -11777781.07648  21222981.036    21222982.1004   21222989.7274
      3755.622        2926.459
   8936687.079 8   6951475.42245  24778742.517    24778744.2364   24778752.2294
     -2745.781       -2139.570
 97  4 28 16 20 59.9980000  0  8 27  2 26 15 31 19  7 18            -0.001657381
  -5804981.435 9  -4511022.70148  19641171.956    19641173.2434   19641179.3914
       807.473         629.200
  -6928439.525 9  -5381713.96048  20630121.650    20630122.6184   20630129.2344
      1448.729        1128.880
 -11694465.760 9  -9095184.48747  22923869.914    22923871.6254   22923878.3124
      3198.638        2492.445
 -10315846.060 9  -8024740.00746  23474827.755    23474828.4974   23474836.7704
      2573.761        2005.528
   6788259.806 9   5282669.82146  24101158.092    24101161.1344   24101168.7774
     -2567.610       -2000.735
   2558932.877 9   1993734.95247  21817899.005    21817901.1254   21817908.0814
     -1423.181       -1108.972
 -15261722.846 9 -11865436.74448  21201574.562    21201575.6844   21201583.3094
      3743.280        2916.841
   9019033.429 9   7015641.41545  24794412.637    24794414.4004   24794422.1734
     -2744.396       -2138.490
 97  4 28 16 21 29.9980000  0  8 27  2 26 15 31 19  7 18            -0.001676856
  -5829005.853 9  -4529743.03548  19636600.384    19636601.5564   19636607.7084
       794.576         619.150
  -6971817.729 9  -5415515.16148  20621867.126    20621868.0404   20621874.6504
      1443.711        1124.970
 -11790203.539 9  -9169785.33247  22905651.398    22905653.2914   22905659.9794
      3184.495        2481.425
 -10392863.647 9  -8084753.67246  23460172.120    23460172.6244   23460180.6574
      2561.373        1995.875
   6865357.207 8   5342745.68246  24115830.063    24115832.2794   24115839.9924
     -2571.557       -2003.811
   2601768.950 9   2027113.68347  21826050.349    21826052.5804   21826059.5944
     -1431.852       -1115.729
 -15373852.132 9 -11952810.19748  21180236.864    21180238.2204   21180245.8184
      3732.577        2908.502
   9101326.077 9   7079765.56446  24810072.115    24810074.3254   24810082.0964
     -2741.094       -2135.917
 97  4 28 16 21 59.9980000  0  8 27  2 26 15 31 19  7 18            -0.001696296
  -5852599.856 9  -4548127.97948  19632110.588    19632111.7764   19632117.9364
       779.841         607.668
  -7014998.139 9  -5449162.22748  20613650.182    20613651.0944   20613657.7084
      1436.640        1119.460
 -11885478.721 9  -9244025.71947  22887520.947    22887522.9924   22887529.6614
      3168.915        2469.284
 -10469469.308 9  -8144446.38846  23445594.904    23445595.2264   23445602.8014
      2547.322        1984.926
   6942613.699 8   5402945.49046  24130531.677    24130533.6854   24130541.3674
     -2577.497       -2008.439
   2644898.862 9   2060721.38047  21834257.790    21834259.9044   21834267.0294
     -1441.883       -1123.545
 -15485617.100 9 -12039899.76048  21158968.953    21158970.0564   21158977.5954
      3720.081        2898.764
   9183546.740 9   7143833.60746  24825719.144    24825720.5134   24825728.2434
     -2738.711       -2134.061
 97  4 28 16 22 29.9980000  0  7 27  2 26 15 31 19  7               -0.001715704
  -5875733.834 9  -4566154.46148  19627708.499    19627709.5574   19627715.7194
       762.660         594.281
  -7057955.650 9  -5482635.61148  20605475.629    20605476.5634   20605483.1754
      1427.533        1112.363
 -11980280.878 9  -9317897.50147  22869480.837    22869482.7464   22869489.4064
      3151.584        2455.780
 -10545643.624 9  -8203802.96746  23431099.174    23431099.6504   23431107.2624
      2531.231        1972.388
   7020058.891 9   5463292.37946  24145269.489    24145271.2054   24145278.5724
     -2585.419       -2014.612
   2688339.412 9   2094571.12647  21842524.582    21842526.4414   21842533.5644
     -1453.861       -1132.879
 -15596996.083 9 -12126688.55548  21137774.109    21137775.3524   21137782.8474
      3705.437        2887.354
 97  4 28 16 22 59.9980000  0  7 27  2 26 15 31 19  7               -0.001735098
  -5898415.803 9  -4583828.73048  19623392.272    19623393.3494   19623399.4824
       747.205         582.238
  -7100720.220 9  -5515958.65148  20597337.757    20597338.7514   20597345.3674
      1421.210        1107.436
 -12074633.720 9  -9391419.18047  22851526.266    22851528.0404   22851534.6144
      3136.621        2444.120
 -10621409.771 9  -8262841.51946  23416681.495    23416681.8014   23416689.4654
      2517.567        1961.741
   7097671.286 9   5523769.57946  24160039.851    24160040.5294   24160047.8164
     -2590.935       -2018.910
   2732064.684 9   2128642.73747  21850845.255    21850847.1494   21850854.2594
     -1463.240       -1140.187
 -15708006.587 9 -12213190.22448  21116649.369    21116650.8134   21116658.2514
      3693.184        2877.806
 97  4 28 16 23 29.9980000  0  7 27  2 26 15 31 19  7               -0.001754479
  -5920587.486 9  -4601105.37348  19619173.123    19619174.2064   19619180.3794
       732.317         570.637
  -7143253.279 9  -5549101.29448  20589244.063    20589244.9984   20589251.5784
      1415.539        1103.017
 -12168515.226 9  -9464573.59347  22833661.222    22833663.0454   22833669.5264
      3123.484        2433.884
 -10696721.392 9  -8321525.89646  23402349.809    23402350.3984   23402358.2004
      2504.368        1951.456
   7175480.537 9   5584400.12846  24174847.199    24174847.2244   24174854.6324
     -2595.299       -2022.311
   2776102.018 9   2162957.51047  21859225.734    21859227.2484   21859234.3154
     -1471.382       -1146.531
 -15818617.283 9 -12299380.35548  21095600.905    21095602.2824   21095609.7594
      3681.982        2869.077
 97  4 28 16 23 59.9980000  0  7 27  2 26 15 31 19  7               -0.001773859
  -5942274.279 9  -4618004.17548  19615046.224    19615047.3494   19615053.5214
       714.144         556.476
  -7185561.146 9  -5582068.46248  20581193.149    20581194.0454   20581200.6074
      1405.763        1095.400
 -12261961.741 9  -9537389.04347  22815878.840    22815880.7154   22815887.2384
      3107.068        2421.092
 -10771585.443 9  -8379861.50946  23388103.715    23388104.1994   23388112.0104
      2487.199        1938.077
   7253471.655 8   5645172.35346  24189688.410    24189688.3114   24189695.9854
     -2603.343       -2028.579
   2820438.966 9   2197505.74947  21867662.908    21867664.3594   21867671.3364
     -1483.816       -1156.220
 -15928842.402 9 -12385270.03648  21074625.889    21074627.1354   21074634.6164
      3667.159        2857.526
 97  4 28 16 24 29.9980000  0  7 27  2 26 15 31 19  7               -0.001793200
  -5963413.300 9  -4634476.14548  19611023.710    19611024.7614   19611030.8974
       694.679         541.308
  -7227576.750 9  -5614807.89448  20573197.881    20573198.7394   20573205.2974
      1394.754        1086.821
 -12354917.284 9  -9609821.92047  22798190.120    22798191.8024   22798198.3454
      3089.369        2407.301
 -10845929.109 9  -8437791.61546  23373956.858    23373957.2074   23373964.8384
      2468.472        1923.485
   7331692.985 9   5706123.98246  24204573.206    24204573.3724   24204581.0284
     -2612.031       -2035.349
   2865153.777 9   2232348.42747  21876171.631    21876173.2734   21876180.2694
     -1497.607       -1166.966
 -16038624.427 9 -12470814.44648  21053735.257    21053736.3474   21053743.8334
      3651.046        2844.971
 97  4 28 16 24 59.9980000  0  7 27  2 26 15 31 19  7               -0.001812542
  -5984080.214 9  -4650580.23648  19607091.026    19607091.9954   19607098.1454
       681.584         531.104
  -7269371.021 9  -5647374.85648  20565244.634    20565245.5724   20565252.1054
      1389.798        1082.959
 -12447449.639 9  -9681925.02647  22780581.756    22780583.4464   22780589.9804
      3077.826        2398.306
 -10919813.218 9  -8495363.64846  23359897.018    23359897.4794   23359905.0844
      2455.507        1913.382
   7410062.888 9   5767191.45946  24219486.714    24219486.7764   24219494.2404
     -2614.196       -2037.036
   2910176.350 9   2267430.92147  21884739.190    21884740.7174   21884747.8094
     -1505.359       -1173.007
 -16148035.562 9 -12556069.85348  21032914.994    21032916.1454   21032923.5664
      3641.376        2837.436
 97  4 28 16 25 29.9980000  0  7 27  2 26 15 31 19  7               -0.001831851
  -6004232.809 9  -4666283.55948  19603256.091    19603257.0934   19603263.2514
       662.744         516.424
  -7310882.825 9  -5679721.71348  20557345.214    20557346.1584   20557352.6924
      1378.467        1074.130
 -12539508.228 9  -9753658.96647  22763063.417    22763065.2374   22763071.8114
      3059.948        2384.375
 -10993180.293 9  -8552532.78246  23345935.402    23345936.1284   23345943.7904
      2436.381        1898.479
   7488618.821 9   5828403.90846  24234435.275    24234435.5434   24234442.9124
     -2622.241       -2043.305
   2955553.214 9   2302789.48847  21893373.935    21893375.6174   21893382.7924
     -1519.221       -1183.809
 -16257021.086 9 -12640993.61348  21012175.666    21012176.8724   21012184.2734
      3624.933        2824.623
 97  4 28 16 25 59.9980000  0  7 27  2 26 15 31 19  7               -0.001851164
  -6023970.715 9  -4681663.75548  19599500.056    19599501.1084   19599507.2664
       652.742         508.630
  -7352201.753 9  -5711918.28248  20549482.434    20549483.4224   20549489.9904
      1375.906        1072.135
 -12631166.430 9  -9825080.91347  22745621.759    22745623.2864   22745629.8454
      3050.316        2376.870
 -11066119.945 9  -8609368.86346  23332055.704    23332056.1364   23332063.9024
      2426.088        1890.458
   7567269.022 9   5889689.75846  24249401.666    24249402.2374   24249409.5724
     -2621.231       -2042.518
   3001204.483 9   2338361.87647  21902061.128    21902062.8434   21902070.0034
     -1524.233       -1187.714
 -16365657.341 9 -12725645.22048  20991502.706    20991504.0494   20991511.4324
      3617.269        2818.651
 97  4 28 16 26 29.9980000  0  7 27  2 26 15 31 19  7               -0.001870465
  -6043248.202 9  -4696685.17348  19595831.653    19595832.7154   19595838.8864
       633.348         493.518
  -7393289.085 9  -5743934.37848  20541663.829    20541664.7404   20541671.3434
      1364.195        1063.009
 -12722376.729 9  -9896153.85447  22728265.233    22728266.5964   22728273.1204
      3031.157        2361.941
 -11138597.961 9  -8665845.24646  23318263.256    23318264.0194   23318271.7394
      2406.656        1875.316
   7646043.962 9   5951072.79546  24264391.990    24264392.6254   24264399.9424
     -2629.740       -2049.148
   3047151.684 9   2374164.85547  21910805.014    21910806.3844   21910813.5184
     -1537.945       -1198.399
 -16473901.923 9 -12809991.61748  20970904.364    20970905.7704   20970913.1894
      3599.858        2805.084
 97  4 28 16 26 59.9980000  0  7 27  2 26 15 31 19  7               -0.001889740
  -6062051.559 9  -4711337.14748  19592253.431    19592254.5484   19592260.7684
       619.987         483.107
  -7434135.480 9  -5775762.74048  20533890.964    20533891.9114   20533898.5184
      1358.491        1058.564
 -12813111.240 9  -9966856.06947  22710999.102    22711000.3974   22711006.8514
      3017.389        2351.212
 -11210601.936 9  -8721952.23146  23304561.321    23304562.0394   23304569.8304
      2393.226        1864.851
   7724972.147 9   6012575.20046  24279411.624    24279412.1324   24279419.5564
     -2632.571       -2051.354
   3093399.279 9   2410201.90847  21919605.514    21919607.0634   21919614.2044
     -1545.633       -1204.389
 -16581734.821 9 -12894017.23348  20950384.499    20950385.8454   20950393.2674
      3588.599        2796.311
 97  4 28 16 27 29.9980000  0  7 27  2 26 15 31 19  7               -0.001909014
  -6080435.242 9  -4725662.10448  19588755.176    19588756.2834   19588762.4594
       606.740         472.784
  -7474787.924 9  -5807439.97048  20526154.991    20526155.9764   20526162.6024
      1352.980        1054.270
 -12903403.945 9 -10037214.00847  22693816.766    22693818.2134   22693824.7014
      3003.354        2340.276
 -11282182.562 9  -8777729.33446  23290940.126    23290940.7304   23290948.5864
      2379.964        1854.517
   7804006.423 9   6074160.31546  24294451.645    24294451.8544   24294459.2584
     -2635.343       -2053.514
   3139901.214 9   2446437.14647  21928454.330    21928456.1154   21928463.2574
     -1553.394       -1210.437
 -16689207.006 9 -12977761.76948  20929933.289    20929934.5604   20929941.9664
      3577.432        2787.609
 97  4 28 16 27 59.9980000  0  7 27  2 26 15 31 19  7               -0.001928303
  -6098424.040 9  -4739679.35748  19585332.051    19585333.1544   19585339.2984
       593.128         462.178
  -7515284.394 9  -5838995.65748  20518448.657    20518449.7304   20518456.3654
      1347.472        1049.978
 -12993278.875 9 -10107246.40747  22676713.941    22676715.5374   22676722.0104
      2989.028        2329.113
 -11353368.765 9  -8833199.10346  23277393.881    23277394.5044   23277402.1894
      2366.400        1843.948
   7883122.280 9   6135809.03646  24309506.761    24309507.0774   24309514.5164
     -2638.411       -2055.905
   3186635.938 9   2482853.78547  21937347.454    21937349.4254   21937356.6014
     -1561.440       -1216.706
 -16796356.681 9 -13061255.00148  20909543.359    20909544.6264   20909552.0604
      3566.537        2779.120
 97  4 28 16 28 29.9980000  0  7 27  2 26 15 31 19  7               -0.001947557
  -6115928.685 9  -4753319.34448  19582000.888    19582002.0994   19582008.2734
       576.042         448.864
  -7555553.371 9  -5870374.07848  20510785.621    20510786.7894   20510793.4524
      1339.383        1043.675
 -13082650.622 9 -10176886.70147  22659706.944    22659708.6054   22659715.1604
      2971.272        2315.277
 -11424075.154 9  -8888294.97546  23263939.019    23263939.4464   23263947.3074
      2349.398        1830.700
   7962406.452 9   6197588.91746  24324593.449    24324594.3854   24324601.7544
     -2645.176       -2061.176
   3233680.319 9   2519511.70747  21946299.879    21946301.6474   21946308.8424
     -1572.846       -1225.594
 -16903107.412 9 -13144437.36448  20889229.390    20889230.6124   20889238.0814
      3552.273        2768.005
 97  4 28 16 28 59.9980000  0  7 27  2 26 15 31 19  7               -0.001966839
  -6133052.148 9  -4766662.30548  19578742.291    19578743.6064   19578749.7894
       562.765         438.518
  -7595717.332 9  -5901670.66048  20503142.619    20503143.8374   20503150.5204
      1335.430        1040.595
 -13171625.925 9 -10246218.07947  22642775.547    22642777.1474   22642783.7274
      2957.840        2304.810
 -11494399.016 9  -8943092.77446  23250556.870    23250557.2454   23250565.1734
      2336.100        1820.338
   8041758.135 9   6259421.41446  24339693.492    24339694.5814   24339701.8404
     -2647.681       -2063.128
   3280941.093 9   2556338.25747  21955293.404    21955295.0664   21955302.2414
     -1580.650       -1231.675
 -17009565.278 9 -13227391.52148  20868970.939    20868972.3274   20868979.8034
      3542.108        2760.084
 97  4 28 16 29 29.9980000  0  7 27  2 26 15 31 19  7               -0.001986099
  -6149685.901 9  -4779623.68148  19575576.891    19575578.2964   19575584.5204
       549.433         428.130
  -7635681.595 9  -5932811.64748  20495537.608    20495538.8724   20495545.5804
      1332.252        1038.118
 -13260125.663 9 -10315178.91047  22625934.234    22625936.2074   22625942.7584
      2945.532        2295.220
 -11564239.398 9  -8997513.84046  23237266.322    23237266.9764   23237274.9744
      2323.241        1810.318
   8121270.080 9   6321378.78846  24354824.599    24354825.0884   24354832.5404
     -2649.778       -2064.762
   3328519.476 9   2593412.27447  21964347.352    21964349.0144   21964356.1324
     -1587.816       -1237.259
 -17115624.350 9 -13310034.93848  20848788.556    20848789.9344   20848797.3724
      3531.718        2751.988
 97  4 28 16 29 59.9980000  0  7 27  2 26 15 31 19  7               -0.002005414
  -6165932.825 9  -4792283.62648  19572485.128    19572486.6124   19572492.8554
       536.477         418.034
  -7675568.741 9  -5963892.53848  20487947.371    20487948.5914   20487955.3004
      1329.659        1036.098
 -13348272.870 9 -10383865.04047  22609160.240    22609162.3714   22609168.9334
      2933.642        2285.955
 -11633705.320 9  -9051643.10146  23224047.225    23224047.9734   23224055.9724
      2310.545        1800.425
   8200823.735 9   6383368.64546  24369963.703    24369963.5544   24369971.1544
     -2651.140       -2065.823
   3376295.242 9   2630640.11547  21973438.691    21973440.4954   21973447.6184
     -1594.313       -1242.322
 -17221378.258 9 -13392440.55748  20828663.866    20828665.6164   20828673.0304
      3521.290        2743.862
 97  4 28 16 30 29.9970000  0  7 27  2 26 15 31 19  7               -0.002024797
  -6181821.449 9  -4804664.38248  19569461.609    19569463.1364   19569469.3744
       523.303         407.769
  -7715406.414 9  -5994934.87648  20480366.380    20480367.7104   20480374.4534
      1326.587        1033.704
 -13436089.832 9 -10452293.82947  22592449.337    22592451.3654   22592457.8924
      2921.552        2276.534
 -11702817.628 9  -9105496.82746  23210894.893    23210896.3014   23210904.2864
      2297.486        1790.249
   8280382.507 8   6445362.45946  24385102.937    24385103.0974   24385110.6834
     -2652.487       -2066.873
   3424232.332 9   2667993.65447  21982560.962    21982562.6824   21982569.8044
     -1601.281       -1247.751
 -17326839.611 9 -13474618.21348  20808595.270    20808596.9654   20808604.3964
      3510.132        2735.168
 97  4 28 16 30 59.9970000  0  7 27  2 26 15 31 19  7               -0.002044183
  -6197259.836 9  -4816694.29448  19566523.674    19566525.3284   19566531.5534
       507.569         395.508
  -7755080.981 9  -6025850.12148  20472816.547    20472817.9184   20472824.6214
      1319.799        1028.415
 -13523487.534 9 -10520395.92747  22575818.165    22575820.1384   22575826.6664
      2906.486        2264.794
 -11771478.480 9  -9158998.76846  23197829.119    23197830.6734   23197838.5414
      2281.505        1777.796
   8360041.168 9   6507434.11546  24400261.083    24400261.6434   24400269.2594
     -2656.563       -2070.049
   3472448.518 9   2705564.67147  21991735.871    21991737.9594   21991745.1214
     -1611.443       -1255.670
 -17431906.141 9 -13556488.21148  20788601.751    20788603.4324   20788610.8704
      3495.986        2724.145
 97  4 28 16 31 29.9970000  0  7 27  2 26 15 31 19  7               -0.002063553
  -6212237.940 9  -4828365.55248  19563673.425    19563675.0764   19563681.3244
       490.652         382.326
  -7794548.785 9  -6056604.25048  20465306.027    20465307.4424   20465314.1434
      1311.022        1021.576
 -13610425.184 9 -10588139.53847  22559274.228    22559276.3634   22559282.9774
      2888.823        2251.031
 -11839665.252 9  -9212131.27446  23184853.560    23184855.1204   23184863.0184
      2263.797        1763.998
   8439812.311 9   6569593.44546  24415440.620    24415441.6494   24415449.2434
     -2662.016       -2074.298
   3520956.435 9   2743363.02147  22000966.487    22000968.6714   22000975.9324
     -1622.824       -1264.538
 -17536554.891 9 -13638032.67248  20768687.736    20768689.3954   20768696.8434
      3480.323        2711.940
 97  4 28 16 31 59.9970000  0  6 27  2 26 15 19  7                  -0.002082887
  -6226765.007 9  -4839685.35348  19560908.953    19560910.6294   19560916.8794
       477.250         371.883
  -7833796.685 9  -6087187.03248  20457837.365    20457838.8114   20457845.4564
      1305.001        1016.884
 -13696872.107 9 -10655500.77247  22542823.879    22542826.0664   22542832.7024
      2873.836        2239.353
 -11907367.159 9  -9264885.98546  23171970.108    23171971.8594   23171979.8324
      2249.187        1752.613
   3569760.161 9   2781391.85647  22010253.811    22010255.7754   22010263.0444
     -1631.178       -1271.048
 -17640793.837 9 -13719257.80748  20748851.662    20748853.3794   20748860.8124
      3468.535        2702.755
 97  4 28 16 32 29.9970000  0  6 27  2 26 15 19  7                  -0.002102201
  -6240856.036 9  -4850665.37948  19558227.567    19558229.1814   19558235.4384
       463.636         361.275
  -7872829.893 9  -6117602.51648  20450409.668    20450411.0224   20450417.6434
      1298.734        1012.001
 -13782839.354 9 -10722488.22747  22526464.790    22526467.0904   22526473.6754
      2858.957        2227.759
 -11974603.341 9  -9317277.80746  23159175.214    23159177.1694   23159185.1904
      2234.698        1741.323
   3618846.778 9   2819641.13547  22019594.779    22019596.6564   22019603.9654
     -1639.804       -1277.769
 -17744651.431 9 -13800185.78748  20729088.253    20729089.9154   20729097.3524
      3456.705        2693.536
 97  4 28 16 32 59.9970000  0  6 27  2 26 15 19  7                  -0.002121542
  -6254573.405 9  -4861354.24548  19555617.154    19555618.8664   19555625.1284
       449.429         350.204
  -7911713.185 9  -6147901.18348  20443010.373    20443011.7764   20443018.3734
      1292.195        1006.905
 -13868398.860 9 -10789157.96647  22510183.358    22510185.6864   22510192.2094
      2843.558        2215.759
 -12041439.441 9  -9369357.87046  23146456.516    23146458.6104   23146466.6454
      2219.581        1729.544
   3668153.954 9   2858062.28047  22028977.452    22028979.5394   22028986.8414
     -1648.560       -1284.592
 -17848193.044 9 -13880867.54548  20709385.047    20709386.5844   20709394.0344
      3444.709        2684.189
 97  4 28 16 33 29.9970000  0  6 27  2 26 15 19  7                  -0.002140856
  -6267826.724 9  -4871681.51548  19553095.170    19553096.8954   19553103.1124
       433.717         337.961
  -7950375.898 9  -6178027.96848  20435653.165    20435654.4764   20435661.0824
      1285.113        1001.387
 -13953459.448 9 -10855438.93347  22493996.964    22493999.2054   22494005.6824
      2826.942        2202.812
 -12107787.175 9  -9421057.36546  23133831.595    23133833.1144   23133840.9794
      2203.144        1716.736
   3717753.530 9   2896711.26647  22038415.997    22038418.0894   22038425.3414
     -1658.468       -1292.313
 -17951340.581 9 -13961242.23048  20689756.691    20689758.2414   20689765.7134
      3431.361        2673.788
 97  4 28 16 33 59.9970000  0  6 27  2 26 15 19  7                  -0.002160152
  -6280605.311 9  -4881638.86848  19550663.609    19550665.2424   19550671.4634
       418.674         326.239
  -7988837.915 9  -6207998.37348  20428334.040    20428335.4114   20428342.0214
      1279.606         997.096
 -14038035.635 9 -10921342.43647  22477902.859    22477904.8844   22477911.3754
      2812.040        2191.200
 -12173645.580 9  -9472375.58246  23121299.316    23121300.7354   23121308.4264
      2187.909        1704.864
   3767649.791 9   2935591.43447  22047911.068    22047913.1094   22047920.2854
     -1667.261       -1299.164
 -18054085.712 9 -14041303.35248  20670204.783    20670206.4474   20670213.9284
      3418.584        2663.832
 97  4 28 16 34 29.9970000  0  6 27  2 26 15 19  7                  -0.002179455
  -6292943.815 9  -4891253.29448  19548315.743    19548317.3324   19548323.5524
       403.313         314.270
  -8027154.464 9  -6237855.42248  20421042.567    20421044.0094   20421050.6534
      1274.312         992.970
 -14122174.946 9 -10986905.51447  22461891.723    22461893.6414   22461900.2264
      2796.798        2179.323
 -12239054.256 9  -9523343.34246  23108852.506    23108853.8004   23108861.5974
      2171.987        1692.457
   3817797.891 9   2974667.84247  22057454.371    22057456.0374   22057463.1704
     -1676.411       -1306.294
 -18156446.304 9 -14121064.83848  20650726.370    20650727.9084   20650735.3414
      3404.869        2653.145
 97  4 28 16 34 59.9970000  0  6 27  2 26 15 19  7                  -0.002198760
  -6304836.026 9  -4900519.96648  19546052.768    19546054.3434   19546060.5434
       391.236         304.859
  -8065330.302 9  -6267602.83248  20413777.957    20413779.4034   20413786.0374
      1272.393         991.475
 -14205874.120 9 -11052125.64447  22445964.273    22445966.2474   22445972.7904
      2784.733        2169.922
 -12303995.122 9  -9573946.60447  23096494.815    23096495.9064   23096503.8514
      2159.089        1682.407
   3868198.607 9   3013941.09047  22067045.373    22067046.9584   22067054.1714
     -1681.810       -1310.501
 -18258409.004 9 -14200516.27948  20631323.383    20631325.0624   20631332.4464
      3394.262        2644.879
 97  4 28 16 35 29.9970000  0  6 27  2 26 15 19  7                  -0.002218059
  -6316268.680 9  -4909428.53848  19543877.144    19543878.7534   19543884.9954
       372.734         290.442
  -8103353.938 9  -6297231.63948  20406542.296    20406543.7724   20406550.4014
      1264.170         985.067
 -14289116.358 9 -11116989.71247  22430124.065    22430125.8254   22430132.3034
      2766.545        2155.749
 -12368455.239 9  -9624175.24547  23084228.046    23084229.5034   23084237.6104
      2139.982        1667.518
   3918850.940 9   3053410.40847  22076683.954    22076685.8164   22076693.0704
     -1693.218       -1319.391
 -18359953.381 9 -14279641.74648  20612000.121    20612001.7624   20612009.1674
      3377.069        2631.482
 97  4 28 16 35 59.9970000  0  6 27  2 26 15 19  7                  -0.002237361
  -6327230.129 9  -4917969.94048  19541791.200    19541792.8834   19541799.1224
       357.664         278.699
  -8141214.473 9  -6326733.35748  20399337.685    20399339.1554   20399345.7824
      1259.364         981.322
 -14371901.796 9 -11181497.84647  22414370.419    22414372.2954   22414378.7434
      2752.037        2144.444
 -12432432.580 9  -9674027.69547  23072053.642    23072055.0634   23072063.1444
      2124.655        1655.575
   3969750.666 9   3093072.50747  22086369.576    22086371.7084   22086379.0264
     -1700.679       -1325.204
 -18461070.712 9 -14358434.45548  20592757.897    20592759.7614   20592767.1904
      3363.571        2620.964
 97  4 28 16 36 29.9970000  0  6 27  2 26 15 19  7                  -0.002256661
  -6337709.280 9  -4926135.52648  19539797.003    19539798.7844   19539805.0034
       339.597         264.621
  -8178890.873 9  -6356091.59248  20392168.017    20392169.5564   20392176.1934
      1250.962         974.776
 -14454221.250 9 -11245642.86447  22398705.678    22398707.4384   22398713.8874
      2734.676        2130.916
 -12495914.601 9  -9723494.17047  23059973.188    23059974.9394   23059982.8534
      2106.181        1641.180
   4020910.625 9   3132937.37447  22096104.894    22096107.1214   22096114.4894
     -1711.264       -1333.452
 -18561751.117 9 -14436886.69948  20573599.174    20573600.9424   20573608.3574
      3347.291        2608.279
 97  4 28 16 36 59.9970000  0  6 27  2 26 15 19  7                  -0.002275980
  -6347714.251 9  -4933931.62048  19537893.155    19537894.9234   19537901.1414
       326.337         254.288
  -8216375.922 9  -6385300.72048  20385034.839    20385036.3644   20385042.9984
      1246.818         971.546
 -14536084.304 9 -11309432.24947  22383127.581    22383129.3024   22383135.8644
      2721.563        2120.698
 -12558915.793 9  -9772585.98047  23047984.952    23047986.2344   23047994.0854
      2092.737        1630.704
   4072315.536 9   3172993.12647  22105886.365    22105889.1464   22105896.5694
     -1716.844       -1337.801
 -18662015.587 9 -14515014.83848  20554519.464    20554521.2024   20554528.6214
      3335.901        2599.403
 97  4 28 16 37 29.9970000  0  6 27  2 26 15 19  7                  -0.002295326
  -6357266.202 9  -4941374.71448  19536075.403    19536077.2424   19536083.4644
       309.587         241.237
  -8253679.741 9  -6414368.63448  20377936.171    20377937.6794   20377944.3054
      1239.267         965.663
 -14617494.093 9 -11372868.44347  22367635.530    22367637.5034   22367644.1254
      2704.831        2107.660
 -12621462.672 9  -9821323.78946  23036082.653    23036083.8234   23036091.7134
      2076.033        1617.688
   4123946.096 9   3213224.68447  22115711.555    22115714.1104   22115721.5614
     -1726.152       -1345.053
 -18761891.909 9 -14592840.53148  20535513.518    20535515.3574   20535522.7684
      3321.658        2588.305
 97  4 28 16 37 59.9970000  0  6 27  2 26 15 19  7                  -0.002314670
  -6366328.239 9  -4948436.05548  19534351.028    19534352.7884   19534359.0244
       293.965         229.064
  -8290766.686 9  -6443267.54948  20370878.759    20370880.3084   20370886.9214
      1232.589         960.459
 -14698405.629 9 -11435916.38347  22352238.579    22352240.5794   22352247.1414
      2688.690        2095.083
 -12683510.735 9  -9869672.91946  23024274.761    23024276.3914   23024284.2314
      2059.764        1605.011
   4175850.360 9   3253669.53347  22125588.629    22125591.1834   22125598.6484
     -1734.798       -1351.791
 -18861352.319 9 -14670342.12348  20516586.810    20516588.6494   20516596.0374
      3308.252        2577.859
 97  4 28 16 38 29.9970000  0  6 27  2 26 15 19  7                  -0.002333984
  -6374883.935 9  -4955102.84348  19532722.870    19532724.7014   19532730.9504
       277.276         216.059
  -8327610.765 9  -6471977.22448  20363867.565    20363869.1284   20363875.7244
      1224.543         954.189
 -14778785.868 9 -11498550.33847  22336942.605    22336944.7744   22336951.2534
      2670.883        2081.207
 -12745023.558 9  -9917604.96647  23012569.224    23012570.9244   23012578.7254
      2041.919        1591.106
   4228052.929 9   3294346.81947  22135522.477    22135525.0764   22135532.5224
     -1744.335       -1359.222
 -18960365.234 9 -14747495.02848  20497745.210    20497747.1084   20497754.4494
      3293.554        2566.406
 97  4 28 16 38 59.9970000  0  6 27  2 26 15 19  7                  -0.002353283
  -6382967.399 9  -4961401.66049  19531184.688    19531186.5034   19531192.7304
       261.792         203.994
  -8364240.734 9  -6500520.06048  20356897.192    20356898.6574   20356905.2584
      1217.711         948.866
 -14858653.819 9 -11560785.10247  22321744.122    22321746.4314   22321752.8434
      2653.975        2068.032
 -12806023.134 9  -9965137.07347  23000961.212    23000963.1084   23000970.8634
      2024.831        1577.790
   4280515.134 9   3335226.41847  22145505.912    22145508.3794   22145515.8014
     -1753.054       -1366.016
 -19058966.645 9 -14824327.27748  20478981.993    20478983.9064   20478991.2314
      3280.050        2555.883
 97  4 28 16 39 29.9970000  0  6 27  2 26 15 19  7                  -0.002372613
  -6390654.873 9  -4967391.90548  19529721.929    19529723.6814   19529729.8804
       246.177         191.826
  -8400741.055 9  -6528961.86048  20349951.403    20349952.8464   20349959.4564
      1211.226         943.812
 -14938097.964 9 -11622689.62047  22306626.390    22306628.7114   22306635.1154
      2637.836        2055.457
 -12866576.088 9 -10012321.16547  22989438.498    22989440.2624   22989447.9994
      2007.512        1564.295
   4333178.473 9   3376262.76447  22155527.513    22155529.9034   22155537.3324
     -1762.330       -1373.244
 -19157237.033 9 -14900901.57948  20460281.544    20460283.6924   20460290.9854
      3266.565        2545.375
 97  4 28 16 39 59.9970000  0  6 27  2 26 15 19  7                  -0.002391896
  -6397842.035 9  -4972992.30748  19528354.241    19528356.0254   19528362.2214
       230.205         179.381
  -8437002.745 9  -6557217.72648  20343050.894    20343052.4824   20343059.0914
      1203.537         937.821
 -15017014.111 9 -11684182.71247  22291609.035    22291611.4604   22291617.8974
      2620.673        2042.083
 -12926563.704 9 -10059064.75246  22978023.364    22978024.9474   22978032.7084
      1989.108        1549.954
   4386164.443 9   3417550.49447  22165610.382    22165612.7814   22165620.2224
     -1772.696       -1381.322
 -19255047.512 9 -14977117.51948  20441668.962    20441670.9964   20441678.2754
      3251.466        2533.610
 97  4 28 16 40 29.9970000  0  6 27  2 26 15 19  7                  -0.002411169
  -6404585.465 9  -4978246.93449  19527071.037    19527072.8204   19527079.0034
       217.575         169.539
  -8473076.343 9  -6585327.02648  20336186.318    20336187.9284   20336194.5324
      1199.642         934.786
 -15095458.357 9 -11745308.08647  22276681.555    22276683.9824   22276690.4444
      2607.176        2031.566
 -12986048.671 9 -10105416.66246  22966703.761    22966705.2714   22966713.0924
      1974.849        1538.843
   4439419.895 9   3459048.19747  22175744.885    22175746.9194   22175754.4344
     -1779.431       -1386.570
 -19352447.922 9 -15053013.92348  20423134.316    20423136.3264   20423143.5964
      3240.194        2524.826
 97  4 28 16 40 59.9970000  0  6 27  2 26 15 19  7                  -0.002430449
  -6410902.043 9  -4983168.95649  19525868.951    19525870.8144   19525877.0114
       202.319         157.651
  -8508988.478 9  -6613310.50648  20329352.426    20329354.0584   20329360.6994
      1193.535         930.027
 -15173449.806 9 -11806080.63647  22261840.123    22261842.6924   22261849.1444
      2591.119        2019.054
 -13045062.079 9 -10151401.11747  22955473.624    22955475.4384   22955483.1604
      1958.279        1525.932
   4492935.730 9   3500748.82247  22185928.107    22185930.6904   22185938.2354
     -1789.365       -1394.310
 -19449462.126 9 -15128609.38748  20404673.194    20404675.0934   20404682.3714
      3226.137        2513.873
 97  4 28 16 41 29.9970000  0  6 27  2 26 15 19  7                  -0.002449716
  -6416766.901 9  -4987738.98649  19524753.061    19524754.8004   19524760.9864
       186.284         145.156
  -8544737.923 9  -6641167.21948  20322549.394    20322551.1394   20322557.8064
      1187.397         925.244
 -15250967.256 9 -11866483.83347  22247089.085    22247091.5474   22247098.0394
      2574.138        2005.822
 -13103591.677 9 -10197008.55747  22944336.173    22944337.6894   22944345.3154
      1941.283        1512.688
   4546728.836 9   3542665.48247  22196164.517    22196167.1834   22196174.8464
     -1799.077       -1401.878
 -19546055.525 9 -15203876.95548  20386292.022    20386293.9704   20386301.2364
      3210.974        2502.058
 97  4 28 16 41 59.9970000  0  6 27  2 26 15 19  7                  -0.002468921
  -6422099.826 9  -4991894.51949  19523738.289    19523739.9734   19523746.1794
       167.272         130.342
  -8580252.667 9  -6668841.04248  20315791.184    20315792.9024   20315799.5744
      1178.372         918.212
 -15327913.736 9 -11926442.12647  22232446.664    22232449.1454   22232455.5734
      2553.926        1990.072
 -13161560.856 9 -10242179.31547  22933305.044    22933306.5384   22933314.1604
      1921.412        1497.204
   4600857.227 9   3584843.41047  22206465.199    22206467.4804   22206475.2484
     -1811.233       -1411.350
 -19642147.023 9 -15278753.42648  20368006.446    20368008.3764   20368015.6104
      3193.430        2488.387
 97  4 28 16 42 29.9970000  0  6 27  2 26 15 19  7                  -0.002488079
  -6426893.244 9  -4995629.66149  19522826.061    19522827.8304   19522834.0624
       153.492         119.604
  -8615538.927 9  -6696336.83448  20309076.443    20309078.1494   20309084.8074
      1175.176         915.721
 -15404298.108 9 -11985962.41447  22217911.205    22217913.6394   22217920.0404
      2539.428        1978.775
 -13218969.014 9 -10286912.93147  22922380.890    22922382.1074   22922389.6754
      1906.879        1485.880
   4655306.028 9   3627271.01947  22216826.567    22216828.7994   22216836.5324
     -1817.441       -1416.188
 -19737757.054 9 -15353254.73448  20349812.351    20349814.3864   20349821.6114
      3181.716        2479.259
 97  4 28 16 42 59.9970000  0  6 27  2 26 15 19  7                  -0.002507227
  -6431203.373 9  -4998988.20949  19522005.835    19522007.6114   19522013.8804
       135.559         105.630
  -8650658.745 9  -6723702.92948  20302393.570    20302395.0954   20302401.7284
      1167.835         910.001
 -15480173.043 9 -12045085.73847  22203472.638    22203475.0824   22203481.5134
      2520.741        1964.214
 -13275861.722 9 -10331244.90746  22911554.813    22911555.6894   22911563.3354
      1887.674        1470.915
   4710003.681 9   3669892.51047  22227234.948    22227237.4164   22227245.1364
     -1827.336       -1423.898
 -19832942.462 9 -15427425.16048  20331699.148    20331701.1384   20331708.3484
      3165.759        2466.825
 97  4 28 16 43 29.9970000  0  6 27  2 26 15 19  7                  -0.002526371
  -6435029.600 9  -5001969.69648  19521277.636    19521279.5344   19521285.7854
       118.855          92.614
  -8685609.134 9  -6750936.99848  20295742.915    20295744.2484   20295750.8914
      1161.406         904.992
 -15555548.513 9 -12103819.86647  22189129.307    22189131.6194   22189138.0544
      2503.613        1950.867
 -13332228.146 9 -10375166.77147  22900828.714    22900829.4654   22900837.1734
      1869.354        1456.639
   4764942.269 9   3712701.75647  22237689.392    22237691.9364   22237699.6114
     -1836.005       -1430.653
 -19927713.530 9 -15501272.72948  20313664.962    20313666.7824   20313674.0114
      3151.607        2455.798
 97  4 28 16 43 59.9970000  0  6 27  2 26 15 19  7                  -0.002545481
  -6438325.439 9  -5004537.89648  19520650.404    19520652.3704   19520658.6014
       100.727          78.489
  -8720321.671 9  -6777985.73348  20289137.316    20289138.6984   20289145.3144
      1152.584         898.117
 -15630375.871 9 -12162126.89747  22174890.321    22174892.4644   22174898.9274
      2484.934        1936.312
 -13388007.323 9 -10418631.04247  22890214.056    22890215.0164   22890222.7254
      1849.081        1440.842
   4820181.939 9   3755745.59847  22248200.987    22248203.6664   22248211.3184
     -1846.868       -1439.118
 -20022026.565 9 -15574763.38848  20295717.753    20295719.5714   20295726.7714
      3135.564        2443.297
 97  4 28 16 44 29.9970000  0  6 27  2 26 15 19  7                  -0.002564560
  -6441108.899 9  -5006706.84049  19520120.748    19520122.7074   19520128.9304
        86.046          67.049
  -8754797.719 9  -6804850.19048  20282576.801    20282578.1754   20282584.7404
      1147.122         893.861
 -15704670.762 9 -12220019.01247  22160752.457    22160754.6374   22160761.1124
      2469.175        1924.032
 -13443207.791 9 -10461644.35947  22879709.793    22879710.7354   22879718.3564
      1832.194        1427.684
   4875717.885 9   3799020.31147  22258768.852    22258771.7174   22258779.4494
     -1854.469       -1445.041
 -20115874.679 9 -15647891.77048  20277858.991    20277860.8654   20277868.0854
      3122.164        2432.855
 97  4 28 16 44 59.9970000  0  6 27  2 26 15 19  7                  -0.002583651
  -6443460.462 9  -5008539.24149  19519673.296    19519675.2354   19519681.4494
        71.079          55.386
  -8789123.136 9  -6831597.26948  20276044.922    20276046.2704   20276052.8584
      1141.581         889.544
 -15778505.580 9 -12277552.63647  22146702.258    22146704.3724   22146710.8604
      2453.672        1911.952
 -13497915.171 9 -10504273.45746  22869299.662    22869300.2554   22869307.8314
      1815.333        1414.545
   4931480.497 9   3842471.66347  22269380.314    22269382.9394   22269390.7734
     -1862.763       -1451.504
 -20209329.829 9 -15720713.94748  20260075.075    20260076.9384   20260084.1654
      3108.486        2422.197
 97  4 28 16 45 29.9970000  0  6 27  2 26 15 19  7                  -0.002602763
  -6445381.214 9  -5010035.94649  19519307.932    19519309.7614   19519315.9864
        55.876          43.540
  -8823295.456 9  -6858225.05848  20269542.089    20269543.4934   20269550.0774
      1135.612         884.892
 -15851900.804 9 -12334743.72047  22132735.666    22132737.7354   22132744.1844
      2438.094        1899.814
 -13552138.182 9 -10546525.12647  22858980.914    22858981.9014   22858989.4914
      1798.413        1401.361
   4987484.736 9   3886111.26647  22280038.080    22280040.2844   22280048.1654
     -1871.790       -1458.538
 -20302387.484 9 -15793226.39048  20242366.647    20242368.6424   20242375.8594
      3094.122        2411.004
 97  4 28 16 45 59.9970000  0  6 27  2 26 15 19  7                  -0.002621858
  -6446821.184 9  -5011158.01249  19519034.111    19519035.7754   19519042.0044
        38.062          29.659
  -8857267.923 9  -6884697.11548  20263077.309    20263078.7724   20263085.3464
      1127.276         878.397
 -15924795.538 9 -12391544.80947  22118864.316    22118866.2854   22118872.7444
      2419.549        1885.363
 -13605832.569 9 -10588364.89747  22848762.901    22848764.1514   22848771.8144
      1779.241        1386.422
   5043779.148 9   3929977.00447  22290751.028    22290752.9374   22290760.7394
     -1882.996       -1467.270
 -20394981.802 9 -15865377.79148  20224746.639    20224748.5314   20224755.7514
      3076.943        2397.618
 97  4 28 16 46 29.9970000  0  6 27  2 26 15 19  7                  -0.002640932
  -6447763.940 9  -5011892.64349  19518854.754    19518856.4034   19518862.6324
        23.113          18.010
  -8891040.883 9  -6911013.70848  20256650.465    20256652.0004   20256658.5854
      1122.736         874.859
 -15997169.195 9 -12447939.86647  22105092.006    22105094.0504   22105100.4934
      2403.822        1873.108
 -13658996.137 9 -10629791.03047  22838646.653    22838647.4774   22838655.1594
      1763.386        1374.067
   5100363.320 9   3974068.51247  22301519.075    22301520.6504   22301528.4924
     -1890.796       -1473.348
 -20487113.338 9 -15937168.57948  20207214.498    20207216.4644   20207223.6704
      3063.763        2387.348
 97  4 28 16 46 59.9970000  0  6 27  2 26 15 19  7                  -0.002660016
  -6448225.245 9  -5012252.12149  19518766.944    19518768.6054   19518774.8164
         6.480           5.049
  -8924656.257 9  -6937207.51448  20250253.728    20250255.2144   20250261.7954
      1116.947         870.348
 -16069054.511 9 -12503954.39647  22091412.718    22091414.7834   22091421.1914
      2387.206        1860.161
 -13711659.543 9 -10670827.42547  22828625.388    22828625.9614   22828633.7074
      1746.213        1360.685
   5157197.886 9   4018355.13447  22312334.183    22312336.0314   22312343.8524
     -1899.353       -1480.015
 -20578828.924 9 -16008635.25348  20189761.592    20189763.5774   20189770.7574
      3049.292        2376.072
 97  4 28 16 47 29.9970000  0  6 27  2 26 15 19  7                  -0.002679098
  -6448174.479 9  -5012212.57349  19518776.527    19518778.2854   19518784.4734
        -9.472          -7.381
  -8958076.788 9  -6963249.49148  20243894.117    20243895.5004   20243902.0754
      1111.532         866.129
 -16140406.858 9 -12559553.62747  22077834.772    22077836.8834   22077843.3544
      2369.797        1846.595
 -13763783.366 9 -10711443.35147  22818706.378    22818707.1454   22818714.8394
      1729.068        1347.326
   5214294.330 9   4062845.81147  22323199.322    22323201.1444   22323209.0174
     -1906.618       -1485.676
 -20670092.747 9 -16079749.90448  20172394.655    20172396.6764   20172403.7994
      3035.395        2365.243
 97  4 28 16 47 59.9970000  0  6 27  2 26 15 19  7                  -0.002698171
  -6447660.423 9  -5011812.02449  19518874.276    19518876.0984   19518882.3244
       -25.046         -19.516
  -8991351.071 9  -6989177.51248  20237562.228    20237563.6184   20237570.1964
      1106.381         862.115
 -16211238.586 9 -12614747.17547  22064355.946    22064358.0664   22064364.5864
      2352.194        1832.878
 -13815401.596 9 -10751665.33147  22808883.516    22808884.4604   22808892.1334
      1711.835        1333.897
   5271592.195 9   4107493.44447  22334102.820    22334104.5564   22334112.5154
     -1913.550       -1491.078
 -20760951.665 9 -16150549.04148  20155104.838    20155106.7844   20155113.9054
      3021.472        2354.394
 97  4 28 16 48 29.9970000  0  6 27  2 26 15 19  7                  -0.002717232
  -6446676.718 9  -5011045.51549  19519061.484    19519063.3144   19519069.5574
       -39.819         -31.028
  -9024463.504 9  -7014979.41648  20231261.110    20231262.5244   20231269.1244
      1101.710         858.475
 -16281543.806 9 -12669530.46447  22050977.232    22050979.4234   22050985.9344
      2335.638        1819.978
 -13866491.425 9 -10791475.55647  22799161.700    22799162.4084   22799169.9694
      1694.728        1320.567
   5329106.673 9   4152309.86247  22345047.257    22345049.1494   22345057.1704
     -1920.133       -1496.207
 -20851382.264 9 -16221014.43248  20137896.558    20137898.3844   20137905.4824
      3007.664        2343.634
 97  4 28 16 48 59.9970000  0  6 27  2 26 15 19  7                  -0.002736257
  -6445193.519 9  -5009889.78949  19519343.771    19519345.5664   19519351.8354
       -55.462         -43.217
  -9057370.225 9  -7040621.01848  20224999.113    20225000.5824   20225007.2044
      1095.396         853.555
 -16351298.047 9 -12723884.41447  22037703.295    22037705.6054   22037712.1064
      2317.966        1806.207
 -13917002.015 9 -10830834.43547  22789549.446    22789550.5174   22789558.1294
      1676.049        1306.012
   5386880.469 9   4197328.36047  22356041.050    22356043.1194   22356051.0614
     -1928.174       -1502.473
 -20941320.878 9 -16291096.45148  20120781.771    20120783.6194   20120790.7324
      2991.625        2331.136
 97  4 28 16 49 29.9970000  0  6 27  2 26 15 19  7                  -0.002755256
  -6443264.397 9  -5008386.59549  19519711.025    19519712.7094   19519718.9624
       -71.914         -56.037
  -9090091.357 9  -7066118.00848  20218772.544    20218773.9694   20218780.5704
      1087.488         847.393
 -16420534.495 9 -12777834.88647  22024528.003    22024530.2984   22024536.8244
      2299.336        1791.690
 -13966962.624 9 -10869764.76647  22780042.059    22780043.3404   22780050.9694
      1656.093        1290.462
   5444890.827 9   4242531.18047  22367080.355    22367082.2574   22367090.0664
     -1937.944       -1510.086
 -21030786.131 9 -16360809.61748  20103757.034    20103758.9384   20103766.0514
      2974.205        2317.562
 97  4 28 16 49 59.9970000  0  6 27  2 26 15 19  7                  -0.002774238
  -6440885.466 9  -5006532.90149  19520163.853    19520165.4124   19520171.6444
       -85.765         -66.830
  -9122627.217 9  -7091470.62848  20212581.164    20212582.6054   20212589.2114
      1082.548         843.544
 -16489274.308 9 -12831398.36747  22011447.200    22011449.6024   22011456.0844
      2284.478        1780.113
 -14016376.447 9 -10908269.02547  22770638.966    22770640.2274   22770647.8314
      1639.217        1277.312
   5503150.713 9   4287928.43847  22378167.217    22378168.9554   22378176.5554
     -1944.899       -1515.506
 -21119773.744 9 -16430150.60248  20086823.351    20086825.1694   20086832.2254
      2959.392        2306.020
 97  4 28 16 50 29.9970000  0  6 27  2 26 15 19  7                  -0.002793257
  -6438097.810 9  -5004360.71849  19520694.374    19520695.8794   19520702.1354
      -101.110         -78.787
  -9155017.262 9  -7116709.63048  20206417.649    20206419.0164   20206425.5954
      1075.900         838.364
 -16557579.541 9 -12884623.22247  21998449.340    21998451.5454   21998458.0374
      2268.109        1767.358
 -14065298.060 9 -10946389.74147  22761329.558    22761330.7914   22761338.3574
      1621.294        1263.346
   5561604.043 9   4333476.43547  22389290.714    22389292.3754   22389299.9114
     -1952.885       -1521.729
 -21208338.058 9 -16499161.74148  20069970.194    20069971.8984   20069978.9664
      2944.076        2294.085
 97  4 28 16 50 59.9970000  0  6 27  2 26 15 19  7                  -0.002812276
  -6434828.380 9  -5001813.12749  19521316.563    19521318.0584   19521324.3284
      -116.160         -90.514
  -9187192.329 9  -7141781.11048  20200294.956    20200296.3244   20200302.9014
      1069.820         833.626
 -16625371.770 9 -12937448.32847  21985548.957    21985551.0954   21985557.6344
      2251.995        1754.801
 -14113670.610 9 -10984082.62947  22752124.519    22752125.8154   22752133.3304
      1604.263        1250.075
   5620308.895 9   4379220.40747  22400461.874    22400463.6474   22400471.2074
     -1960.049       -1527.311
 -21296433.904 9 -16567807.84348  20053206.190    20053207.8284   20053214.8814
      2929.872        2283.017
 97  4 28 16 51 29.9970000  0  6 27  2 26 15 19  7                  -0.002831310
  -6431081.019 9  -4998893.12349  19522029.703    19522031.2014   19522037.4604
      -132.390        -103.161
  -9219169.044 9  -7166698.03848  20194210.040    20194211.3604   20194217.9224
      1063.486         828.690
 -16692657.816 9 -12989879.01047  21972744.981    21972746.9434   21972753.5264
      2235.107        1741.642
 -14161515.787 9 -11021364.55747  22743019.604    22743021.1494   22743028.6294
      1586.731        1236.414
   5679250.988 9   4425149.26347  22411678.656    22411680.0084   22411687.5894
     -1967.819       -1533.365
 -21384098.148 9 -16636117.62748  20036524.435    20036525.9074   20036532.9174
      2915.765        2272.025
 97  4 28 16 51 59.9970000  0  6 27  2 26 15 19  7                  -0.002850355
  -6426840.292 9  -4995588.67549  19522836.711    19522838.2274   19522844.4694
      -149.166        -116.233
  -9250958.906 9  -7191469.36148  20188160.670    20188161.9514   20188168.5294
      1057.037         823.665
 -16759421.043 9 -13041902.30247  21960040.361    21960042.3234   21960048.8674
      2216.887        1727.444
 -14208829.740 9 -11058232.55547  22734015.888    22734017.5894   22734024.9834
      1568.514        1222.219
   5738424.534 9   4471258.47447  22422938.572    22422940.2904   22422948.0984
     -1975.994       -1539.736
 -21471334.466 9 -16704093.96748  20019923.764    20019925.4054   20019932.3944
      2900.999        2260.519
 97  4 28 16 52 29.9970000  0  6 27  2 26 15 19  7                  -0.002869415
  -6422159.087 9  -4991940.99749  19523727.530    19523729.0284   19523735.2644
      -163.960        -127.761
  -9282621.282 9  -7216141.34648  20182135.413    20182136.7804   20182143.3704
      1052.721         820.302
 -16825688.348 9 -13093539.16247  21947430.182    21947432.0334   21947438.5584
      2199.956        1714.251
 -14255651.955 9 -11094717.38647  22725106.077    22725107.6794   22725114.9454
      1551.826        1209.215
   5797792.001 9   4517518.79347  22434235.512    22434237.4454   22434245.3704
     -1983.024       -1545.214
 -21558191.518 9 -16771774.77148  20003395.438    20003397.0594   20003404.0384
      2888.309        2250.630
 97  4 28 16 52 59.9970000  0  6 27  2 26 15 19  7                  -0.002888447
  -6416993.184 9  -4987915.63448  19524710.630    19524712.0524   19524718.3034
      -180.274        -140.473
  -9314121.003 9  -7240686.59348  20176141.213    20176142.5804   20176149.1654
      1047.422         816.173
 -16891417.130 9 -13144756.40047  21934922.326    21934924.2604   21934930.7614
      2182.142        1700.370
 -14301926.006 9 -11130775.05847  22716300.442    22716302.0124   22716309.3824
      1533.236        1194.729
   5857422.023 9   4563983.69046  22445582.993    22445584.6894   22445592.6604
     -1992.116       -1552.298
 -21644616.409 9 -16839118.83248  19986949.235    19986950.8964   19986957.9264
      2873.454        2239.055
 97  4 28 16 53 29.9970000  0  6 27  2 26 15 19  7                  -0.002907449
  -6411354.187 9  -4983521.62049  19525783.740    19525785.1374   19525791.3854
      -198.578        -154.736
  -9345476.808 9  -7265119.68948  20170174.511    20170175.7664   20170182.3424
      1039.890         810.304
 -16956620.981 9 -13195564.58647  21922514.621    21922516.3854   21922522.8844
      2161.808        1684.526
 -14347646.702 9 -11166401.56947  22707599.962    22707601.6064   22707608.9974
      1511.844        1178.060
   5917310.504 9   4610649.97647  22456979.269    22456981.1234   22456989.0434
     -2003.268       -1560.988
 -21730602.117 9 -16906120.66848  19970586.686    19970588.3354   19970595.4144
      2855.756        2225.264
 97  4 28 16 53 59.9970000  0  6 27  2 26 15 19  7                  -0.002926382
  -6405190.776 9  -4978718.97649  19526956.705    19526958.0334   19526964.2464
      -213.288        -166.198
  -9376623.240 9  -7289389.64548  20164247.533    20164248.7914   20164255.3584
      1035.434         806.832
 -17021235.574 9 -13245913.62148  21910218.831    21910220.6864   21910227.1584
      2144.960        1671.397
 -14392744.850 9 -11201542.97147  22699017.627    22699019.6284   22699027.0944
      1493.695        1163.918
   5977504.353 9   4657554.21247  22468433.497    22468435.7154   22468443.5494
     -2010.647       -1566.738
 -21816073.702 9 -16972721.89448  19954322.006    19954323.6484   19954330.7614
      2841.317        2214.013
 97  4 28 16 54 29.9970000  0  6 27  2 26 15 19  7                  -0.002945303
  -6398583.719 9  -4973570.63449  19528213.996    19528215.3394   19528221.5634
      -228.439        -178.004
  -9407623.301 9  -7313545.54548  20158348.390    20158349.6404   20158356.2014
      1029.883         802.506
 -17085348.556 9 -13295871.78548  21898018.688    21898020.4104   21898026.9004
      2128.113        1658.270
 -14437299.834 9 -11236261.13647  22690539.184    22690541.0134   22690548.5304
      1475.444        1149.697
   6037921.832 9   4704632.72346  22479930.527    22479932.8844   22479940.6254
     -2018.234       -1572.650
 -21901113.095 9 -17038986.34548  19938139.575    19938141.2004   19938148.3094
      2826.782        2202.687
 97  4 28 16 54 59.9970000  0  6 27  2 26 15 19  7                  -0.002964244
  -6391531.119 9  -4968075.11048  19529555.982    19529557.3834   19529563.6454
      -241.994        -188.567
  -9438465.117 9  -7337578.13448  20152479.318    20152480.6324   20152487.2104
      1026.167         799.611
 -17148978.366 9 -13345453.45248  21885910.228    21885912.0764   21885918.5594
      2113.609        1646.968
 -14481324.075 9 -11270565.72347  22682161.541    22682163.3824   22682171.0554
      1459.323        1137.135
   6098538.783 9   4751866.65046  22491465.884    22491467.9834   22491475.6854
     -2022.969       -1576.339
 -21985725.911 9 -17104918.39848  19922038.251    19922039.8904   19922047.0084
      2813.934        2192.676
 97  4 28 16 55 29.9970000  0  6 27  2 26 15 19  7                  -0.002983210
  -6384018.233 9  -4962220.91848  19530985.550    19530987.0044   19530993.3204
      -259.583        -202.272
  -9469142.402 9  -7361482.51648  20146641.711    20146642.9714   20146649.5074
      1018.342         793.513
 -17212110.269 9 -13394647.13848  21873896.429    21873898.5254   21873904.9974
      2094.618        1632.170
 -14524818.349 9 -11304457.35347  22673885.538    22673886.6594   22673894.3384
      1439.695        1121.840
   6159343.374 9   4799246.79246  22503036.725    22503038.8074   22503046.4624
     -2031.382       -1582.895
 -22069910.011 9 -17170516.38548  19906018.519    19906020.1294   19906027.2554
      2797.747        2180.062
 97  4 28 16 55 59.9970000  0  6 27  2 26 15 19  7                  -0.003002172
  -6375975.067 9  -4955953.53148  19532516.106    19532517.5854   19532523.8684
      -276.990        -215.836
  -9499597.918 9  -7385214.09448  20140846.292    20140847.5134   20140854.0534
      1011.790         788.408
 -17274686.931 9 -13443408.17648  21861988.593    21861990.6054   21861997.0424
      2076.687        1618.198
 -14567735.023 9 -11337898.89047  22665718.396    22665719.9414   22665727.5724
      1420.969        1107.249
   6220395.390 9   4846819.72846  22514654.762    22514656.6994   22514664.3054
     -2039.454       -1589.185
 -22153619.939 9 -17235744.88948  19890089.083    19890090.6674   19890097.7674
      2782.473        2168.161
 97  4 28 16 56 29.9960000  0  6 27  2 26 15 19  7                  -0.003021123
  -6367404.526 9  -4949275.19549  19534147.064    19534148.5304   19534154.8204
      -293.628        -228.801
  -9529856.000 9  -7408791.83048  20135088.181    20135089.5894   20135096.1584
      1006.398         784.206
 -17336717.363 9 -13491743.57848  21850184.554    21850186.6074   21850193.0204
      2059.636        1604.911
 -14610082.260 9 -11370896.73347  22657659.860    22657661.5354   22657669.1394
      1403.039        1093.277
   6281708.948 9   4894596.46447  22526321.985    22526324.3064   22526331.9654
     -2047.384       -1595.364
 -22236859.735 9 -17300607.05848  19874248.832    19874250.6634   19874257.7374
      2767.794        2156.723
 97  4 28 16 56 59.9960000  0  6 27  2 26 15 19  7                  -0.003040096
  -6358358.964 9  -4942226.71248  19535868.311    19535869.8544   19535876.1444
      -309.592        -241.241
  -9559986.772 9  -7432270.36048  20129354.293    20129355.8864   20129362.4484
      1002.185         780.923
 -17398266.610 9 -13539704.03648  21838472.091    21838474.1804   21838480.5504
      2043.321        1592.198
 -14651915.896 9 -11403494.34947  22649699.578    22649700.8454   22649708.4024
      1385.552        1079.651
   6343228.693 9   4942533.86647  22538028.909    22538031.0714   22538038.9164
     -2054.190       -1600.668
 -22319682.613 9 -17365144.35248  19858488.189    19858489.9654   19858497.0514
      2753.383        2145.493
 97  4 28 16 57 29.9960000  0  6 27  2 26 15 19  7                  -0.003059059
  -6348814.710 9  -4934789.64048  19537684.440    19537686.0664   19537692.3794
      -327.007        -254.811
  -9589963.775 9  -7455629.07148  20123649.962    20123651.4704   20123658.0494
       995.912         776.035
 -17459289.685 9 -13587254.49048  21826859.700    21826861.8424   21826868.2394
      2024.613        1577.620
 -14693192.957 9 -11435658.28947  22641845.274    22641846.1424   22641853.6444
      1365.861        1064.307
   6404986.811 9   4990657.01447  22549780.675    22549783.3124   22549791.2004
     -2063.316       -1607.779
 -22402042.148 9 -17429320.60048  19842815.615    19842817.4344   19842824.5434
      2736.715        2132.505
 97  4 28 16 57 59.9960000  0  6 27  2 26 15 19  7                  -0.003078021
  -6338809.453 9  -4926993.34648  19539588.209    19539590.0174   19539596.3414
      -340.586        -265.392
  -9619808.152 9  -7478884.43748  20117970.846    20117972.2884   20117978.8624
       992.963         773.737
 -17519813.040 9 -13634415.54748  21815342.349    21815344.6044   21815351.0644
      2009.452        1565.807
 -14733932.235 9 -11467403.16847  22634092.639    22634093.7164   22634101.2444
      1349.302        1051.404
   6466956.447 9   5038944.98546  22561573.585    22561575.7624   22561583.7064
     -2068.634       -1611.923
 -22483942.613 9 -17493139.13548  19827230.604    19827232.3194   19827239.4274
      2722.569        2121.482
 97  4 28 16 58 29.9960000  0  6 27  2 26 15 19  7                  -0.003096963
  -6328325.234 9  -4918823.83648  19541583.336    19541585.1154   19541591.4314
      -357.655        -278.692
  -9649471.631 9  -7501998.84148  20112325.946    20112327.4994   20112334.0694
       985.294         767.762
 -17579796.671 9 -13681156.03748  21803927.894    21803930.1124   21803936.6224
      1990.273        1550.862
 -14774092.761 9 -11498697.06447  22626450.066    22626451.4124   22626458.8984
      1328.806        1035.433
   6529156.804 9   5087412.72646  22573409.932    22573412.1364   22573420.1124
     -2077.168       -1618.572
 -22565333.773 9 -17556560.80748  19811742.322    19811744.1244   19811751.2024
      2704.437        2107.354
 97  4 28 16 58 59.9960000  0  6 27  2 26 15 19  7                  -0.003115907
  -6317383.202 9  -4910297.59348  19543665.464    19543667.3394   19543673.6254
      -372.321        -290.120
  -9678953.933 9  -7524972.07148  20106715.530    20106717.1804   20106723.7914
       979.743         763.436
 -17639254.181 9 -13727486.56748  21792613.473    21792615.7124   21792622.2314
      1972.994        1537.398
 -14813690.959 9 -11529552.80747  22618914.641    22618916.1144   22618923.5964
      1310.537        1021.198
   6591551.368 9   5136031.80046  22585283.179    22585285.4424   22585293.4684
     -2083.082       -1623.181
 -22646240.182 9 -17619604.75648  19796346.229    19796348.1164   19796355.2004
      2688.740        2095.122
 97  4 28 16 59 29.9960000  0  6 27  2 26 15 19  7                  -0.003134840
  -6305977.302 9  -4901409.89548  19545836.059    19545837.8624   19545844.1254
      -387.544        -301.982
  -9708243.307 9  -7547794.95948  20101142.030    20101143.6294   20101150.2344
       973.479         758.555
 -17698165.183 9 -13773391.24548  21781402.963    21781405.3684   21781411.7574
      1955.051        1523.416
 -14852715.700 9 -11559961.68647  22611488.341    22611489.8604   22611497.3534
      1291.732        1006.544
   6654159.158 9   5184817.02446  22597196.868    22597199.3284   22597207.4264
     -2090.119       -1628.664
 -22726653.027 9 -17682264.10248  19781044.160    19781046.0624   19781053.1574
      2672.838        2082.731
 97  4 28 16 59 59.9960000  0  6 27  2 26 15 19  7                  -0.003153761
  -6294095.721 9  -4892151.54048  19548097.111    19548098.8504   19548105.1354
      -403.754        -314.613
  -9737330.232 9  -7570460.09948  20095606.992    20095608.5634   20095615.1834
       966.466         753.090
 -17756527.854 9 -13818868.65748  21770296.997    21770299.3664   21770305.7094
      1936.579        1509.023
 -14891162.864 9 -11589920.50447  22604171.921    22604173.6364   22604181.0564
      1272.206         991.329
   6716985.869 9   5233772.82346  22609152.900    22609154.9734   22609162.9034
     -2097.674       -1634.551
 -22806585.514 9 -17744549.14848  19765833.595    19765835.4514   19765842.5264
      2656.932        2070.337
 97  4 28 17  0 29.9960000  0  6 27  2 26 15 19  7                  -0.003172626
  -6281656.158 9  -4882458.39348  19550464.288    19550465.9624   19550472.2994
      -423.223        -329.784
  -9766136.116 9  -7592906.24648  20090125.389    20090126.9544   20090133.6104
       956.431         745.271
 -17814271.199 9 -13863863.47848  21759308.840    21759311.1454   21759317.5674
      1915.407        1492.525
 -14928954.632 9 -11619368.62747  22596980.346    22596982.0804   22596989.5154
      1249.688         973.783
   6780123.593 9   5282970.97746  22621167.764    22621169.8964   22621177.6474
     -2108.930       -1643.322
 -22885982.762 9 -17806417.12548  19750724.683    19750726.6224   19750733.6784
      2638.731        2056.154
 97  4 28 17  0 59.9960000  0  6 27  2 26 15 19  7                  -0.003191476
  -6268711.808 9  -4872371.90448  19552927.334    19552929.1774   19552935.5604
      -437.369        -340.807
  -9794724.566 9  -7615182.96348  20084685.250    20084686.7664   20084693.3994
       951.993         741.813
 -17871458.458 9 -13908424.97648  21748426.218    21748428.7394   21748435.2334
      1899.449        1480.090
 -14966154.334 9 -11648355.38747  22589901.330    22589903.1944   22589910.6594
      1232.670         960.522
   6843516.590 9   5332368.05446  22633230.608    22633233.3024   22633240.9454
     -2114.777       -1647.878
 -22964917.912 9 -17867925.02348  19735703.680    19735705.7274   19735712.7814
      2625.875        2046.136
 97  4 28 17  1 29.9960000  0  6 27  2 26 15 19  7                  -0.003210350
  -6255325.950 9  -4861941.38748  19555474.586    19555476.4444   19555482.8424
      -454.225        -353.942
  -9823163.945 9  -7637343.52248  20079273.382    20079274.9294   20079281.5704
       944.837         736.237
 -17928158.316 9 -13952606.68948  21737636.526    21737639.0684   21737645.6124
      1881.335        1465.975
 -15002828.831 9 -11676932.91347  22582922.535    22582924.3124   22582931.7434
      1213.073         945.252
   6907097.379 9   5381911.47346  22645329.649    22645332.3304   22645339.9504
     -2123.025       -1654.305
 -23043453.843 9 -17929121.84148  19720758.741    19720760.7904   19720767.8734
      2610.757        2034.356
 97  4 28 17  1 59.9960000  0  6 27  2 26 15 19  7                  -0.003229266
  -6241514.711 9  -4851179.40448  19558102.952    19558104.6674   19558111.0404
      -468.555        -365.108
  -9851471.182 9  -7659401.11348  20073886.652    20073888.2464   20073894.8884
       940.243         732.657
 -17984392.317 9 -13996425.39348  21726935.605    21726938.0944   21726944.6484
      1865.400        1453.558
 -15038995.067 9 -11705114.38847  22576040.244    22576042.1394   22576049.5064
      1195.825         931.812
   6970846.294 9   5431585.88346  22657460.538    22657463.2804   22657471.0114
     -2129.099       -1659.038
 -23121613.383 9 -17990025.37248  19705885.539    19705887.5284   19705894.6424
      2597.539        2024.056
 97  4 28 17  2 29.9960000  0  6 27  2 26 15 19  7                  -0.003248208
  -6227281.101 9  -4840088.30448  19560811.469    19560813.2584   19560819.6104
      -481.452        -375.157
  -9879645.746 9  -7681355.32748  20068525.279    20068526.7674   20068533.4204
       936.977         730.112
 -18040145.076 9 -14039869.10348  21716326.216    21716328.6474   21716335.2254
      1850.362        1441.841
 -15074647.491 9 -11732895.50047  22569256.085    22569257.6744   22569265.0414
      1179.879         919.386
   7034770.800 9   5481397.11946  22669625.125    22669627.7094   22669635.4724
     -2133.542       -1662.500
 -23199364.414 9 -18050610.58548  19691090.042    19691092.0304   19691099.1644
      2584.717        2014.065
 97  4 28 17  2 59.9960000  0  6 27  2 26 15 19  7                  -0.003267215
  -6212686.395 9  -4828715.82648  19563588.634    19563590.5214   19563596.9014
      -492.564        -383.816
  -9907749.155 9  -7703254.08948  20063177.258    20063178.8484   20063185.5064
       935.702         729.118
 -18095466.425 9 -14082976.65648  21705798.838    21705801.3194   21705807.9084
      1836.742        1431.227
 -15109845.669 9 -11760322.63747  22562558.406    22562559.7434   22562567.0254
      1165.620         908.275
   7098795.030 9   5531286.05646  22681808.622    22681811.1744   22681818.9494
     -2135.895       -1664.334
 -23276746.413 9 -18110908.23848  19676364.807    19676366.7504   19676373.8834
      2572.989        2004.926
 97  4 28 17  3 29.9960000  0  6 27  2 26 15 19  7                  -0.003286259
  -6197696.504 9  -4817035.40948  19566441.224    19566442.9834   19566449.3624
      -508.262        -396.048
  -9935761.160 9  -7725081.63748  20057846.731    20057848.3244   20057854.9964
       930.346         724.945
 -18150322.155 9 -14125721.38248  21695360.315    21695362.6134   21695369.1924
      1818.805        1417.251
 -15144552.052 9 -11787366.54947  22555954.260    22555955.4134   22555962.5234
      1146.622         893.472
   7162953.345 9   5581279.47646  22694017.978    22694020.1384   22694028.0194
     -2142.872       -1669.770
 -23353713.405 9 -18170882.50548  19661718.606    19661720.3934   19661727.5294
      2556.671        1992.211
 97  4 28 17  3 59.9960000  0  6 27  2 26 15 19  7                  -0.003305279
  -6182227.327 9  -4804981.52548  19569384.936    19569386.7184   19569393.0874
      -525.062        -409.139
  -9963607.220 9  -7746779.87048  20052547.990    20052549.4294   20052556.0664
       924.088         720.069
 -18204619.615 9 -14168031.09448  21685027.901    21685030.1524   21685036.7374
      1799.202        1401.976
 -15178676.734 9 -11813957.20147  22549460.615    22549461.6644   22549468.8214
      1126.407         877.720
   7227332.106 9   5631444.66246  22706268.791    22706271.1274   22706279.0704
     -2151.078       -1676.165
 -23430173.946 9 -18230462.13648  19647168.531    19647170.4404   19647177.5544
      2538.691        1978.201
 97  4 28 17  4 29.9960000  0  6 27  2 26 15 19  7                  -0.003324274
  -6166265.651 9  -4792543.88048  19572422.392    19572424.1714   19572430.5314
      -538.400        -419.532
  -9991288.684 9  -7768349.85148  20047280.362    20047281.8344   20047288.4374
       921.971         718.419
 -18258357.646 9 -14209904.88648  21674801.937    21674804.1914   21674810.7664
      1784.132        1390.233
 -15212215.312 9 -11840091.14747  22543078.388    22543079.3854   22543086.7094
      1110.185         865.079
   7291930.950 9   5681781.35246  22718561.307    22718563.9414   22718571.9694
     -2154.960       -1679.190
 -23506121.859 9 -18289642.31748  19632716.054    19632718.0564   19632725.1414
      2525.401        1967.845
 97  4 28 17  4 59.9960000  0  6 27  2 26 15 19  7                  -0.003343282
  -6149859.980 9  -4779760.26248  19575544.323    19575546.0954   19575552.4504
      -554.248        -431.882
 -10018866.673 9  -7789839.20148  20042032.326    20042033.8784   20042040.5064
       917.630         715.036
 -18311601.376 9 -14251393.51648  21664670.017    21664672.2634   21664678.8414
      1766.351        1376.377
 -15245221.716 9 -11865810.42547  22536797.424    22536798.4794   22536805.7114
      1091.231         850.310
   7356696.480 9   5732247.94346  22730886.303    22730888.4454   22730896.5424
     -2161.841       -1684.551
 -23581642.095 9 -18348489.23748  19618345.113    19618347.0484   19618354.1034
      2510.361        1956.125
 97  4 28 17  5 29.9960000  0  6 27  2 26 15 19  7                  -0.003362270
  -6132976.269 9  -4766604.14048  19578757.298    19578758.9584   19578765.3684
      -570.092        -444.228
 -10046313.041 9  -7811225.98748  20036809.569    20036811.0284   20036817.6414
       913.129         711.529
 -18364306.226 9 -14292462.23348  21654640.845    21654642.8674   21654649.4564
      1748.469        1362.443
 -15277656.354 9 -11891084.17547  22530624.566    22530626.2694   22530633.5694
      1072.276         835.540
   7421675.652 9   5782880.96846  22743251.437    22743253.6344   22743261.7544
     -2168.900       -1690.052
 -23656715.179 9 -18406987.73348  19604059.157    19604061.0904   19604068.1274
      2495.672        1944.679
 97  4 28 17  5 59.9960000  0  6 27  2 26 15 19  7                  -0.003381233
  -6115614.230 9  -4753075.29848  19582061.172    19582062.8444   19582069.2934
      -586.105        -456.705
 -10073612.705 9  -7832498.45748  20031614.727    20031616.1214   20031622.7134
       907.995         707.529
 -18416462.598 9 -14333103.56648  21644715.711    21644717.8034   21644724.4014
      1729.983        1348.039
 -15309516.632 9 -11915910.34947  22524561.399    22524563.3854   22524570.7564
      1052.979         820.503
   7486869.395 9   5833681.22646  22755657.614    22755659.6644   22755667.7724
     -2176.122       -1695.679
 -23731342.394 9 -18465138.80148  19589858.153    19589859.9924   19589867.0574
      2480.558        1932.902
 97  4 28 17  6 29.9960000  0  6 27  2 26 15 19  7                  -0.003400163
  -6097772.257 9  -4739172.47648  19585456.353    19585458.0604   19585464.5164
      -601.848        -468.972
 -10100745.546 9  -7853640.93348  20026451.497    20026452.9304   20026459.5084
       902.225         703.032
 -18468065.214 9 -14373313.40448  21634896.126    21634898.1904   21634904.6724
      1711.611        1333.723
 -15340794.560 9 -11940282.74647  22518609.573    22518611.4564   22518618.7574
      1033.608         805.409
   7552287.208 9   5884656.06246  22768106.443    22768108.2964   22768116.2594
     -2183.539       -1701.459
 -23805503.434 9 -18522926.60948  19575745.697    19575747.6174   19575754.6664
      2464.988        1920.770
 97  4 28 17  6 59.9960000  0  6 27  2 26 15 19  7                  -0.003419107
  -6079510.640 9  -4724942.66048  19588931.431    19588933.1554   19588939.5834
      -618.577        -482.008
 -10127742.511 9  -7874677.52848  20021314.203    20021315.5544   20021322.1584
       894.788         697.237
 -18519155.098 9 -14413123.70548  21625174.047    21625176.1634   21625182.6004
      1691.695        1318.204
 -15371535.190 9 -11964236.46647  22512760.235    22512761.6954   22512768.9864
      1012.897         789.270
   7617877.644 9   5935765.43646  22780587.752    22780589.8234   22780597.6294
     -2191.784       -1707.884
 -23879237.903 9 -18580382.02148  19561714.586    19561716.3714   19561723.4184
      2447.632        1907.246
 97  4 28 17  7 29.9960000  0  6 27  2 26 15 19  7                  -0.003438055
  -6060787.186 9  -4710352.98048  19592494.488    19592496.1344   19592502.5674
      -630.941        -491.642
 -10154560.144 9  -7895574.39448  20016210.940    20016212.3384   20016218.9624
       891.792         694.903
 -18569711.171 9 -14452518.06148  21615553.423    21615555.7024   21615562.1404
      1677.613        1307.231
 -15401702.716 9 -11987743.63847  22507019.633    22507020.9224   22507028.3104
       996.980         776.868
   7683660.424 9   5987024.67946  22793106.056    22793107.8874   22793115.6914
     -2194.860       -1710.281
 -23952484.112 9 -18637456.97948  19547776.244    19547778.0804   19547785.1134
      2434.177        1896.761
 97  4 28 17  7 59.9960000  0  6 27  2 26 15 19  7                  -0.003457040
  -6041614.518 9  -4695413.24748  19596142.913    19596144.5524   19596151.0344
      -647.592        -504.617
 -10181208.430 9  -7916339.28748  20011139.938    20011141.3584   20011148.0034
       884.464         689.193
 -18619770.610 9 -14491525.41548  21606027.408    21606029.7374   21606036.1884
      1659.389        1293.030
 -15431313.533 9 -12010817.00947  22501384.972    22501386.2264   22501393.6374
       976.618         761.001
   7749607.494 9   6038411.94046  22805654.999    22805657.2094   22805665.0874
     -2202.123       -1715.940
 -24025243.942 9 -18694152.93348  19533930.494    19533932.3094   19533939.3634
      2416.099        1882.675
 97  4 28 17  8 29.9960000  0  6 27  2 26 15 19  7                  -0.003476026
  -6021937.541 9  -4680080.55448  19599887.252    19599888.9424   19599895.4504
      -663.126        -516.721
 -10207636.664 9  -7936932.72548  20006110.991    20006112.2654   20006118.8934
       878.594         684.619
 -18669288.387 9 -14530110.69848  21596604.512    21596606.7734   21596613.3054
      1642.854        1280.146
 -15460311.874 9 -12033413.12547  22495867.220    22495867.9944   22495875.4824
       957.759         746.306
   7815779.465 9   6089974.43246  22818247.197    22818249.3504   22818257.2754
     -2207.998       -1720.518
 -24097470.286 9 -18750433.19548  19520186.249    19520188.1384   19520195.1564
      2400.352        1870.404
 97  4 28 17  8 59.9960000  0  6 27  2 26 15 19  7                  -0.003495069
  -6001831.992 9  -4664413.90748  19603713.179    19603714.9154   19603721.4144
      -677.725        -528.097
 -10233933.799 9  -7957424.00348  20001106.814    20001108.1174   20001114.7284
       874.273         681.252
 -18718345.519 9 -14568337.05048  21587269.386    21587271.5214   21587278.0064
      1627.107        1267.876
 -15488782.965 9 -12055598.40147  22490449.012    22490450.0364   22490457.6274
       939.945         732.425
   7882078.491 9   6141635.95846  22830863.863    22830865.6864   22830873.5674
     -2212.367       -1723.922
 -24169275.868 9 -18806385.58348  19506522.174    19506524.0194   19506531.0074
      2386.234        1859.403
 97  4 28 17  9 29.9960000  0  6 27  2 26 15 19  7                  -0.003514101
  -5981214.037 9  -4648347.98548  19607636.695    19607638.4044   19607644.8844
      -696.213        -542.504
 -10260029.745 9  -7977758.50548  19996140.775    19996142.2174   19996148.8464
       865.916         674.740
 -18766840.971 9 -14606125.71848  21578041.080    21578043.1804   21578049.6214
      1606.153        1251.548
 -15516640.966 9 -12077305.93347  22485147.782    22485148.8974   22485156.4254
       917.743         715.124
   7948588.323 9   6193461.74146  22843519.578    22843522.1334   22843530.1364
     -2221.208       -1730.811
 -24240586.490 9 -18861952.28748  19492952.247    19492954.0444   19492961.0374
      2368.324        1845.447
 97  4 28 17  9 59.9960000  0  6 27  2 26 15 19  7                  -0.003533096
  -5960099.154 9  -4631894.84548  19611654.694    19611656.4594   19611662.9154
      -712.261        -555.009
 -10285925.941 9  -7997937.36548  19991213.001    19991214.3554   19991220.9954
       859.756         669.940
 -18814743.385 9 -14643452.28148  21568925.180    21568927.5914   21568934.0894
      1586.551        1236.274
 -15543888.259 9 -12098537.59147  22479962.939    22479964.0214   22479971.4214
       897.971         699.718
   8015313.287 9   6245455.14546  22856217.169    22856219.4414   22856227.5904
     -2227.929       -1736.049
 -24311422.795 9 -18917149.39848  19479472.403    19479474.3474   19479481.3394
      2353.299        1833.739
 97  4 28 17 10 29.9960000  0  6 27  2 26 15 19  7                  -0.003552050
  -5938491.955 9  -4615058.08448  19615766.614    19615768.1644   19615774.6634
      -728.821        -567.912
 -10311628.429 9  -8017965.28148  19986321.841    19986323.3154   19986329.9774
       853.217         664.844
 -18862051.065 9 -14680315.40748  21559922.818    21559925.2174   21559931.7734
      1566.599        1220.726
 -15570536.550 9 -12119302.51447  22474892.052    22474893.0884   22474900.3954
       877.936         684.106
   8082247.571 9   6297611.67346  22868954.698    22868956.6224   22868964.8514
     -2234.879       -1741.464
 -24381809.152 9 -18971995.89748  19466078.335    19466080.2584   19466087.2444
      2338.383        1822.117
 97  4 28 17 10 59.9960000  0  6 27  2 26 15 19  7                  -0.003570965
  -5916395.462 9  -4597840.05748  19619971.201    19619972.9574   19619979.5104
      -744.669        -580.262
 -10337142.591 9  -8037846.45248  19981466.600    19981468.1624   19981474.8094
       847.452         660.352
 -18908762.565 9 -14716713.99348  21551034.010    21551036.3434   21551042.8904
      1547.305        1205.692
 -15596586.719 9 -12139601.36247  22469934.499    22469936.0084   22469943.2154
       858.393         668.878
   8149386.865 9   6349927.94146  22881730.903    22881732.9154   22881741.1744
     -2241.480       -1746.608
 -24451737.249 9 -19026485.31648  19452771.350    19452773.4024   19452780.3324
      2322.931        1810.076
 97  4 28 17 11 29.9960000  0  6 27  2 26 15 19  7                  -0.003589836
  -5893796.946 9  -4580230.84348  19624271.673    19624273.3474   19624279.8704
      -760.366        -592.493
 -10362459.332 9  -8057573.78748  19976649.075    19976650.5794   19976657.2014
       841.806         655.953
 -18954879.525 9 -14752649.29948  21542258.280    21542260.5984   21542267.1304
      1528.900        1191.351
 -15622025.419 9 -12159423.73447  22465093.864    22465095.2414   22465102.3924
       839.085         653.832
   8216759.894 9   6402426.30446  22894551.617    22894553.6274   22894562.0004
     -2248.492       -1752.072
 -24521163.577 9 -19080583.74348  19439559.957    19439562.0314   19439568.9474
      2306.982        1797.648
 97  4 28 17 11 59.9960000  0  6 27  2 26 15 19  7                  -0.003608683
  -5870695.387 9  -4562229.64948  19628667.776    19628669.4944   19628675.9944
      -778.230        -606.413
 -10387582.731 9  -8077150.46348  19971868.135    19971869.7654   19971876.3684
       834.455         650.225
 -19000438.557 9 -14788149.85248  21533588.736    21533591.0024   21533597.5564
      1509.836        1176.495
 -15646861.383 9 -12178776.43847  22460367.756    22460369.0374   22460376.2824
       818.051         637.442
   8284374.828 9   6455113.18946  22907418.062    22907420.3464   22907428.7014
     -2257.597       -1759.166
 -24590080.264 9 -19134285.04748  19426445.613    19426447.6024   19426454.5094
      2288.837        1783.509
 97  4 28 17 12 29.9960000  0  6 27  2 26 15 19  7                  -0.003627526
  -5847109.888 9  -4543851.35948  19633156.027    19633157.7264   19633164.2054
      -795.259        -619.682
 -10412529.675 9  -8096589.64548  19967120.818    19967122.5074   19967129.1034
       827.556         644.849
 -19045475.734 9 -14823243.76648  21525018.346    21525020.7224   21525027.2384
      1491.336        1162.080
 -15671105.821 9 -12197668.22047  22455754.002    22455755.4734   22455762.7404
       797.044         621.073
   8352218.106 8   6507978.02546  22920328.051    22920330.5724   22920338.9744
     -2266.286       -1765.937
 -24658495.751 9 -19187595.80648  19413426.485    19413428.5544   19413435.4544
      2270.913        1769.543
 97  4 28 17 12 59.9960000  0  6 27  2 26 15 19  7                  -0.003646321
  -5822983.110 9  -4525051.28748  19637747.194    19637748.9324   19637755.4124
      -813.129        -633.607
 -10437239.883 9  -8115844.35148  19962418.629    19962420.3174   19962426.9244
       819.774         638.785
 -19089922.081 9 -14857877.28948  21516560.500    21516562.9164   21516569.3884
      1471.765        1146.830
 -15694689.781 9 -12216045.33947  22451266.153    22451267.5844   22451274.8514
       775.224         604.071
   8420348.375 8   6561066.50146  22933292.880    22933295.2484   22933303.8764
     -2275.516       -1773.129
 -24726334.161 9 -19240456.89448  19400517.223    19400519.3094   19400526.2164
      2251.743        1754.605
 97  4 28 17 13 29.9960000  0  6 27  2 26 15 19  7                  -0.003665089
  -5798352.527 9  -4505858.64548  19642434.291    19642435.9534   19642442.4744
      -828.525        -645.604
 -10461743.372 9  -8134937.98048  19957755.797    19957757.4704   19957764.0704
       814.117         634.377
 -19133803.996 9 -14892070.99448  21508209.967    21508212.4964   21508218.9694
      1453.982        1132.973
 -15717645.629 9 -12233933.03647  22446897.936    22446899.2314   22446906.4654
       755.536         588.729
   8488723.848 9   6614346.00446  22946304.472    22946306.6464   22946315.3014
     -2282.346       -1778.451
 -24793632.344 9 -19292897.02948  19387710.711    19387712.9004   19387719.7904
      2235.295        1741.788
 97  4 28 17 13 59.9960000  0  6 27  2 26 15 19  7                  -0.003683840
  -5773247.911 9  -4486296.62648  19647211.360    19647213.2044   19647219.7484
      -848.392        -661.085
 -10486063.570 9  -8153888.78548  19953127.751    19953129.4494   19953136.0714
       803.971         626.471
 -19177132.539 9 -14925833.50248  21499964.938    21499967.3404   21499973.8274
      1431.190        1115.213
 -15739996.226 9 -12251349.09747  22442644.614    22442646.0284   22442653.2504
       731.240         569.797
   8557305.004 9   6667785.77746  22959355.348    22959357.3014   22959365.9094
     -2292.712       -1786.529
 -24860430.802 9 -19344947.76148  19374999.455    19375001.5864   19375008.4704
      2214.756        1725.784
 97  4 28 17 14 29.9960000  0  6 27  2 26 15 19  7                  -0.003702488
  -5747540.894 9  -4466265.20448  19652103.214    19652105.1484   19652111.6414
      -864.363        -673.530
 -10510074.399 9  -8172598.53048  19948558.655    19948560.3464   19948566.9374
       798.058         621.863
 -19219758.740 9 -14959048.74048  21491853.654    21491855.8894   21491862.3184
      1411.793        1100.098
 -15761607.841 9 -12268189.32547  22438532.309    22438533.4974   22438540.8224
       710.894         553.943
   8626193.859 9   6721465.36346  22972464.115    22972466.5194   22972475.0374
     -2298.687       -1791.185
 -24926607.842 9 -19396514.27948  19362406.341    19362408.4484   19362415.3414
      2198.239        1712.914
 97  4 28 17 14 59.9960000  0  6 27  2 26 15 19  7                  -0.003721134
  -5721378.232 9  -4445878.73648  19657081.725    19657083.7974   19657090.2354
      -876.878        -683.282
 -10533945.402 9  -8191199.31448  19944016.168    19944017.8844   19944024.4184
       796.237         620.444
 -19261837.678 9 -14991837.52948  21483846.299    21483848.5594   21483854.9484
      1396.485        1088.170
 -15782651.783 9 -12284587.21947  22434528.036    22434528.9874   22434536.3604
       694.916         541.493
   8695223.234 8   6775254.39746  22985600.370    22985602.5544   22985610.9054
     -2300.521       -1792.614
 -24992315.262 9 -19447714.85648  19349902.580    19349904.7314   19349911.6384
      2185.261        1702.801
 97  4 28 17 15 29.9960000  0  6 27  2 26 15 19  7                  -0.003739811
  -5694799.685 9  -4425168.20148  19662139.510    19662141.5214   19662147.9874
      -894.076        -696.683
 -10557719.973 9  -8209724.95048  19939492.000    19939493.7234   19939500.2474
       789.723         615.369
 -19303418.302 9 -15024238.01648  21475933.786    21475935.9884   21475942.3784
      1376.786        1072.820
 -15803176.269 9 -12300580.34647  22430622.264    22430623.3444   22430630.6724
       674.383         525.493
   8764355.997 8   6829123.98946  22998755.898    22998758.0414   22998766.5804
     -2307.359       -1797.942
 -25057591.671 9 -19498579.57948  19337480.892    19337483.0504   19337489.9564
      2167.586        1689.028
 97  4 28 17 15 59.9960000  0  6 27  2 26 15 19  7                  -0.003758509
  -5667771.839 9  -4404107.56248  19667282.796    19667284.7394   19667291.2374
      -906.030        -705.997
 -10581367.366 9  -8228151.49848  19934992.205    19934993.7844   19935000.2954
       788.475         614.396
 -19344487.523 9 -15056240.02248  21468118.731    21468120.8034   21468127.1794
      1362.996        1062.075
 -15823159.173 9 -12316151.44847  22426819.786    22426820.7454   22426828.0624
       659.572         513.952
   8833619.399 9   6883095.37846  23011936.599    23011938.5524   23011946.9224
     -2308.383       -1798.740
 -25122417.065 9 -19549092.86548  19325145.107    19325147.2044   19325154.0814
      2155.918        1679.936
 97  4 28 17 16 29.9960000  0  6 27  2 26 15 19  7                  -0.003777290
  -5640381.874 9  -4382764.75548  19672494.968    19672496.8104   19672503.4004
      -920.666        -717.402
 -10604968.882 9  -8246542.28748  19930500.955    19930502.5904   19930509.0864
       784.109         610.994
 -19385137.922 9 -15087915.66848  21460383.302    21460385.3164   21460391.6914
      1346.390        1049.135
 -15842696.885 9 -12331375.65746  22423101.776    22423102.8074   22423110.1974
       642.168         500.391
   8902930.191 8   6937103.73046  23025125.687    23025128.0744   23025136.2764
     -2313.147       -1802.452
 -25186887.306 9 -19599329.40648  19312876.840    19312878.9004   19312885.7804
      2141.289        1668.537
 97  4 28 17 16 59.9960000  0  6 27  2 26 15 19  7                  -0.003796027
  -5612438.952 9  -4360991.07248  19677812.481    19677814.1834   19677820.7764
      -939.783        -732.298
 -10628308.227 9  -8264728.79148  19926059.687    19926061.2484   19926067.7744
       774.159         603.241
 -19425174.133 9 -15119112.72048  21452764.563    21452766.6574   21452773.0904
      1325.012        1032.477
 -15861592.818 9 -12346099.78547  22419506.359    22419507.0084   22419514.3974
       619.753         482.924
   8972507.661 9   6991319.84046  23038366.154    23038368.2944   23038376.5774
     -2322.980       -1810.114
 -25250799.931 9 -19649131.44348  19300714.591    19300716.7314   19300723.6544
      2121.963        1653.478
 97  4 28 17 17 29.9960000  0  6 27  2 26 15 19  7                  -0.003814756
  -5584015.857 9  -4338843.23248  19683221.109    19683222.9504   19683229.5504
      -956.243        -745.124
 -10651428.882 9  -8282744.88248  19921659.983    19921661.5344   19921668.0614
       766.083         596.948
 -19464652.942 9 -15149875.43348  21445251.949    21445254.0734   21445260.5014
      1305.799        1017.506
 -15879892.484 9 -12360359.27146  22416023.597    22416024.6694   22416032.1604
       599.057         466.798
   9042292.967 8   7045697.89546  23051645.569    23051648.1304   23051656.5154
     -2330.436       -1815.924
 -25314225.896 9 -19698554.26348  19288645.037    19288647.1714   19288654.1264
      2105.303        1640.496
 97  4 28 17 17 59.9960000  0  6 27  2 26 15 19  7                  -0.003833505
  -5555175.067 9  -4316369.91848  19688709.320    19688711.2134   19688717.7814
      -966.021        -752.744
 -10674382.932 9  -8300631.15948  19917292.050    19917293.5404   19917300.0364
       764.719         595.885
 -19503622.846 9 -15180241.60348  21437836.268    21437838.3354   21437844.7474
      1292.476        1007.124
 -15897648.197 9 -12374194.90646  22412644.077    22412645.8744   22412653.2864
       585.012         455.853
   9112225.431 8   7100190.64845  23064953.419    23064955.9464   23064964.3354
     -2331.157       -1816.486
 -25377231.511 9 -19747649.53848  19276655.589    19276657.6134   19276664.5564
      2095.320        1632.717
 97  4 28 17 18 29.9960000  0  6 27  2 26 15 19  7                  -0.003852249
  -5525910.243 9  -4293566.18348  19694278.092    19694280.1594   19694286.7254
      -985.249        -767.726
 -10697169.139 9  -8318386.64348  19912955.951    19912957.4384   19912963.9734
       754.090         587.603
 -19542048.771 9 -15210183.88948  21430524.055    21430526.1644   21430532.5484
      1268.941         988.785
 -15914840.713 9 -12387591.67346  22409372.800    22409374.2754   22409381.5364
       560.788         436.978
   9182312.765 8   7154804.03246  23078291.583    23078293.1324   23078301.7964
     -2341.663       -1824.672
 -25439790.010 9 -19796396.40948  19264751.153    19264753.1344   19264760.0524
      2074.776        1616.709
 97  4 28 17 18 59.9960000  0  6 27  2 26 15 19  7                  -0.003870898
  -5496078.677 9  -4270320.82948  19699955.019    19699956.9134   19699963.5254
     -1002.681        -781.310
 -10719649.508 9  -8335903.81648  19908678.191    19908679.5724   19908686.1224
       745.803         581.145
 -19579781.753 9 -15239586.22148  21423343.551    21423345.8354   21423352.2544
      1247.685         972.222
 -15931314.972 9 -12400428.77547  22406237.668    22406239.3454   22406246.5644
       538.468         419.585
   9252698.900 8   7209650.28246  23091685.049    23091687.1184   23091695.9044
     -2349.593       -1830.852
 -25501741.867 9 -19844670.57448  19252962.053    19252964.0774   19252970.9634
      2056.388        1602.380
 97  4 28 17 19 29.9960000  0  6 27  2 26 15 19  7                  -0.003889524
  -5465788.946 9  -4246718.46948  19705718.778    19705720.8564   19705727.5134
     -1019.619        -794.508
 -10741966.616 9  -8353293.77348  19904431.381    19904432.7774   19904439.3164
       739.109         575.929
 -19616950.268 9 -15268548.71248  21416270.618    21416272.8864   21416279.3424
      1227.345         956.373
 -15947190.425 9 -12412799.26747  22403216.673    22403218.3464   22403225.5124
       516.983         402.844
   9323251.394 8   7264626.07745  23105110.150    23105112.9344   23105121.7864
     -2356.833       -1836.493
 -25563205.676 9 -19892564.43948  19241265.924    19241267.8544   19241274.7434
      2038.254        1588.250
 97  4 28 17 19 59.9960000  0  6 27  2 26 15 19  7                  -0.003908125
  -5435031.732 9  -4222751.83948  19711571.956    19711573.7944   19711580.4644
     -1033.736        -805.509
 -10764134.064 9  -8370567.11248  19900213.088    19900214.4854   19900221.0114
       735.731         573.297
 -19653553.244 9 -15297070.52748  21409305.343    21409307.6054   21409314.0554
      1210.013         942.867
 -15962466.762 9 -12424702.92247  22400310.171    22400311.3344   22400318.5724
       498.491         388.435
   9393971.087 8   7319732.23646  23118567.869    23118570.5854   23118579.2214
     -2360.702       -1839.508
 -25624167.784 9 -19940067.37348  19229665.191    19229667.1214   19229674.0174
      2022.936        1576.314
 97  4 28 17 20 29.9960000  0  6 27  2 26 15 19  7                  -0.003926696
  -5403786.741 9  -4198405.11848  19717517.774    19717519.5634   19717526.2184
     -1047.996        -816.620
 -10786128.791 9  -8387705.86348  19896027.606    19896029.0494   19896035.5394
       731.851         570.274
 -19689579.578 9 -15325143.01448  21402450.089    21402452.0594   21402458.4654
      1193.207         929.772
 -15977119.171 9 -12436120.38646  22397521.428    22397523.1474   22397530.4044
       479.673         373.771
   9464877.911 8   7374984.19046  23132060.895    23132063.7004   23132072.5484
     -2365.183       -1843.000
 -25684599.363 9 -19987156.90548  19218165.425    19218167.3834   19218174.3134
      2007.294        1564.125
 97  4 28 17 20 59.9960000  0  6 27  2 26 15 19  7                  -0.003945280
  -5372096.852 9  -4173711.72948  19723548.103    19723549.9914   19723556.6114
     -1063.591        -828.772
 -10807989.936 9  -8404740.52548  19891867.534    19891869.0244   19891875.5034
       726.715         566.271
 -19725101.203 9 -15352822.21648  21395690.446    21395692.5384   21395698.9274
      1175.984         916.351
 -15991195.798 9 -12447089.20046  22394842.460    22394844.4474   22394851.7904
       459.950         358.403
   9535933.377 8   7430352.00945  23145582.942    23145585.2914   23145594.1794
     -2370.706       -1847.303
 -25744558.348 9 -20033878.17848  19206755.658    19206757.5764   19206764.5374
      1991.236        1551.612
 97  4 28 17 21 29.9960000  0  6 27  2 26 15 19  7                  -0.003963849
  -5339923.204 9  -4148641.38148  19729670.643    19729672.4794   19729679.0454
     -1079.572        -841.225
 -10829674.988 9  -8421637.97148  19887740.920    19887742.4984   19887748.9674
       720.539         561.459
 -19760078.681 9 -15380077.40148  21389034.237    21389036.5684   21389042.9594
      1157.432         901.895
 -16004660.274 9 -12457581.00846  22392280.686    22392282.2374   22392289.6244
       439.386         342.379
   9607171.799 8   7485862.27645  23159139.823    23159141.5754   23159150.6904
     -2376.800       -1852.052
 -25804018.880 9 -20080211.04948  19195440.725    19195442.6294   19195449.5744
      1974.562        1538.620
 97  4 28 17 21 59.9960000  0  6 27  2 26 15 19  7                  -0.003982419
  -5307302.668 9  -4123222.80948  19735877.993    19735879.9484   19735886.5344
     -1094.467        -852.831
 -10851199.977 9  -8438410.69448  19883644.804    19883646.4204   19883652.8904
       715.030         557.166
 -19794530.185 9 -15406922.73548  21382478.288    21382480.6334   21382487.1004
      1139.942         888.266
 -16017541.257 9 -12467618.16247  22389829.475    22389831.0594   22389838.4714
       419.990         327.265
   9678565.846 8   7541493.86845  23172724.867    23172727.4184   23172736.6554
     -2382.164       -1856.232
 -25863020.574 9 -20126186.38348  19184212.980    19184214.9944   19184221.9284
      1959.372        1526.783
 97  4 28 17 22 29.9960000  0  6 27  2 26 15 19  7                  -0.004000965
  -5274191.556 9  -4097421.97148  19742178.681    19742180.7864   19742187.4174
     -1112.078        -866.554
 -10872515.697 9  -8455020.34948  19879588.563    19879590.1934   19879596.6504
       706.964         550.881
 -19828416.909 9 -15433327.98448  21376029.971    21376032.2704   21376038.7374
      1119.992         872.721
 -16029802.968 9 -12477172.76247  22387496.123    22387497.7584   22387505.2144
       398.389         310.433
   9750158.726 8   7597280.44646  23186348.576    23186351.2784   23186360.1584
     -2389.844       -1862.216
 -25921521.852 9 -20171771.78148  19173080.628    19173082.5894   19173089.5184
      1941.577        1512.917
 97  4 28 17 22 59.9950000  0  6 27  2 26 15 19  7                  -0.004019519
  -5240643.424 9  -4071280.60048  19748562.714    19748564.8444   19748571.4974
     -1123.716        -875.623
 -10893682.177 9  -8471513.71648  19875560.750    19875562.3384   19875568.8334
       705.023         549.369
 -19861785.964 9 -15459329.85148  21369680.032    21369682.3614   21369688.8184
      1105.533         861.454
 -16041509.491 9 -12486294.74946  22385268.573    22385270.0954   22385277.4484
       382.958         298.409
   9821888.691 8   7653173.72645  23199998.124    23200001.0034   23200010.1004
     -2391.211       -1863.281
 -25979577.190 9 -20217009.69448  19162033.002    19162034.9914   19162041.9304
      1929.747        1503.699
 97  4 28 17 23 29.9950000  0  6 27  2 26 15 19  7                  -0.004038083
  -5206661.096 9  -4044800.88848  19755029.463    19755031.5044   19755038.1854
     -1140.683        -888.844
 -10914703.375 9  -8487893.87248  19871560.462    19871562.1084   19871568.5994
       697.450         543.467
 -19894630.917 9 -15484923.32648  21363429.927    21363432.1804   21363438.6694
      1085.405         845.770
 -16052670.907 9 -12494991.95946  22383144.478    22383146.0764   22383153.5114
       362.196         282.231
   9893737.520 8   7709159.70546  23213670.930    23213673.7874   23213682.4514
     -2397.654       -1868.302
 -26037194.218 9 -20261906.06248  19151068.936    19151070.8564   19151077.7804
      1912.258        1490.071
 97  4 28 17 23 59.9950000  0  6 27  2 26 15 19  7                  -0.004056650
  -5172215.962 9  -4017960.54948  19761584.224    19761586.1914   19761592.9064
     -1154.789        -899.836
 -10935539.096 9  -8504129.50548  19867595.635    19867597.2274   19867603.7064
       692.444         539.567
 -19926931.567 9 -15510092.67348  21357283.174    21357285.5594   21357292.0834
      1068.837         832.860
 -16063257.359 9 -12503241.16246  22381130.375    22381131.5384   22381138.9974
       344.345         268.321
   9965732.703 8   7765259.64745  23227372.384    23227374.0864   23227382.9284
     -2401.279       -1871.126
 -26094326.766 9 -20306424.91848  19140196.898    19140198.9054   19140205.8204
      1897.277        1478.398
 97  4 28 17 24 29.9950000  0  6 27  2 26 15 19  7                  -0.004075202
  -5137260.894 9  -3990722.86048  19768235.918    19768237.9034   19768244.6314
     -1172.747        -913.829
 -10956131.324 9  -8520175.40148  19863677.053    19863678.6584   19863685.1424
       683.214         532.375
 -19958647.696 9 -15534806.55148  21351247.652    21351250.1954   21351256.7004
      1048.287         816.847
 -16073220.230 9 -12511004.46946  22379233.936    22379235.6664   22379243.1754
       322.559         251.345
  10037917.468 8   7821507.39345  23241108.437    23241110.6274   23241118.9384
     -2408.412       -1876.685
 -26150919.661 9 -20350523.26948  19129427.510    19129429.6374   19129436.5694
      1878.357        1463.655
 97  4 28 17 24 59.9950000  0  6 27  2 26 15 19  7                  -0.004093739
  -5101811.253 9  -3963099.79448  19774981.888    19774983.7824   19774990.4644
     -1189.508        -926.889
 -10976494.684 9  -8536042.96648  19859802.012    19859803.6434   19859810.1244
       675.278         526.191
 -19989792.597 9 -15559075.31648  21345320.990    21345323.5484   21345330.0714
      1029.010         801.826
 -16082568.447 9 -12518288.81447  22377454.824    22377456.7974   22377464.2584
       301.575         234.994
  10110280.085 8   7877893.69245  23254878.618    23254880.7294   23254889.2474
     -2414.776       -1881.644
 -26206994.088 9 -20394217.62048  19118756.967    19118759.0264   19118765.9684
      1860.885        1450.040
 97  4 28 17 25 29.9950000  0  7 27  2 26 15  4 19  7               -0.004112250
  -5065865.021 9  -3935089.76648  19781822.594    19781824.1854   19781830.8294
     -1205.703        -939.509
 -10996615.993 9  -8551721.91148  19855973.036    19855974.6854   19855981.1584
       667.362         520.022
 -20020357.705 9 -15582892.29148  21339504.815    21339507.1684   21339513.7324
      1009.840         786.888
 -16091282.579 9 -12525079.06247  22375797.240    22375798.6144   22375806.0454
       280.428         218.515
  -2689038.78818  -2077333.89455  23866409.756    23866412.0835   23866420.6865
      4342.271        3383.588
  10182838.181 8   7934432.38945  23268686.126    23268688.1644   23268696.6134
     -2421.595       -1886.957
 -26262537.764 9 -20437498.39148  19108187.397    19108189.4174   19108196.3824
      1842.972        1436.082
 97  4 28 17 25 59.9950000  0  7 27  2 26 15  4 19  7               -0.004130797
  -5029527.428 9  -3906774.78648  19788737.454    19788739.0024   19788745.6954
     -1221.541        -951.850
 -11016598.530 9  -8567292.72048  19852170.514    19852172.1574   19852178.6224
       660.365         514.570
 -20050444.652 9 -15606336.66848  21333779.359    21333781.8164   21333788.3704
       991.177         772.346
 -16099450.445 9 -12531443.64147  22374242.932    22374244.3924   22374251.8004
       259.443         202.163
  -2819411.035 9  -2178922.62446  23841600.791    23841603.1674   23841611.7184
      4344.600        3385.403
  10255525.038 7   7991071.34345  23282516.153    23282519.6924   23282528.5294
     -2428.806       -1892.576
 -26317633.435 9 -20480430.07048  19097702.970    19097705.0524   19097711.9734
      1825.546        1422.503
 97  4 28 17 26 29.9950000  0  7 27  2 26 15  4 19  7               -0.004149255
  -4992636.068 9  -3878028.29848  19795757.683    19795759.2164   19795765.9394
     -1237.463        -964.257
 -11036306.581 9  -8582649.65248  19848420.124    19848421.8424   19848428.2934
       654.187         509.756
 -20079883.746 9 -15629276.23948  21328177.294    21328179.7884   21328186.2814
       971.961         757.372
 -16106911.018 9 -12537257.09946  22372822.873    22372824.6984   22372832.1334
       238.492         185.838
  -2949773.045 9  -2280503.42546  23816793.294    23816796.0934   23816804.7194
      4346.829        3387.139
  10328506.457 8   8047939.77845  23296404.427    23296407.6154   23296416.7104
     -2436.020       -1898.197
 -26372128.799 9 -20522893.98348  19087332.920    19087334.9244   19087341.8054
      1808.043        1408.865
 97  4 28 17 26 59.9950000  0  7 27  2 26 15  4 19  7               -0.004167701
  -4955325.462 9  -3848955.12648  19802857.555    19802859.2094   19802865.9324
     -1248.210        -972.631
 -11055895.714 9  -8597913.91848  19844692.552    19844694.1874   19844700.6224
       653.354         509.107
 -20108801.572 9 -15651809.62848  21322674.504    21322676.9114   21322683.3884
       957.603         746.184
 -16113797.364 9 -12542623.09346  22371512.571    22371514.2774   22371521.7014
       222.317         173.234
  -3080272.684 9  -2382191.46746  23791960.087    23791962.9194   23791971.5674
      4355.062        3393.555
  10401654.013 8   8104937.75845  23310324.608    23310327.4114   23310336.0804
     -2438.370       -1900.029
 -26426160.271 9 -20564996.41848  19077051.066    19077053.0734   19077059.9124
      1795.812        1399.334
 97  4 28 17 27 29.9950000  0  7 27  2 26 15  4 19  7               -0.004186165
  -4917612.967 9  -3819568.79448  19810034.132    19810035.7024   19810042.3784
     -1264.114        -985.024
 -11075379.893 9  -8613096.39548  19840984.780    19840986.4774   19840992.8954
       647.685         504.690
 -20137204.473 9 -15673941.76648  21317269.732    21317271.9924   21317278.4544
       937.976         730.890
 -16120123.897 9 -12547552.87846  22370308.802    22370310.3734   22370317.8214
       201.505         157.017
  -3210945.678 8  -2484014.54845  23767093.520    23767096.5914   23767105.3574
      4358.590        3396.304
  10474941.240 8   8162044.62546  23324271.442    23324273.8274   23324282.5134
     -2445.207       -1905.356
 -26479741.447 9 -20606747.97348  19066854.788    19066856.9184   19066863.7274
      1778.415        1385.778
 97  4 28 17 27 59.9950000  0  7 27  2 26 15  4 19  7               -0.004204597
  -4879466.504 9  -3789844.31148  19817293.106    19817294.7654   19817301.4164
     -1276.910        -994.995
 -11094752.179 9  -8628191.68948  19837298.428    19837300.0704   19837306.4774
       645.857         503.265
 -20165069.239 9 -15695654.58148  21311967.244    21311969.4564   21311975.9654
       921.700         718.208
 -16125882.875 9 -12552040.42246  22369212.996    22369214.4464   22369221.9494
       184.576         143.825
  -3341781.987 8  -2585964.88945  23742196.713    23742199.4004   23742208.1944
      4365.917        3402.013
  10548366.295 8   8219258.78545  23338244.676    23338246.3484   23338255.2624
     -2447.392       -1907.059
 -26532862.672 9 -20648141.12248  19056746.253    19056748.2934   19056755.0824
      1765.142        1375.435
 97  4 28 17 28 29.9950000  0  7 27  2 26 15  4 19  7               -0.004223030
  -4840939.714 9  -3759823.46548  19824624.408    19824626.1914   19824632.8764
     -1293.433       -1007.870
 -11114056.470 9  -8643233.99548  19833624.934    19833626.6274   19833633.0004
       639.024         497.941
 -20192436.122 9 -15716979.44548  21306759.483    21306761.7554   21306768.2334
       900.881         701.985
 -16131133.171 9 -12556131.55846  22368213.533    22368215.3904   22368222.8094
       163.497         127.400
  -3472830.479 8  -2688080.58345  23717259.276    23717261.6424   23717270.5624
      4368.586        3404.093
  10621845.612 8   8276515.35045  23352227.156    23352229.2044   23352237.6794
     -2453.020       -1911.444
 -26585575.779 9 -20689216.25848  19046715.257    19046717.3414   19046724.1044
      1747.078        1361.359
 97  4 28 17 28 59.9950000  0  7 27  2 26 15  4 19  7               -0.004241417
  -4801932.389 9  -3729428.18048  19832047.272    19832049.0394   19832055.7324
     -1306.777       -1018.268
 -11133154.786 9  -8658115.80548  19829990.711    19829992.3454   19829998.7204
       634.369         494.314
 -20219194.462 9 -15737830.11648  21301667.177    21301669.7944   21301676.2914
       883.381         688.349
 -16135760.790 9 -12559737.50046  22367332.433    22367334.8444   22367342.1784
       145.320         113.236
  -3603966.936 8  -2790264.80546  23692305.251    23692307.1644   23692316.0524
      4373.953        3408.275
  10695477.430 8   8333890.70645  23366237.788    23366240.8464   23366249.8004
     -2455.327       -1913.242
 -26637761.121 9 -20729880.15048  19036784.663    19036786.8324   19036793.5764
      1732.122        1349.705
 97  4 28 17 29 29.9950000  0  7 27  2 26 15  4 19  7               -0.004259803
  -4762482.220 9  -3698687.81748  19839554.299    19839556.1794   19839562.8824
     -1323.839       -1031.563
 -11152072.519 9  -8672856.89548  19826390.740    19826392.4154   19826398.8014
       626.213         487.958
 -20245401.808 9 -15758251.44348  21296680.303    21296682.7544   21296689.2294
       863.211         672.632
 -16139811.774 9 -12562894.13246  22366561.697    22366563.8944   22366571.2964
       124.132          96.726
  -3735218.221 8  -2892538.49146  23667328.953    23667330.8784   23667339.6744
      4375.390        3409.395
  10769213.266 8   8391347.07446  23380269.892    23380272.3784   23380281.4704
     -2461.084       -1917.728
 -26689452.370 9 -20770159.04148  19026948.120    19026950.2924   19026957.0444
      1713.447        1335.154
 97  4 28 17 29 59.9950000  0  7 27  2 26 15  4 19  7               -0.004278168
  -4722528.546 9  -3667555.10948  19847157.194    19847159.1774   19847165.8594
     -1339.427       -1043.709
 -11170744.763 9  -8687406.69348  19822837.595    19822839.2054   19822845.5814
       618.815         482.194
 -20271020.238 9 -15778213.86748  21291805.336    21291807.7684   21291814.2364
       844.994         658.437
 -16143231.199 9 -12565558.62546  22365911.343    22365913.1914   22365920.6324
       104.017          81.052
  -3866519.212 8  -2994850.90846  23642343.390    23642345.2864   23642354.0284
      4378.079        3411.490
  10843118.609 8   8448935.59545  23394333.943    23394336.1094   23394345.0054
     -2465.722       -1921.342
 -26740595.692 9 -20810010.96448  19017215.887    19017217.9814   19017224.7604
      1696.305        1321.796
 97  4 28 17 30 29.9950000  0  7 27  2 26 15  4 19  7               -0.004296574
  -4682151.425 9  -3636092.44548  19854840.612    19854842.7034   19854849.4244
     -1353.810       -1054.917
 -11189231.243 9  -8701811.74148  19819319.703    19819321.3634   19819327.7364
       612.361         477.164
 -20296139.232 9 -15797787.11448  21287025.040    21287027.7634   21287034.2074
       828.325         645.448
 -16146084.765 9 -12567782.19746  22365367.930    22365370.2344   22365377.7024
        84.873          66.135
  -3997932.504 8  -3097250.81945  23617335.941    23617337.9974   23617346.8704
      4381.608        3414.240
  10917127.803 8   8506604.96546  23408418.143    23408419.7594   23408428.8074
     -2469.656       -1924.407
 -26791269.973 9 -20849497.40548  19007572.874    19007574.9894   19007581.7704
      1680.754        1309.678
 97  4 28 17 30 59.9950000  0  8 27  2 26 15  4 19  7  9            -0.004315028
  -4641378.533 9  -3604321.38548  19862599.485    19862601.5174   19862608.2994
     -1368.830       -1066.621
 -11207581.636 9  -8716110.75148  19815827.687    19815829.3874   19815835.7844
       606.650         472.714
 -20320816.087 9 -15817015.85148  21282329.302    21282331.9164   21282338.3544
       812.316         632.974
 -16148415.404 9 -12569598.29646  22364924.655    22364926.7854   22364934.2194
        66.065          51.479
  -4129507.734 8  -3199776.90445  23592298.337    23592300.0704   23592308.8644
      4385.722        3417.446
  10991213.657 8   8564334.18646  23422515.745    23422517.8854   23422526.8944
     -2473.894       -1927.710
 -26841542.881 9 -20888671.09348  18998006.349    18998008.4074   18998015.1584
      1666.422        1298.511
  -1027932.28518   -776107.62355  23845088.299    23845090.1745   23845098.3565
      4324.407        3369.668
 97  4 28 17 31 29.9950000  0  8 27  2 26 15  4 19  7  9            -0.004333459
  -4600116.075 9  -3572168.84548  19870451.653    19870453.5424   19870460.3134
     -1384.868       -1079.118
 -11225734.940 9  -8730256.18548  19812373.179    19812374.9264   19812381.3154
       600.514         467.933
 -20344973.627 9 -15835839.92748  21277732.482    21277734.9414   21277741.3534
       794.908         619.409
 -16150148.999 9 -12570949.16446  22364594.845    22364596.9054   22364604.2904
        46.426          36.176
  -4261174.594 8  -3302374.40745  23567242.828    23567244.8064   23567253.4734
      4389.128        3420.100
  11065458.277 8   8622187.06245  23436643.383    23436646.2164   23436655.4744
     -2478.706       -1931.459
 -26891353.861 9 -20927484.83548  18988527.535    18988529.6994   18988536.4514
      1651.272        1286.705
  -1157700.988 8   -877226.06445  23820394.306    23820395.9174   23820404.0444
      4323.709        3369.124
 97  4 28 17 31 59.9950000  0  8 27  2 26 15  4 19  7  9            -0.004351904
  -4558455.820 9  -3539706.34248  19878379.463    19878381.2934   19878388.0104
     -1390.400       -1083.428
 -11243773.780 9  -8744312.43248  19808940.542    19808942.2854   19808948.6264
       603.975         470.630
 -20368667.420 9 -15854302.63848  21273223.653    21273226.1604   21273232.6514
       786.517         612.870
 -16151358.751 9 -12571891.85146  22364364.759    22364366.6984   22364374.0744
        36.160          28.177
  -4393022.401 8  -3405112.90846  23542152.567    23542154.9564   23542163.6234
      4402.570        3430.574
  11139775.870 8   8680096.77745  23450784.764    23450788.6584   23450797.8214
     -2473.881       -1927.699
 -26940777.870 9 -20965997.04448  18979122.465    18979124.6154   18979131.3674
      1645.339        1282.082
  -1287509.042 8   -978375.14545  23795692.339    23795694.2404   23795702.4394
      4332.035        3375.612
 97  4 28 17 32 29.9950000  0  8 27  2 26 15  4 19  7  9            -0.004370333
  -4516367.646 9  -3506910.38948  19886388.445    19886390.4714   19886397.1434
     -1409.534       -1098.338
 -11261647.163 9  -8758239.73948  19805539.307    19805541.1114   19805547.4404
       593.521         462.484
 -20391825.848 9 -15872348.17448  21268816.687    21268819.2454   21268825.7834
       763.350         594.818
 -16151990.814 9 -12572384.37846  22364244.660    22364246.3564   22364253.7674
        11.934           9.299
  -4524990.431 8  -3507945.07145  23517040.186    23517042.3284   23517050.9174
      4401.317        3429.598
  11214221.382 9   8738106.22846  23464952.381    23464955.3144   23464964.3874
     -2483.151       -1934.923
 -26989743.745 9 -21004152.26048  18969804.524    18969806.7044   18969813.4634
      1624.835        1266.105
  -1417295.702 8  -1079507.57145  23770994.813    23770996.4804   23771004.9124
      4326.464        3371.271
 97  4 28 17 32 59.9950000  0  8 27  2 26 15  4 19  7  9            -0.004388647
  -4473691.304 9  -3473656.12148  19894509.505    19894511.5284   19894518.2154
     -1431.912       -1115.775
 -11279190.925 9  -8771910.20348  19802200.888    19802202.6354   19802208.9594
       579.607         451.642
 -20414274.240 9 -15889840.44448  21264544.820    21264547.4534   21264553.9694
       736.760         574.099
 -16151882.190 9 -12572299.73946  22364265.465    22364267.0574   22364274.3744
       -15.617         -12.169
  -4656901.566 8  -3610732.87045  23491938.520    23491940.6734   23491948.9194
      4396.416        3425.779
  11288965.449 8   8796348.28046  23479176.009    23479178.6344   23479187.9154
     -2496.052       -1944.976
 -27038068.480 9 -21041807.88948  18960608.670    18960610.8184   18960617.5624
      1600.338        1247.017
  -1546893.160 8  -1180492.54645  23746332.424    23746334.7364   23746343.2674
      4317.033        3363.922
 97  4 28 17 33 29.9950000  0  8 27  2 26 15  4 19  7  9            -0.004406919
  -4430537.165 9  -3440029.54148  19902721.444    19902723.4834   19902730.2404
     -1441.907       -1123.564
 -11296494.529 9  -8785393.53348  19798908.094    19798909.8724   19798916.2134
       576.886         449.522
 -20436098.106 9 -15906846.06848  21260392.126    21260394.5474   21260401.0314
       721.225         561.994
 -16151128.795 9 -12571712.69046  22364409.024    22364410.4534   22364417.8414
       -31.567         -24.598
  -4788844.133 8  -3713545.18845  23466830.342    23466832.7014   23466841.0864
      4402.821        3430.770
  11363905.388 9   8854742.99846  23493436.743    23493439.2994   23493448.6974
     -2497.036       -1945.742
 -27085821.841 9 -21079018.29248  18951521.457    18951523.6494   18951530.3674
      1586.150        1235.961
  -1676390.075 8  -1281399.19545  23721690.558    23721692.5124   23721700.8714
      4319.129        3365.555
 97  4 28 17 33 59.9950000  0  8 27  2 26 15  4 19  7  9            -0.004425276
  -4387076.690 9  -3406164.26548  19910991.730    19910993.7534   19911000.5554
     -1453.123       -1132.304
 -11313693.136 9  -8798795.05148  19795635.313    19795637.0814   19795643.4314
       572.259         445.916
 -20457450.012 9 -15923483.92948  21256328.869    21256331.4344   21256337.9504
       704.918         549.287
 -16149881.312 9 -12570740.64146  22364646.436    22364647.9264   22364655.3394
       -49.026         -38.202
  -4920957.719 8  -3816490.78645  23441689.519    23441692.1164   23441700.6554
      4407.042        3434.059
  11438903.755 8   8913183.19246  23507708.312    23507711.1254   23507720.5334
     -2500.431       -1948.388
 -27133132.909 9 -21115884.05548  18942518.522    18942520.6314   18942527.3754
      1570.492        1223.760
  -1805936.200 9  -1382344.19845  23697038.500    23697040.8214   23697049.0554
      4319.885        3366.144
 97  4 28 17 34 29.9950000  0  8 27  2 26 15  4 19  7  9            -0.004443608
  -4343131.543 9  -3371921.31448  19919354.257    19919356.2594   19919363.1074
     -1478.130       -1151.790
 -11330629.023 9  -8811991.84548  19792412.500    19792414.2974   19792420.6574
       555.499         432.856
 -20478184.731 9 -15939640.85548  21252383.237    21252385.7044   21252392.2564
       676.180         526.894
 -16147981.675 9 -12569260.42246  22365007.725    22365009.4344   22365016.8294
       -78.971         -61.536
  -5053056.291 8  -3919424.70445  23416551.788    23416554.5284   23416563.1414
      4398.263        3427.218
  11514124.199 8   8971796.40345  23522022.446    23522025.0924   23522034.6924
     -2515.589       -1960.199
 -27179852.569 9 -21152288.97048  18933627.914    18933630.1254   18933636.8824
      1542.971        1202.315
  -1935375.418 9  -1483205.90145  23672407.193    23672409.4264   23672417.5484
      4308.098        3356.959
 97  4 28 17 34 59.9950000  0  8 27  2 26 15  4 19  7  9            -0.004461791
  -4298512.898 9  -3337153.56948  19927844.895    19927846.9514   19927853.7334
     -1494.930       -1164.880
 -11347150.787 9  -8824865.95048  19789268.491    19789270.2854   19789276.6574
       547.391         426.538
 -20498150.571 9 -15955198.66448  21248583.758    21248586.3014   21248592.9014
       656.424         511.499
 -16145271.145 9 -12567148.34646  22365523.493    22365525.2474   22365532.6794
      -100.249         -78.116
  -5184986.311 8  -4022227.25245  23391446.508    23391448.9344   23391457.6034
      4398.769        3427.612
  11589711.270 8   9030695.28845  23536406.454    23536408.9004   23536418.2894
     -2521.951       -1965.157
 -27225843.701 9 -21188126.20948  18924876.109    18924878.3384   18924885.0634
      1524.712        1188.087
  -2064546.572 9  -1583858.74045  23647826.642    23647828.9824   23647836.9384
      4304.848        3354.427
 97  4 28 17 35 29.9950000  0  8 27  2 26 15  4 19  7  9            -0.004479990
  -4253486.974 9  -3302068.45948  19936412.936    19936415.1334   19936421.8504
     -1509.066       -1175.896
 -11363515.994 9  -8837618.05948  19786154.281    19786156.0764   19786162.4764
       541.396         421.867
 -20517611.749 9 -15970363.23248  21244880.476    21244883.0444   21244889.5954
       638.881         497.829
 -16142009.080 9 -12564606.50346  22366143.889    22366145.9384   22366153.4864
      -119.398         -93.037
  -5317021.293 8  -4125111.58845  23366320.435    23366323.4144   23366332.0534
      4401.293        3429.579
  11665392.064 8   9089667.23546  23550808.134    23550810.6264   23550819.7584
     -2525.739       -1968.108
 -27271376.372 9 -21223606.19748  18916211.641    18916213.7604   18916220.4784
      1508.737        1175.639
  -2193712.668 8  -1684507.59545  23623246.973    23623249.4074   23623257.4114
      4304.091        3353.837
 97  4 28 17 35 59.9950000  0  8 27  2 26 15  4 19  7  9            -0.004498176
  -4208019.167 9  -3266639.02848  19945064.963    19945067.3854   19945074.0714
     -1525.258       -1188.513
 -11379696.207 9  -8850226.01448  19783075.357    19783077.1244   19783083.4934
       534.319         416.352
 -20536552.194 9 -15985122.03448  21241276.434    21241278.8404   21241285.3344
       620.740         483.694
 -16138164.961 9 -12561611.10646  22366875.689    22366877.4234   22366884.9684
      -139.923        -109.031
  -5449119.337 8  -4228045.07145  23341183.234    23341185.8174   23341194.6654
      4402.265        3430.336
  11741190.248 8   9148730.59546  23565231.882    23565234.6704   23565243.7394
     -2530.502       -1971.820
 -27316439.710 9 -21258720.47348  18907636.369    18907638.5154   18907645.2134
      1492.570        1163.042
  -2322851.172 9  -1785134.94946  23598673.345    23598675.1244   23598683.1784
      4302.117        3352.299
 97  4 28 17 36 29.9950000  0  8 27  2 26 15  4 19  7  9            -0.004516329
  -4162088.961 9  -3230849.28648  19953805.551    19953807.6664   19953814.3414
     -1538.265       -1198.648
 -11395698.455 9  -8862695.30348  19780030.220    19780032.0234   19780038.3804
       530.757         413.577
 -20554971.578 9 -15999474.80848  21237771.257    21237773.7754   21237780.1984
       605.643         471.930
 -16133735.593 9 -12558159.67846  22367718.775    22367720.3604   22367727.8034
      -157.050        -122.377
  -5581280.952 8  -4331028.11145  23316034.001    23316036.3324   23316045.1334
      4406.920        3433.964
  11817090.260 8   9207873.28746  23579675.666    23579678.0364   23579687.1354
     -2531.245       -1972.399
 -27361050.918 9 -21293482.44448  18899147.185    18899149.3154   18899155.9874
      1479.828        1153.113
  -2451965.244 9  -1885743.27646  23574103.790    23574105.6204   23574113.5634
      4303.822        3353.628
 97  4 28 17 36 59.9950000  0  8 27  2 26 15  4 19  7  9            -0.004534626
  -4115975.568 9  -3194916.79448  19962580.799    19962582.7654   19962589.4874
     -1539.977       -1199.982
 -11411775.857 9  -8875223.15148  19776970.763    19776972.6034   19776978.9624
       536.904         418.367
 -20573132.780 9 -16013626.41148  21234315.249    21234317.8414   21234324.2644
       601.016         468.324
 -16128981.096 9 -12554454.91046  22368623.486    22368625.2564   22368632.5964
      -163.990        -127.784
  -5713778.568 8  -4434272.97545  23290820.324    23290822.8004   23290831.5524
      4421.946        3445.672
  11892839.709 8   9266898.72645  23594090.229    23594092.6244   23594101.7484
     -2522.787       -1965.808
 -27405466.558 9 -21328092.02448  18890695.235    18890697.3434   18890703.9904
      1477.054        1150.951
  -2581318.689 9  -1986538.10746  23549488.067    23549490.4334   23549498.4044
      4315.558        3362.772
 97  4 28 17 37 29.9950000  0  8 27  2 26 15  4 19  7  9            -0.004552929
  -4069454.972 9  -3158667.01248  19971433.184    19971435.3704   19971442.1114
     -1554.625       -1211.396
 -11427680.377 9  -8887616.28948  19773944.222    19773946.0674   19773952.4164
       530.557         413.421
 -20590792.343 9 -16027387.12048  21230954.629    21230957.3404   21230963.7864
       583.156         454.407
 -16123663.558 9 -12550311.39646  22369635.302    22369637.2114   22369644.4674
      -183.584        -143.052
  -5846357.456 8  -4537581.16645  23265591.146    23265593.9164   23265602.5754
      4423.441        3446.837
  11968692.764 8   9326004.89845  23608524.702    23608526.9974   23608536.2024
     -2527.281       -1969.310
 -27449436.428 9 -21362354.25048  18882328.092    18882330.1184   18882336.7674
      1461.234        1138.624
  -2710666.557 9  -2087328.57946  23524874.797    23524876.2634   23524884.2624
      4314.639        3362.056
 97  4 28 17 37 59.9950000  0  8 27  2 26 15  4 19  7  9            -0.004571321
  -4022677.464 9  -3122217.03348  19980334.568    19980336.8884   19980343.6234
     -1563.427       -1218.255
 -11443594.102 9  -8900016.59848  19770915.957    19770917.7864   19770924.1244
       530.664         413.504
 -20608109.872 9 -16040881.30948  21227659.358    21227661.9184   21227668.3544
       571.527         445.346
 -16117950.503 9 -12545859.68946  22370722.610    22370724.3374   22370731.7064
      -196.998        -153.505
  -5979169.353 8  -4641070.93745  23240318.827    23240320.6754   23240329.0784
      4430.980        3452.712
  12044490.352 9   9385067.81146  23622948.879    23622951.0154   23622960.0854
     -2525.539       -1967.952
 -27493128.967 9 -21396400.37048  18874013.707    18874015.6904   18874022.3494
      1451.812        1131.282
  -2840175.089 8  -2188244.25746  23500230.345    23500231.6404   23500239.6264
      4319.492        3365.838
 97  4 28 17 38 29.9950000  0  8 27  2 26 15  4 19  7  9            -0.004589735
  -3975540.359 9  -3085486.85448  19989304.441    19989306.7954   19989313.5034
     -1581.063       -1231.997
 -11459404.150 9  -8912336.11648  19767907.454    19767909.2564   19767915.5714
       521.392         406.279
 -20624959.198 9 -16054010.66948  21224452.832    21224455.5594   21224462.0104
       549.840         428.447
 -16111730.781 9 -12541013.16846  22371906.240    22371907.9574   22371915.3374
      -219.634        -171.143
  -6112106.430 8  -4744658.21545  23215020.824    23215023.3704   23215031.7534
      4429.219        3451.339
  12120339.325 8   9444170.86446  23637382.500    23637384.6714   23637393.7404
     -2532.951       -1973.728
 -27536422.212 9 -21430135.35648  18865775.348    18865777.2524   18865783.8984
      1432.360        1116.125
  -2969716.941 8  -2289185.89346  23475578.100    23475580.5914   23475588.5424
      4314.528        3361.970
 97  4 28 17 38 59.9950000  0  8 27  2 26 15  4 19  7  9            -0.004608103
  -3927979.950 9  -3048426.82948  19998354.936    19998357.2774   19998363.9374
     -1590.600       -1239.428
 -11475043.117 9  -8924522.32948  19764931.406    19764933.2814   19764939.5924
       520.403         405.509
 -20641264.369 9 -16066716.01348  21221350.117    21221352.8264   21221359.2894
       536.267         417.870
 -16104939.850 9 -12535721.54846  22373199.019    22373200.2364   22373207.6134
      -233.944        -182.294
  -6245096.768 8  -4848287.01845  23189714.214    23189716.1224   23189724.2604
      4435.636        3456.340
  12196306.816 8   9503366.18645  23651836.335    23651840.7034   23651850.0124
     -2532.215       -1973.155
 -27579234.024 9 -21463495.19648  18857628.518    18857630.4604   18857637.0684
      1420.822        1107.134
  -3099204.562 8  -2390085.24946  23450937.364    23450939.9184   23450947.9414
      4317.162        3364.022
 97  4 28 17 39 29.9950000  0  8 27  2 26 15  4 19  7  9            -0.004626494
  -3880018.017 9  -3011053.92648  20007481.757    20007484.1614   20007490.7744
     -1609.463       -1254.127
 -11490549.336 9  -8936605.09948  19761980.707    19761982.5774   19761988.8904
       510.631         397.894
 -20657048.838 9 -16079015.61348  21218346.627    21218349.1744   21218355.6424
       513.319         399.989
 -16097613.265 9 -12530012.54746  22374593.409    22374594.5234   22374601.7564
      -257.251        -200.455
  -6378162.829 8  -4951974.85045  23164392.396    23164394.4654   23164402.6754
      4432.726        3454.072
  12272344.841 8   9562616.46645  23666307.192    23666310.4804   23666319.8524
     -2539.741       -1979.019
 -27621588.966 9 -21496499.03448  18849568.692    18849570.5714   18849577.2134
      1400.096        1090.984
  -3228668.002 8  -2490965.76046  23426300.857    23426303.7854   23426311.8994
      4311.189        3359.368
 97  4 28 17 39 59.9950000  0  8 27  2 26 15  4 19  7  9            -0.004644826
  -3831559.471 9  -2973294.05548  20016703.135    20016705.5964   20016712.1494
     -1620.184       -1262.481
 -11505812.741 9  -8948498.66448  19759076.269    19759078.0454   19759084.3844
       507.535         395.482
 -20672207.531 9 -16090827.59848  21215462.062    21215464.6574   21215471.0724
       498.067         388.104
 -16089644.545 9 -12523803.18946  22376109.415    22376110.9084   22376118.1734
      -273.185        -212.871
  -6511206.452 8  -5055645.17245  23139074.972    23139076.8964   23139085.2974
      4437.790        3458.018
  12348548.877 8   9621996.16846  23680808.703    23680811.7354   23680820.9684
     -2539.650       -1978.948
 -27663380.258 9 -21529063.67048  18841616.005    18841617.8984   18841624.5714
      1386.763        1080.595
  -3358010.532 9  -2591752.06446  23401687.898    23401690.6964   23401698.8394
      4312.604        3360.471
 97  4 28 17 40 29.9950000  0  7 27  2 26 15  4  7  9               -0.004663204
  -3782776.504 9  -2935281.38648  20025986.281    20025988.7194   20025995.2914
     -1632.279       -1271.906
 -11520966.968 9  -8960307.15848  19756192.429    19756194.3034   19756200.6714
       502.657         391.681
 -20686900.245 9 -16102276.47948  21212666.392    21212668.7534   21212675.1704
       481.472         375.173
 -16081191.511 9 -12517216.43246  22377718.257    22377719.4604   22377726.7954
      -290.475        -226.344
  -6644389.974 8  -5159424.52245  23113730.652    23113732.7234   23113741.1594
      4441.066        3460.571
 -27704755.038 9 -21561303.74548  18833742.524    18833744.4834   18833751.1654
      1371.576        1068.761
  -3487391.502 9  -2692568.33946  23377068.298    23377070.3094   23377078.4564
      4312.796        3360.620
 97  4 28 17 40 59.9950000  0  7 27  2 26 15  4  7  9               -0.004681592
  -3733602.672 9  -2896964.15248  20035343.740    20035346.2084   20035352.8204
     -1644.263       -1281.244
 -11535942.521 9  -8971976.42448  19753342.783    19753344.6014   19753350.9204
       497.442         387.617
 -20701070.679 9 -16113318.39048  21209969.716    21209972.2094   21209978.6484
       465.104         362.419
 -16072186.148 9 -12510199.28946  22379431.478    22379433.1344   22379440.5414
      -308.173        -240.135
  -6777633.877 8  -5263250.92745  23088375.665    23088377.4364   23088385.7334
      4443.684        3462.611
 -27745647.394 9 -21593167.91348  18825960.854    18825962.9284   18825969.5734
      1356.392        1056.929
  -3616756.104 9  -2793371.87646  23352450.181    23352452.9144   23352461.0844
      4313.278        3360.996
 97  4 28 17 41 29.9950000  0  7 27  2 26 15  4  7  9               -0.004699979
  -3684040.448 9  -2858344.26948  20044775.223    20044777.6074   20044784.2414
     -1660.188       -1293.653
 -11550725.215 9  -8983495.41048  19750529.719    19750531.5594   19750537.8784
       487.822         380.121
 -20714722.068 9 -16123955.84548  21207372.028    21207374.4364   21207380.8344
       444.751         346.559
 -16062616.423 9 -12502742.38446  22381252.584    22381254.2904   22381261.6224
      -330.164        -257.271
  -6910929.377 8  -5367117.49045  23063009.758    23063012.2834   23063020.6204
      4442.358        3461.578
 -27786063.707 9 -21624661.12848  18818270.016    18818271.9924   18818278.6264
      1337.802        1042.443
  -3746099.484 9  -2894158.90246  23327837.541    23327839.5514   23327847.7194
      4309.209        3357.825
 97  4 28 17 41 59.9950000  0  7 27  2 26 15  4  7  9               -0.004718352
  -3634070.913 9  -2819407.00748  20054284.189    20054286.5344   20054293.1884
     -1673.474       -1304.006
 -11565299.641 9  -8994852.10848  19747756.239    19747758.1334   19747764.4704
       481.703         375.353
 -20727853.238 9 -16134187.93648  21204873.363    21204875.7164   21204882.0244
       428.504         333.899
 -16052461.884 9 -12494829.77946  22383185.064    22383186.6944   22383194.0124
      -348.899        -271.869
  -7044254.879 8  -5471007.44545  23037639.080    23037641.2884   23037649.7074
      4443.893        3462.774
 -27826002.903 9 -21655782.57148  18810669.876    18810671.8484   18810678.4694
      1322.780        1030.738
  -3875387.823 9  -2994903.04446  23303235.286    23303236.6764   23303244.8304
      4307.745        3356.684
 97  4 28 17 42 29.9950000  0  7 27  2 26 15  4  7  9               -0.004736742
  -3583721.991 9  -2780174.11748  20063865.459    20063867.6494   20063874.3284
     -1685.372       -1313.277
 -11579730.890 9  -9006097.24448  19745010.057    19745011.9534   19745018.2964
       478.290         372.694
 -20740526.576 9 -16144063.27648  21202461.741    21202464.1344   21202470.3854
       414.199         322.752
 -16041777.339 9 -12486504.19246  22385218.395    22385219.9634   22385227.2184
      -365.559        -284.851
  -7177654.481 8  -5574955.12045  23012253.839    23012256.0604   23012264.6624
      4447.208        3465.357
 -27865525.443 9 -21686579.35048  18803148.984    18803150.9914   18803157.5774
      1309.893        1020.696
  -4004650.962 9  -3095627.54546  23278636.455    23278638.6514   23278646.7064
      4307.510        3356.501
 97  4 28 17 42 59.9950000  0  7 27  2 26 15  4  7  9               -0.004755078
  -3532870.792 9  -2740549.84848  20073542.067    20073544.2944   20073551.0094
     -1704.748       -1328.375
 -11593930.177 9  -9017161.63048  19742308.035    19742309.9384   19742316.2594
       468.190         364.823
 -20752634.517 9 -16153498.04948  21200157.459    21200160.0654   21200166.3894
       392.909         306.163
 -16030456.089 9 -12477682.46346  22387373.199    22387374.3054   22387381.5604
      -389.245        -303.308
  -7311018.606 8  -5678875.11445  22986874.990    22986877.6134   22986886.3004
      4443.742        3462.656
 -27904524.525 9 -21716968.24048  18795727.745    18795729.6774   18795736.2574
      1289.832        1005.064
  -4133761.646 9  -3196233.22646  23254067.441    23254069.6394   23254077.6144
      4299.707        3350.421
 97  4 28 17 43 29.9950000  0  7 27  2 26 15  4  7  9               -0.004773366
  -3481505.010 9  -2700524.60348  20083316.632    20083318.8774   20083325.6274
     -1720.820       -1340.899
 -11607897.638 9  -9028045.37348  19739650.168    19739652.0374   19739658.3484
       461.759         359.812
 -20764176.404 9 -16162491.73548  21197961.009    21197963.7194   21197970.0994
       375.232         292.389
 -16018502.405 9 -12468367.92246  22389647.932    22389648.9984   22389656.2054
      -408.946        -318.659
  -7444369.662 8  -5782784.94045  22961499.189    22961501.8504   22961510.5174
      4444.842        3463.513
 -27942995.807 9 -21746945.85648  18788406.880    18788408.8504   18788415.4164
      1273.460         992.306
  -4262709.384 9  -3296711.93646  23229529.356    23229531.6894   23229539.5114
      4295.619        3347.236
 97  4 28 17 43 59.9950000  0  7 27  2 26 15  4  7  9               -0.004791635
  -3429646.096 9  -2660115.09648  20093185.138    20093187.3524   20093194.0684
     -1733.704       -1350.938
 -11621663.804 9  -9038772.26048  19737030.576    19737032.4114   19737038.6994
       458.433         357.221
 -20775179.720 9 -16171065.75948  21195867.229    21195869.7894   21195876.2994
       360.810         281.151
 -16005950.846 9 -12458587.50946  22392035.968    22392037.3684   22392044.6274
      -425.266        -331.376
  -7577732.805 8  -5886704.18745  22936121.194    22936123.8864   22936132.3154
      4448.783        3466.584
 -27980948.407 9 -21776519.30348  18781184.686    18781186.7144   18781193.2824
      1259.313         981.283
  -4391532.109 9  -3397093.21446  23205013.977    23205017.5884   23205025.2524
      4295.279        3346.971
 97  4 28 17 44 29.9950000  0  7 27  2 26 15  4  7  9               -0.004809948
  -3377346.782 9  -2619362.42548  20103137.392    20103139.6304   20103146.3414
     -1747.931       -1362.024
 -11635253.471 9  -9049361.61748  19734444.527    19734446.3814   19734452.6884
       452.435         352.547
 -20785672.950 9 -16179242.30948  21193870.417    21193872.9564   21193879.5634
       343.741         267.850
 -15992843.096 9 -12448373.70546  22394530.525    22394531.8264   22394538.9464
      -443.784        -345.806
  -7711153.320 8  -5990668.10745  22910731.522    22910734.7124   22910743.1894
      4450.719        3468.093
 -28018401.828 9 -21805703.78048  18774057.569    18774059.5854   18774066.1544
      1242.373         968.083
  -4520283.102 9  -3497418.56746  23180514.382    23180517.0934   23180524.7644
      4293.149        3345.311
 97  4 28 17 44 59.9950000  0  7 27  2 26 15  4  7  9               -0.004828295
  -3324758.098 9  -2578384.27248  20113145.175    20113146.9684   20113153.6984
     -1757.519       -1369.495
 -11648794.879 9  -9059913.37448  19731867.722    19731869.5704   19731875.8724
       450.545         351.074
 -20795795.499 9 -16187130.03048  21191944.343    21191946.7534   21191953.2874
       331.429         258.256
 -15979314.882 9 -12437832.26146  22397104.409    22397106.2694   22397113.5444
      -457.836        -356.755
  -7844760.516 8  -6094777.50545  22885307.320    22885310.0674   22885318.5924
      4456.768        3472.806
 -28055480.905 9 -21834596.56948  18767001.698    18767003.6734   18767010.2274
      1230.050         958.481
  -4649116.963 9  -3597808.48346  23155998.321    23156000.7544   23156008.4974
      4296.148        3347.648
 97  4 28 17 45 29.9950000  0  7 27  2 26 15  4  7  9               -0.004846702
  -3271838.089 9  -2537147.93748  20123215.494    20123217.3064   20123224.1234
     -1772.090       -1380.849
 -11662218.286 9  -9070373.17748  19729313.315    19729315.1774   19729321.4964
       442.806         345.044
 -20805491.504 9 -16194685.38048  21190099.229    21190101.6854   21190108.1544
       313.239         244.082
 -15965309.512 9 -12426919.01946  22399769.506    22399771.5274   22399778.7624
      -477.601        -372.157
  -7978481.572 8  -6198975.64545  22859861.067    22859863.7124   22859872.2234
      4456.080        3472.270
 -28092149.749 9 -21863169.68248  18760023.809    18760025.7794   18760032.3354
      1212.886         945.106
  -4777991.730 9  -3698230.30346  23131473.485    23131476.6634   23131484.4424
      4293.860        3345.865
 97  4 28 17 45 59.9950000  0  7 27  2 26 15  4  7  9               -0.004865074
  -3218475.544 9  -2495566.75948  20133369.900    20133371.8344   20133378.7154
     -1783.479       -1389.724
 -11675399.589 9  -9080644.32248  19726804.960    19726806.8474   19726813.1654
       437.770         341.119
 -20814620.299 9 -16201798.73548  21188362.076    21188364.6064   21188370.9424
       297.206         231.589
 -15950697.594 9 -12415533.14446  22402550.613    22402551.9964   22402559.4054
      -494.669        -385.456
  -8112157.556 8  -6303138.68745  22834424.006    22834426.0264   22834434.4614
      4457.655        3473.497
 -28128293.106 9 -21891333.32648  18753145.926    18753147.9484   18753154.4724
      1198.637         934.003
  -4906786.073 9  -3798589.46646  23106965.793    23106967.8754   23106975.6104
      4294.211        3346.138
 97  4 28 17 46 29.9950000  0  7 27  2 26 15  4  7  9               -0.004883495
  -3164820.575 9  -2453757.74048  20143580.197    20143582.0734   20143588.9194
     -1798.049       -1401.077
 -11688472.776 9  -9090831.23448  19724317.275    19724319.1024   19724325.4294
       429.454         334.639
 -20823303.211 9 -16208564.66448  21186709.764    21186712.3864   21186718.6464
       277.364         216.128
 -15935613.709 9 -12403779.49846  22405421.320    22405422.3514   22405429.8034
      -515.324        -401.551
  -8245916.738 8  -6407366.56146  22808969.797    22808972.3904   22808980.8854
      4455.136        3471.535
 -28164057.527 9 -21919201.70748  18746340.243    18746342.2194   18746348.7064
      1181.355         920.536
  -5035632.575 9  -3898989.28546  23082446.654    23082449.1854   23082456.8274
      4291.107        3343.720
 97  4 28 17 46 59.9950000  0  7 27  2 26 15  4  7  9               -0.004901839
  -3110692.110 9  -2411579.75648  20153880.580    20153882.4374   20153889.2244
     -1808.192       -1408.981
 -11701269.355 9  -9100802.59648  19721882.216    19721884.0354   19721890.3404
       425.782         331.778
 -20831356.823 9 -16214840.21948  21185177.108    21185179.8604   21185186.1404
       261.727         203.943
 -15919878.362 9 -12391518.18846  22408415.762    22408416.7404   22408424.1934
      -531.469        -414.132
  -8379566.150 8  -6511508.90246  22783536.851    22783539.7004   22783548.3124
      4457.177        3473.125
 -28199281.166 9 -21946648.69048  18739637.421    18739639.3944   18739645.8784
      1169.052         910.950
  -5164351.031 9  -3999289.34545  23057952.199    23057954.9184   23057962.4324
      4292.219        3344.586
 97  4 28 17 47 29.9950000  0  7 27  2 26 15  4  7  9               -0.004920202
  -3056254.346 9  -2369160.76348  20164239.798    20164241.6584   20164248.4074
     -1821.207       -1419.122
 -11713939.679 9  -9110675.58648  19719471.173    19719472.9744   19719479.2924
       418.879         326.399
 -20838921.490 9 -16220734.77548  21183737.590    21183740.2884   21183746.6824
       242.651         189.079
 -15903642.916 9 -12378867.21846  22411504.877    22411506.2014   22411513.6254
      -550.936        -429.301
  -8513260.264 9  -6615686.09546  22758095.675    22758098.6434   22758107.0874
      4455.723        3471.992
 -28234111.709 9 -21973789.36748  18733009.334    18733011.3454   18733017.8664
      1152.776         898.267
  -5293079.246 8  -4099596.99545  23033456.703    23033458.6504   23033466.1364
      4289.537        3342.496
 97  4 28 17 47 59.9950000  0  7 27  2 26 15  4  7  9               -0.004938586
  -3001488.445 9  -2326486.06948  20174661.385    20174663.2784   20174670.0314
     -1832.987       -1428.302
 -11726474.866 9  -9120443.27448  19717085.813    19717087.6214   19717093.9314
       413.641         322.318
 -20845999.282 9 -16226249.94848  21182390.815    21182393.3894   21182399.8514
       226.297         176.335
 -15886898.670 9 -12365819.79246  22414690.533    22414692.4854   22414699.9914
      -568.442        -442.942
  -8646988.508 8  -6719889.86646  22732648.233    22732651.0194   22732659.3904
      4456.450        3472.558
 -28268516.238 9 -22000598.08748  18726462.368    18726464.4024   18726470.9234
      1137.808         886.604
  -5421794.435 8  -4199894.48545  23008962.695    23008964.7844   23008972.4924
      4288.210        3341.462
 97  4 28 17 48 29.9950000  0  7 27  2 26 15  4  7  9               -0.004956936
  -2946289.326 9  -2283473.81248  20185165.307    20185167.3314   20185174.0944
     -1847.264       -1439.426
 -11738780.398 9  -9130032.01048  19714744.183    19714745.9804   19714752.3304
       406.514         316.764
 -20852527.986 9 -16231337.26948  21181148.451    21181151.0094   21181157.5124
       208.909         162.786
 -15869556.054 9 -12352306.11746  22417990.425    22417992.7444   22418000.2324
      -587.964        -458.154
  -8780666.507 8  -6824054.47146  22707210.000    22707212.8984   22707221.2374
      4455.187        3471.574
 -28302401.446 9 -22027002.14248  18720014.171    18720016.2524   18720022.7664
      1121.064         873.556
  -5550384.492 9  -4300094.46346  22984491.583    22984494.8424   22984502.5664
      4284.175        3338.318
 97  4 28 17 48 59.9950000  0  7 27  2 26 15  4  7  9               -0.004975222
  -2890607.478 9  -2240085.39948  20195761.026    20195763.2584   20195770.0704
     -1862.736       -1451.483
 -11750823.110 9  -9139415.95348  19712452.562    19712454.3544   19712460.7194
       398.400         310.442
 -20858491.980 9 -16235984.55748  21180013.597    21180016.1704   21180022.6204
       190.667         148.572
 -15851577.866 9 -12338297.16246  22421411.690    22421414.0184   22421421.3284
      -608.556        -474.199
  -8914257.779 8  -6928151.53546  22681789.255    22681791.2054   22681799.6064
      4453.058        3469.915
 -28335736.635 9 -22052977.61548  18713670.654    18713672.7404   18713679.2544
      1103.312         859.724
  -5678787.625 9  -4400148.79746  22960057.901    22960060.5544   22960068.1964
      4278.147        3333.621
 97  4 28 17 49 29.9950000  0  7 27  2 26 15  4  7  9               -0.004993552
  -2834614.126 9  -2196454.25448  20206416.155    20206418.4474   20206425.3284
     -1873.676       -1460.007
 -11762767.771 9  -9148723.48548  19710179.618    19710181.4144   19710187.7334
       394.606         307.485
 -20864063.804 9 -16240326.25048  21178953.586    21178955.8894   21178962.3174
       177.403         138.236
 -15833136.652 9 -12323927.41146  22424921.684    22424923.2814   22424930.5804
      -624.288        -486.458
  -9047933.102 8  -7032314.09246  22656351.721    22656353.6334   22656362.0084
      4455.241        3471.616
 -28368689.174 9 -22078654.91048  18707400.124    18707402.0874   18707408.5884
      1090.394         849.658
  -5807158.532 9  -4500177.99746  22935630.007    22935632.2874   22935640.0184
      4276.720        3332.509
 97  4 28 17 49 59.9950000  0  7 27  2 26 15  4  7  9               -0.005011830
  -2778155.794 9  -2152460.78848  20217159.815    20217162.1554   20217169.0494
     -1887.863       -1471.062
 -11774465.776 9  -9157838.82348  19707953.568    19707955.3794   19707961.6874
       387.529         301.971
 -20869102.177 9 -16244252.28148  21177994.758    21177997.1344   21178003.5394
       160.673         125.200
 -15814088.302 9 -12309084.56446  22428546.869    22428547.9724   22428555.3894
      -643.372        -501.329
  -9181543.348 9  -7136425.91446  22630926.053    22630928.3954   22630936.7604
      4454.430        3470.984
 -28401134.534 9 -22103937.00548  18701225.886    18701227.9384   18701234.4444
      1074.883         837.571
  -5935358.991 9  -4600074.40546  22911234.189    22911236.5564   22911244.3164
      4272.317        3329.078
 97  4 28 17 50 29.9940000  0  7 27  2 26 15  4  7  9               -0.005030170
  -2721434.626 9  -2108262.51948  20227953.729    20227955.8414   20227962.7414
     -1896.150       -1477.519
 -11786104.474 9  -9166907.94648  19705738.807    19705740.6094   19705746.9274
       385.890         300.694
 -20873774.432 9 -16247893.02348  21177105.557    21177108.0564   21177114.4554
       148.384         115.624
 -15794614.958 9 -12293910.56846  22432252.367    22432253.7134   22432261.1534
      -657.382        -512.246
  -9315275.996 9  -7240633.19046  22605477.542    22605479.8544   22605488.3064
      4458.879        3474.451
 -28433263.440 9 -22128972.51248  18695112.068    18695114.0504   18695120.5234
      1064.618         829.572
  -6063578.799 9  -4699985.87846  22886834.134    22886837.1014   22886844.9474
      4273.693        3330.150
 97  4 28 17 50 59.9940000  0  7 27  2 26 15  4  7  9               -0.005048530
  -2664383.652 9  -2063807.24848  20238810.092    20238812.2924   20238819.2114
     -1908.588       -1487.211
 -11797612.207 9  -9175875.01448  19703548.991    19703550.7534   19703557.0884
       379.974         296.084
 -20877988.067 9 -16251176.38048  21176303.642    21176306.1944   21176312.6344
       131.165         102.206
 -15774646.178 9 -12278350.51146  22436051.554    22436053.6814   22436061.2244
      -675.214        -526.141
  -9449068.027 9  -7344886.72346  22580017.113    22580020.0644   22580028.4184
      4459.275        3474.760
 -28465005.179 9 -22153706.32148  18689071.960    18689073.8084   18689080.2644
      1050.049         818.220
  -6191777.768 8  -4799881.08746  22862439.012    22862441.5154   22862449.3984
      4271.669        3328.573
 97  4 28 17 51 29.9940000  0  7 27  2 26 15  4  7  9               -0.005066852
  -2606901.042 9  -2019015.64848  20249748.584    20249750.9094   20249757.8094
     -1923.503       -1498.834
 -11808880.371 9  -9184655.41048  19701404.614    19701406.4824   19701412.8244
       371.543         289.514
 -20881638.064 9 -16254020.55748  21175609.142    21175611.5934   21175618.0924
       112.405          87.588
 -15754086.822 9 -12262330.25046  22439963.655    22439965.9424   22439973.5394
      -695.190        -541.706
  -9582817.285 9  -7449106.89646  22554565.290    22554568.3624   22554576.8064
      4457.476        3473.358
 -28496252.701 9 -22178055.04048  18683125.811    18683127.6034   18683134.0164
      1033.362         805.217
  -6319868.070 8  -4899691.63946  22838062.773    22838066.6564   22838074.5584
      4267.914        3325.647
 97  4 28 17 51 59.9940000  0  7 27  2 26 15  4  7  9               -0.005085124
  -2548955.485 9  -1973863.31248  20260775.380    20260777.5994   20260784.5004
     -1938.270       -1510.340
 -11819890.359 9  -9193234.63448  19699309.567    19699311.3644   19699317.7024
       363.736         283.431
 -20884710.225 9 -16256414.47348  21175024.428    21175026.9724   21175033.4924
        93.716          73.025
 -15732921.787 9 -12245838.05246  22443991.107    22443993.6484   22444001.1344
      -714.600        -556.831
  -9716507.610 8  -7553281.17746  22529125.320    22529127.8524   22529136.3354
      4456.337        3472.470
 -28526986.574 9 -22202003.51148  18677277.315    18677279.1434   18677285.5414
      1016.697         792.231
  -6447834.763 9  -4999405.92946  22813710.971    22813715.4014   22813723.1554
      4264.352        3322.872
 97  4 28 17 52 29.9940000  0  7 27  2 26 15  4  7  9               -0.005103358
  -2490563.036 9  -1928362.74548  20271887.401    20271889.3524   20271896.2374
     -1953.097       -1521.894
 -11830668.572 9  -9201633.25048  19697258.617    19697260.3404   19697266.6544
       356.349         277.675
 -20887223.883 9 -16258373.19148  21174546.070    21174548.6694   21174555.1474
        75.619          58.924
 -15711177.404 9 -12228894.40546  22448129.476    22448131.4634   22448138.8894
      -733.474        -571.538
  -9850157.565 9  -7657423.98546  22503692.245    22503694.9494   22503703.6454
      4455.127        3471.528
 -28557218.924 9 -22225561.18148  18671524.129    18671526.0854   18671532.4974
      1000.331         779.479
  -6575685.735 9  -5099030.03546  22789383.124    22789386.1584   22789393.8764
      4260.556        3319.914
 97  4 28 17 52 59.9940000  0  7 27  2 26 15  4  7  9               -0.005121585
  -2431746.501 9  -1882531.73548  20283080.072    20283081.8034   20283088.7074
     -1969.422       -1534.615
 -11841255.015 9  -9209882.44348  19695244.050    19695245.8544   19695252.1094
       347.922         271.108
 -20889239.751 9 -16259944.02248  21174162.516    21174165.1514   21174171.5734
        57.260          44.618
 -15688901.732 9 -12211536.79346  22452367.908    22452370.3074   22452377.8214
      -753.147        -586.868
  -9983802.395 9  -7761562.78846  22478260.377    22478263.2884   22478271.8864
      4452.972        3469.848
 -28586989.118 9 -22248758.73348  18665859.027    18665861.0144   18665867.4474
       982.755         765.783
  -6703445.031 9  -5198582.71546  22765071.730    22765074.3874   22765082.0634
      4255.106        3315.667
 97  4 28 17 53 29.9940000  0  7 27  2 26 15  4  7  9               -0.005139760
  -2372439.018 9  -1836318.14048  20294365.783    20294367.6724   20294374.6254
     -1985.127       -1546.852
 -11851577.797 9  -9217926.18048  19693279.791    19693281.5384   19693287.7724
       339.605         264.627
 -20890700.310 9 -16261082.14048  21173884.907    21173887.2214   21173893.6744
        39.327          30.644
 -15666024.692 9 -12193710.55046  22456720.948    22456723.6954   22456731.2544
      -772.821        -602.198
 -10117367.479 9  -7865639.45346  22452843.891    22452846.7284   22452855.2244
      4450.438        3467.874
 -28616220.763 9 -22271536.63548  18660296.379    18660298.4344   18660304.8474
       965.300         752.182
  -6831027.172 9  -5297997.32846  22740793.313    22740796.2924   22740804.0294
      4249.639        3311.407
 97  4 28 17 53 59.9940000  0  7 27  2 26 15  4  7  9               -0.005157873
  -2312642.388 9  -1789723.41047  20305744.793    20305746.6594   20305753.6244
     -2002.200       -1560.156
 -11861635.444 9  -9225763.31748  19691365.927    19691367.6654   19691373.8664
       329.885         257.053
 -20891595.671 9 -16261779.84248  21173714.552    21173716.8734   21173723.3364
        19.530          15.218
 -15642531.608 9 -12175404.27646  22461192.234    22461194.2784   22461201.9044
      -794.420        -619.029
 -10250824.537 9  -7969631.93946  22427447.815    22427450.8094   22427459.1034
      4445.610        3464.112
 -28644903.193 9 -22293886.57448  18654838.234    18654840.3274   18654846.7844
       945.833         737.013
  -6958419.988 9  -5397264.38046  22716551.004    22716554.1504   22716561.9394
      4242.237        3305.639
 97  4 28 17 54 29.9940000  0  7 27  2 26 15  4  7  9               -0.005175940
  -2252392.973 9  -1742775.86047  20317210.177    20317211.8194   20317218.7914
     -2012.238       -1567.978
 -11871452.191 9  -9233412.74548  19689497.864    19689499.6194   19689505.8124
       326.689         254.563
 -20891960.069 9 -16262063.80948  21173645.150    21173647.6174   21173654.0744
         6.982           5.441
 -15618438.337 9 -12156630.34446  22465776.564    22465779.1344   22465786.8334
      -809.663        -630.906
 -10384178.639 9  -8073544.17546  22402071.603    22402074.2344   22402082.7784
      4446.795        3465.035
 -28673053.060 9 -22315821.53348  18649481.540    18649483.5924   18649490.0554
       932.970         726.990
  -7085636.609 9  -5496394.11546  22692343.707    22692345.5944   22692353.4104
      4241.126        3304.774
 97  4 28 17 54 59.9940000  0  7 27  2 26 15  4  7  9               -0.005194042
  -2191829.166 9  -1695583.32247  20328735.481    20328736.8064   20328743.7414
     -2025.285       -1578.144
 -11881146.679 9  -9240966.89748  19687653.037    19687654.8354   19687661.0374
       319.447         248.920
 -20891925.490 9 -16262036.88348  21173651.862    21173654.2374   21173660.7214
        -9.540          -7.434
 -15593867.342 9 -12137484.14946  22470453.274    22470454.8624   22470462.5854
      -828.536        -645.612
 -10517543.625 9  -8177464.91646  22376693.548    22376695.8144   22376704.3014
      4444.059        3462.903
 -28700793.379 9 -22337437.35948  18644202.715    18644204.7604   18644211.2264
       916.405         714.082
  -7212804.697 9  -5595486.07646  22668144.152    22668146.2974   22668154.0824
      4236.674        3301.304
 97  4 28 17 55 29.9940000  0  7 27  2 26 15  4  7  9               -0.005212115
  -2130877.610 9  -1648088.64847  20340333.947    20340335.5424   20340342.4834
     -2036.886       -1587.184
 -11890617.503 9  -9248346.77348  19685850.764    19685852.6054   19685858.8014
       313.228         244.074
 -20891378.506 9 -16261610.68648  21173755.959    21173758.3674   21173764.7654
       -25.532         -19.895
 -15568718.535 8 -12117887.69746  22475238.625    22475240.4544   22475248.2444
      -846.645        -659.723
 -10650808.065 9  -8281307.31646  22351334.255    22351336.5374   22351344.8524
      4441.482        3460.895
 -28728041.264 9 -22358669.47548  18639017.534    18639019.5994   18639026.0644
       901.446         702.425
  -7339831.276 9  -5694467.79946  22643971.262    22643973.9344   22643981.6654
      4233.059        3298.488
 97  4 28 17 55 59.9940000  0  7 27  2 26 15  4  7  9               -0.005230200
  -2069628.062 9  -1600361.77247  20351989.220    20351991.0154   20351997.9164
     -2046.112       -1594.373
 -11899950.552 9  -9255619.28848  19684074.769    19684076.5814   19684082.7954
       308.999         240.778
 -20890402.845 9 -16260850.44348  21173941.776    21173944.0834   21173950.4084
       -39.357         -30.668
 -15543076.927 9 -12097907.26946  22480117.503    22480119.9774   22480127.5774
      -862.450        -672.039
 -10784043.036 9  -8385126.72646  22325980.587    22325982.7674   22325990.9644
      4441.221        3460.692
 -28754889.780 9 -22379590.39448  18633908.469    18633910.4884   18633916.9854
       888.752         692.534
  -7466788.741 9  -5793395.68346  22619812.270    22619814.7114   22619822.3434
      4231.014        3296.894
 97  4 28 17 56 29.9940000  0  7 27  2 26 15  4  7  9               -0.005248281
  -2008064.799 9  -1552390.44047  20363704.358    20363706.1244   20363713.0404
     -2055.933       -1602.026
 -11909101.660 9  -9262750.03048  19682333.350    19682335.1624   19682341.3854
       303.299         236.337
 -20888963.873 9 -16259729.19048  21174215.325    21174217.8664   21174224.2894
       -54.431         -42.414
 -15516924.457 9 -12077528.73646  22485094.806    22485096.8004   22485104.2504
      -878.800        -684.779
 -10917234.127 9  -8488911.96546  22300634.506    22300637.3194   22300645.5174
      4440.482        3460.116
 -28781323.545 9 -22400188.12848  18628878.281    18628880.3084   18628886.7684
       875.692         682.357
  -7593645.773 9  -5892245.29446  22595672.971    22595674.6914   22595682.1584
      4228.479        3294.919
 97  4 28 17 56 59.9940000  0  7 27  2 26 15  4  7  9               -0.005266355
  -1946182.989 9  -1504170.88447  20375480.277    20375481.8634   20375488.7854
     -2070.002       -1612.989
 -11918055.758 9  -9269727.26048  19680629.534    19680631.2694   19680637.4774
       293.234         228.494
 -20887035.558 9 -16258226.62248  21174582.096    21174584.7864   21174591.2364
       -74.569         -58.106
 -15490257.538 8 -12056749.36446  22490168.043    22490171.3144   22490178.7844
      -899.452        -700.872
 -11050379.457 9  -8592661.54446  22275297.840    22275300.5784   22275308.7834
      4435.386        3456.145
 -28807340.231 9 -22420460.86248  18623927.404    18623929.5124   18623935.9224
       858.414         668.894
  -7720409.120 9  -5991021.87146  22571550.233    22571552.3254   22571559.8324
      4221.792        3289.708
 97  4 28 17 57 29.9940000  0  7 27  2 26 15  4  7  9               -0.005284369
  -1883915.261 9  -1455650.61347  20387329.104    20387331.0164   20387337.9804
     -2080.752       -1621.365
 -11926746.534 9  -9276499.30348  19678975.642    19678977.4644   19678983.6744
       286.820         223.496
 -20884543.440 9 -16256284.73248  21175056.408    21175059.0074   21175065.4424
       -90.878         -70.814
 -15463008.413 9 -12035516.31846  22495354.252    22495356.6724   22495364.2294
      -916.472        -714.134
 -11183406.507 9  -8696318.94346  22249983.627    22249986.4464   22249994.5044
      4433.773        3454.888
 -28832881.240 9 -22440362.94448  18619067.138    18619069.2354   18619075.6254
       844.783         658.272
  -7847005.773 9  -6089668.54246  22547458.826    22547461.7014   22547469.1854
      4218.646        3287.257
 97  4 28 17 57 59.9940000  0  7 27  2 26 15  4  7  9               -0.005302437
  -1821413.056 9  -1406947.64447  20399222.916    20399224.8264   20399231.8074
     -2083.781       -1623.725
 -11935334.673 9  -9283191.37548  19677341.425    19677343.2114   19677349.4264
       288.128         224.515
 -20881655.062 9 -16254034.07148  21175606.196    21175608.6784   21175615.0514
       -99.284         -77.364
 -15435347.601 9 -12013962.47046  22500618.658    22500620.4794   22500628.0924
      -925.198        -720.933
 -11316494.993 9  -8800024.21146  22224657.641    22224660.3844   22224668.4534
      4441.257        3460.720
 -28858098.264 9 -22460012.56748  18614268.488    18614270.5844   18614276.9734
       838.696         653.529
  -7973607.440 9  -6188319.11546  22523368.160    22523370.1454   22523377.5864
      4224.028        3291.450
 97  4 28 17 58 29.9940000  0  7 27  2 26 15  4  7  9               -0.005320628
  -1758746.539 9  -1358116.63347  20411148.149    20411149.9534   20411156.9064
     -2092.456       -1630.485
 -11943900.266 9  -9289865.87248  19675711.428    19675713.2404   19675719.4524
       284.762         221.892
 -20878453.475 9 -16251539.34448  21176215.295    21176217.9254   21176224.2284
      -112.313         -87.517
 -15407362.048 8 -11992155.59746  22505943.679    22505945.7734   22505953.6464
      -938.905        -731.614
 -11449743.632 9  -8903854.28646  22199301.347    22199303.9304   22199312.0374
      4443.546        3462.503
 -28883060.227 9 -22479463.44548  18609518.423    18609520.4864   18609526.8884
       826.982         644.402
  -8100317.711 9  -6287054.33846  22499256.066    22499257.9694   22499265.4734
      4224.889        3292.121
 97  4 28 17 58 59.9940000  0  7 27  2 26 15  4  7  9               -0.005338900
  -1695832.051 9  -1309092.39447  20423120.592    20423122.2624   20423129.2004
     -2102.245       -1638.113
 -11952399.009 9  -9296488.28148  19674094.162    19674096.0054   19674102.2084
       281.454         219.315
 -20874886.628 9 -16248760.00048  21176893.912    21176896.6664   21176902.9944
      -125.689         -97.939
 -15378984.012 9 -11970042.88446  22511344.694    22511345.9984   22511353.8234
      -953.343        -742.865
 -11583072.099 9  -9007746.52746  22173929.337    22173932.3154   22173940.3174
      4444.590        3463.317
 -28907686.185 9 -22498652.49748  18604832.262    18604834.3204   18604840.7294
       814.388         634.588
  -8227060.476 9  -6385814.89746  22475137.243    22475139.6824   22475147.1274
      4224.093        3291.501
 97  4 28 17 59 29.9940000  0  7 27  2 26 15  4  7  9               -0.005357153
  -1632497.290 9  -1259740.67347  20435172.817    20435174.5164   20435181.4544
     -2119.873       -1651.849
 -11960679.297 9  -9302940.46348  19672518.564    19672520.3334   19672526.5424
       270.789         211.004
 -20870817.677 9 -16245589.40648  21177668.094    21177670.9314   21177677.2884
      -145.327        -113.242
 -15350062.107 9 -11947506.36046  22516848.061    22516849.7804   22516857.4884
      -974.582        -759.415
 -11716323.477 9  -9111578.72146  22148572.575    22148575.4134   22148583.4364
      4438.977        3458.943
 -28931815.347 9 -22517454.43848  18600240.620    18600242.6534   18600249.1204
       794.266         618.909
  -8353660.143 9  -6484463.96946  22451046.263    22451048.5734   22451055.9754
      4216.155        3285.316
 97  4 28 17 59 59.9940000  0  7 27  2 26 15  4  7  9               -0.005375432
  -1568781.556 9  -1210092.08947  20447297.435    20447299.2104   20447306.1614
     -2130.306       -1659.979
 -11968793.395 9  -9309263.14448  19670974.504    19670976.2964   19670982.5184
       267.609         208.526
 -20866315.716 9 -16242081.40447  21178524.890    21178527.6084   21178533.9824
      -157.173        -122.472
 -15320656.766 8 -11924593.15646  22522444.259    22522445.5184   22522453.1284
      -988.408        -770.188
 -11849559.498 9  -9215398.92046  22123218.117    22123221.3574   22123229.4354
      4440.607        3460.213
 -28955482.453 9 -22535896.33948  18595736.957    18595738.9554   18595745.4414
       781.080         608.634
  -8480170.430 9  -6583043.36946  22426972.498    22426974.4774   22426981.7324
      4215.172        3284.550
 97  4 28 18  0 29.9940000  0  7 27  2 26 15  4  7  9               -0.005393644
  -1504550.344 9  -1160041.83047  20459519.926    20459521.9604   20459528.9584
     -2151.618       -1676.585
 -11976613.688 9  -9315356.88448  19669486.418    19669488.1684   19669494.4254
       253.711         197.697
 -20861260.870 9 -16238142.59147  21179486.945    21179489.4964   21179495.8184
      -179.787        -140.094
 -15290626.886 8 -11901193.35446  22528158.217    22528159.8634   22528167.6674
     -1013.621        -789.835
 -11982614.218 9  -9319077.87846  22097898.370    22097901.8444   22097909.9224
      4429.593        3451.631
 -28978555.374 9 -22553875.22948  18591346.245    18591348.3034   18591354.7954
       757.300         590.104
  -8606434.845 9  -6681431.16046  22402945.416    22402947.0354   22402954.3364
      4202.264        3274.491
 97  4 28 18  0 59.9940000  0  7 27  2 26 15  4  7  9               -0.005411786
  -1439846.112 9  -1109622.98847  20471832.525    20471834.7514   20471841.8184
     -2161.804       -1684.523
 -11984175.565 9  -9321249.26248  19668047.464    19668049.1824   19668055.4614
       250.310         195.047
 -20855683.046 9 -16233796.25847  21180548.264    21180550.8884   21180557.1854
      -191.983        -149.597
 -15259999.585 8 -11877327.98546  22533986.373    22533988.1484   22533995.8764
     -1028.069        -801.093
 -12115489.668 9  -9422617.10646  22072613.201    22072616.4224   22072624.4994
      4428.960        3451.138
 -29001094.870 9 -22571438.46848  18587057.270    18587059.2234   18587065.6934
       745.324         580.772
  -8732461.220 9  -6779633.46547  22378962.899    22378965.0264   22378972.3344
      4199.611        3272.424
 97  4 28 18  1 29.9940000  0  7 27  2 26 15  4  7  9               -0.005429949
  -1374827.984 9  -1058959.55547  20484205.430    20484207.3204   20484214.3874
     -2171.936       -1692.418
 -11991609.604 9  -9327042.02948  19666632.765    19666634.5394   19666640.8084
       245.967         191.663
 -20849726.938 9 -16229155.15147  21181681.604    21181684.2884   21181690.5724
      -204.485        -159.339
 -15228927.294 8 -11853115.81046  22539899.720    22539901.0464   22539908.7784
     -1042.743        -812.527
 -12248341.519 9  -9526137.95346  22047332.509    22047335.6124   22047343.5874
      4428.346        3450.659
 -29023264.255 9 -22588713.31348  18582838.616    18582840.5274   18582846.9754
       733.329         571.425
  -8858403.611 9  -6877770.33847  22354996.918    22354999.0714   22355006.3074
      4197.123        3270.485
 97  4 28 18  1 59.9940000  0  7 27  2 26 15  4  7  9               -0.005448201
  -1309630.543 9  -1008156.39647  20496612.175    20496614.0634   20496621.1004
     -2177.792       -1696.981
 -11999029.551 9  -9332823.81648  19665220.805    19665222.5854   19665228.8344
       245.350         191.182
 -20843503.176 9 -16224305.49647  21182866.054    21182868.5924   21182874.9444
      -213.811        -166.606
 -15197523.766 8 -11828645.55945  22545875.558    22545876.9374   22545884.5184
     -1054.159        -821.423
 -12381275.383 9  -9629722.70346  22022036.361    22022039.1724   22022047.0934
      4430.665        3452.466
 -29045192.510 9 -22605800.26648  18578665.796    18578667.7294   18578674.1974
       725.333         565.195
  -8984376.857 9  -6975931.27647  22331025.347    22331027.1804   22331034.3474
      4197.678        3270.918
 97  4 28 18  2 29.9940000  0  7 27  2 26 15  4  7  9               -0.005466454
  -1244145.269 9   -957128.95647  20509073.279    20509075.5614   20509082.6004
     -2187.438       -1704.497
 -12006306.364 9  -9338494.06948  19663836.038    19663837.8664   19663844.0994
       240.142         187.124
 -20836869.045 9 -16219136.06447  21184128.249    21184131.0274   21184137.4044
      -228.162        -177.788
 -15165655.023 8 -11803812.81545  22551939.803    22551941.3354   22551948.9334
     -1069.923        -833.706
 -12514158.277 9  -9733267.74046  21996749.374    21996752.2994   21996760.3594
      4428.861        3451.061
 -29066768.786 9 -22622612.94848  18574560.026    18574561.9194   18574568.3664
       713.400         555.896
  -9110245.994 9  -7074011.07246  22307073.312    22307074.9334   22307082.1394
      4194.017        3268.065
 97  4 28 18  2 59.9940000  0  7 27  2 26 15  4  7  9               -0.005484668
  -1178307.850 9   -905827.10347  20521601.906    20521604.0454   20521611.1014
     -2198.946       -1713.464
 -12013348.414 9  -9343981.39548  19662496.069    19662497.8414   19662504.0604
       232.183         180.922
 -20829731.679 9 -16213574.50947  21185486.475    21185489.2644   21185495.6064
      -244.729        -190.698
 -15133252.842 9 -11778564.41746  22558105.853    22558107.2974   22558115.1084
     -1087.328        -847.269
 -12646943.448 9  -9836736.60546  21971481.123    21971483.9354   21971492.1464
      4426.369        3449.119
 -29087910.288 9 -22639086.84348  18570536.963    18570538.8354   18570545.2664
       698.537         544.315
  -9235942.489 9  -7171956.34846  22283153.990    22283155.5054   22283162.7384
      4188.670        3263.899
 97  4 28 18  3 29.9940000  0  7 27  2 26 15  4  7  9               -0.005502901
  -1112176.916 9   -854296.55247  20534186.381    20534188.3564   20534195.4324
     -2208.945       -1721.256
 -12020203.974 9  -9349323.40248  19661191.534    19661193.3094   19661199.4964
       225.908         176.032
 -20822149.841 9 -16207666.60547  21186929.322    21186932.0244   21186938.3744
      -259.797        -202.439
 -15100375.769 9 -11752945.93946  22564361.891    22564363.8414   22564371.4174
     -1103.525        -859.890
 -12779704.410 9  -9940186.64546  21946217.558    21946220.3774   21946228.5394
      4425.152        3448.170
 -29108637.151 9 -22655237.64448  18566592.715    18566594.6124   18566601.0194
       684.128         533.087
  -9361531.374 9  -7269817.78246  22259255.315    22259256.6764   22259263.8594
      4184.845        3260.918
 97  4 28 18  3 59.9940000  0  7 27  2 26 15  4  7  9               -0.005521195
  -1045811.867 9   -802583.56947  20546815.234    20546817.2294   20546824.3654
     -2218.790       -1728.927
 -12026939.612 9  -9354571.96648  19659909.765    19659911.5744   19659917.7414
       219.942         171.383
 -20814176.626 9 -16201453.73447  21188446.609    21188449.2844   21188455.5954
      -275.069        -214.339
 -15067074.262 8 -11726996.71746  22570698.912    22570700.9824   22570708.5094
     -1119.861        -872.619
 -12912486.304 9 -10043652.95346  21920949.664    21920952.7174   21920960.9444
      4423.729        3447.062
 -29128987.073 9 -22671094.72748  18562720.375    18562722.1534   18562728.5594
       669.206         521.459
  -9487065.354 9  -7367636.44347  22235366.307    22235368.2634   22235375.4994
      4180.846        3257.802
 97  4 28 18  4 29.9940000  0  7 27  2 26 15  4  7  9               -0.005539436
   -979025.199 9   -750542.04947  20559524.376    20559526.3134   20559533.5334
     -2234.080       -1740.841
 -12033378.524 9  -9359589.31248  19658684.504    19658686.3004   19658692.4774
       209.093         162.930
 -20805624.503 9 -16194789.76847  21190074.058    21190076.7104   21190083.0464
      -295.260        -230.073
 -15033166.533 8 -11700575.13245  22577151.385    22577153.5304   22577160.8664
     -1140.978        -889.074
 -13045103.377 9 -10146990.87346  21895714.060    21895716.4894   21895724.6414
      4416.976        3441.799
 -29148765.179 9 -22686506.23448  18558956.705    18558958.5054   18558964.9264
       649.021         505.731
  -9612366.834 9  -7465273.91847  22211522.380    22211524.1544   22211531.3824
      4172.206        3251.070
 97  4 28 18  4 59.9940000  0  7 27  2 26 15  4  7  9               -0.005557588
   -911744.731 9   -698115.76047  20572327.314    20572329.4064   20572336.6734
     -2244.926       -1749.293
 -12039470.831 9  -9364336.57648  19657525.067    19657526.9634   19657533.1734
       203.528         158.593
 -20796448.837 9 -16187639.92347  21191820.186    21191822.7774   21191829.1674
      -309.828        -241.424
 -14998597.254 8 -11673638.09145  22583729.773    22583731.7634   22583739.2764
     -1157.235        -901.742
 -13177480.550 9 -10250141.81146  21870523.277    21870525.7864   21870534.0424
      4414.412        3439.802
 -29167909.650 9 -22701424.01048  18555313.573    18555315.4104   18555321.8744
       633.802         493.872
  -9737374.237 9  -7562682.22446  22187734.351    22187735.9204   22187743.2194
      4168.000        3247.792
 97  4 28 18  5 29.9940000  0  7 27  2 26 15  4  7  9               -0.005575862
   -844304.480 9   -645564.95947  20585160.757    20585162.9444   20585170.1644
     -2248.408       -1752.006
 -12045578.022 9  -9369095.43948  19656363.026    19656364.8404   19656371.0614
       206.095         160.594
 -20787011.722 9 -16180286.35247  21193615.891    21193618.6044   21193624.9934
      -316.575        -246.682
 -14963707.735 8 -11646451.47746  22590368.884    22590370.9324   22590378.5794
     -1166.026        -908.592
 -13309937.038 9 -10353354.58246  21845317.117    21845320.0334   21845328.2824
      4418.605        3443.069
 -29186778.063 9 -22716126.67648  18551722.858    18551724.8424   18551731.3654
       627.038         488.601
  -9862424.598 9  -7660124.00546  22163937.708    22163939.4474   22163946.8744
      4171.239        3250.316
 97  4 28 18  5 59.9940000  0  7 27  2 26 15  4  7  9               -0.005594230
   -776694.297 9   -592881.73647  20598026.613    20598028.7594   20598035.9494
     -2259.097       -1760.335
 -12051684.763 9  -9373853.94548  19655200.919    19655202.7634   19655209.0164
       200.794         156.463
 -20777306.260 9 -16172723.67947  21195462.905    21195465.4914   21195471.8364
      -330.525        -257.552
 -14928491.382 8 -11619010.15846  22597070.312    22597072.4634   22597080.2544
     -1181.738        -920.835
 -13442448.549 9 -10456610.22846  21820101.125    21820103.9504   21820112.0914
      4415.306        3440.498
 -29205392.027 9 -22730631.06448  18548180.699    18548182.7144   18548189.2404
       613.918         478.378
  -9987498.005 9  -7757583.76646  22140137.067    22140138.7914   22140146.1834
      4166.888        3246.926
 97  4 28 18  6 29.9940000  0  7 27  2 26 15  4  7  9               -0.005612550
   -708699.235 9   -539898.62347  20610965.528    20610967.7764   20610974.9674
     -2272.892       -1771.085
 -12057555.724 9  -9378428.73548  19654083.700    19654085.5654   19654091.8504
       191.442         149.175
 -20767123.826 9 -16164789.34647  21197400.471    21197403.1394   21197409.4604
      -347.239        -270.576
 -14892742.139 8 -11591153.65845  22603873.138    22603875.1864   22603883.1114
     -1200.551        -935.494
 -13574799.102 9 -10559740.44246  21794915.568    21794918.3484   21794926.5084
      4409.058        3435.630
 -29223558.109 9 -22744786.45348  18544723.856    18544725.8724   18544732.3694
       598.052         466.014
 -10112379.976 9  -7854894.36247  22116373.168    22116374.5934   22116381.8764
      4159.453        3241.132
 97  4 28 18  6 59.9940000  0  7 27  2 26 15  4  7  9               -0.005630816
   -640309.527 9   -486607.98147  20623979.510    20623981.8714   20623989.1044
     -2289.036       -1783.664
 -12063148.155 9  -9382786.48248  19653019.537    19653021.3804   19653027.6894
       178.680         139.231
 -20756455.845 9 -16156476.65847  21199430.540    21199433.2044   21199439.5754
      -366.633        -285.688
 -14856443.720 8 -11562869.27045  22610778.939    22610782.3814   22610790.5074
     -1222.056        -952.251
 -13706971.581 9 -10662731.90146  21769764.078    21769766.6704   21769774.8274
      4399.852        3428.456
 -29241257.866 9 -22758578.47448  18541355.666    18541357.7404   18541364.2374
       579.251         451.364
 -10237043.417 9  -7952034.65847  22092650.847    22092651.9504   22092659.2184
      4148.925        3232.928
 97  4 28 18  7 29.9940000  0  7 27  2 26 15  4  7  9               -0.005649050
   -571576.900 9   -433050.14347  20637059.195    20637061.2394   20637068.5394
     -2296.443       -1789.436
 -12068485.272 9  -9386945.29248  19652003.902    19652005.7564   19652012.0734
       173.689         135.342
 -20745336.315 9 -16147812.12047  21201546.691    21201549.2534   21201555.6544
      -378.092        -294.617
 -14819636.459 8 -11534188.33645  22617782.664    22617786.3984   22617794.6384
     -1235.182        -962.479
 -13839004.223 9 -10765614.39046  21744639.065    21744641.6024   21744649.7474
      4398.958        3427.759
 -29258529.591 9 -22772036.95948  18538069.092    18538071.0464   18538077.5534
       568.793         443.215
 -10361528.973 9  -8049036.32846  22068961.721    22068963.1714   22068970.4054
      4146.799        3231.272
 97  4 28 18  7 59.9940000  0  7 27  2 26 15  4  7  9               -0.005667283
   -502559.704 9   -379270.56247  20650192.692    20650194.8484   20650202.1434
     -2305.432       -1796.441
 -12073598.281 9  -9390929.46348  19651030.998    19651032.8134   19651039.1064
       166.754         129.938
 -20733803.497 9 -16138825.53947  21203741.477    21203743.9684   21203750.3464
      -391.374        -304.967
 -14782369.501 8 -11505149.20545  22624875.517    22624878.3074   22624886.3104
     -1249.957        -973.992
 -13970947.522 9 -10868427.25546  21719530.405    21719533.4844   21719541.7094
      4396.725        3426.019
 -29275419.415 9 -22785197.86148  18534855.096    18534857.0404   18534863.5294
       556.484         433.624
 -10485883.715 9  -8145936.06447  22045297.481    22045299.2694   22045306.4884
      4143.001        3228.312
 97  4 28 18  8 29.9940000  0  7 27  2 26 15  4  7  9               -0.005685536
   -433274.993 9   -325282.51547  20663377.613    20663379.4284   20663386.7064
     -2313.744       -1802.917
 -12078513.908 9  -9394759.84148  19650095.609    19650097.4164   19650103.7164
       161.003         125.457
 -20721881.734 9 -16129535.87747  21206010.208    21206012.6524   21206018.9704
      -403.525        -314.435
 -14744665.852 8 -11475769.75045  22632050.982    22632053.0584   22632060.9044
     -1263.777        -984.761
 -14102832.326 9 -10971194.55746  21694433.738    21694436.5584   21694444.7504
      4395.335        3424.936
 -29291935.672 9 -22798067.67648  18531712.248    18531714.1324   18531720.6174
       544.339         424.160
 -10610130.411 9  -8242751.63047  22021653.865    22021655.9414   22021663.0704
      4139.850        3225.857
 97  4 28 18  8 59.9940000  0  7 27  2 26 15  4  7  9               -0.005703848
   -363777.847 9   -271128.94347  20676602.522    20676604.3864   20676611.6514
     -2324.319       -1811.158
 -12083313.552 9  -9398499.83348  19649182.308    19649184.1054   19649190.3884
       154.238         120.185
 -20709634.370 9 -16119992.51447  21208340.856    21208343.2734   21208349.6394
      -417.919        -325.651
 -14706581.399 8 -11446093.56445  22639298.609    22639300.2224   22639308.1624
     -1279.880        -997.309
 -14234702.895 9 -11073950.75046  21669340.118    21669342.4304   21669350.5304
      4391.194        3421.710
 -29308129.025 9 -22810685.87248  18528630.687    18528632.6274   18528639.1014
       530.424         413.317
 -10734316.368 9  -8339519.87147  21998021.746    21998024.2184   21998031.2094
      4134.476        3221.670
 97  4 28 18  9 29.9940000  0  7 27  2 26 15  4  7  9               -0.005722129
   -293931.795 9   -216703.49747  20689893.717    20689895.7394   20689902.9564
     -2330.232       -1815.765
 -12087883.161 9  -9402060.59048  19648312.733    19648314.5674   19648320.8484
       152.284         118.663
 -20696917.350 9 -16110083.18547  21210760.939    21210763.3264   21210769.6214
      -427.913        -333.439
 -14667992.228 8 -11416024.13445  22646642.202    22646643.5584   22646651.4924
     -1290.803       -1005.821
 -14366423.804 9 -11176590.33846  21644274.515    21644276.8284   21644284.8334
      4392.104        3422.419
 -29323883.192 9 -22822961.85748  18525632.707    18525634.7064   18525641.2004
       521.671         406.497
 -10858313.000 9  -8436140.58147  21974426.068    21974428.4504   21974435.3184
      4133.847        3221.179
